<?xml version="1.0" encoding="UTF-8" standalone="no" ?>
<gpx xmlns="http://www.topografix.com/GPX/1/1" xmlns:xsi="http://www.w3.org/2001/XMLSchema-instance" xsi:schemaLocation="http://www.topografix.com/GPX/1/1 http://www.topografix.com/GPX/1/1/gpx.xsd" version="1.1" creator="VisuGPX - https://www.visugpx.com">
  <metadata>
    <name>Andelot en Montagne</name>
  </metadata>
  <trk>
    <name><![CDATA[Andelot en Montagne_1]]></name>
    <trkseg>
      <trkpt lat="46.85281" lon="5.93261">
        <ele>593.2</ele>
        <time>2021-02-11T13:04:19Z</time>
      </trkpt>
      <trkpt lat="46.85282" lon="5.93254">
        <ele>600.6</ele>
        <time>2021-02-11T13:04:30Z</time>
      </trkpt>
      <trkpt lat="46.85287" lon="5.93253">
        <ele>605.7</ele>
        <time>2021-02-11T13:04:44Z</time>
      </trkpt>
      <trkpt lat="46.8529" lon="5.93248">
        <ele>607.9</ele>
        <time>2021-02-11T13:04:52Z</time>
      </trkpt>
      <trkpt lat="46.8529" lon="5.93241">
        <ele>609.2</ele>
        <time>2021-02-11T13:04:57Z</time>
      </trkpt>
      <trkpt lat="46.8529" lon="5.93233">
        <ele>609.9</ele>
        <time>2021-02-11T13:05:02Z</time>
      </trkpt>
      <trkpt lat="46.85289" lon="5.93226">
        <ele>609.7</ele>
        <time>2021-02-11T13:05:07Z</time>
      </trkpt>
      <trkpt lat="46.85288" lon="5.93219">
        <ele>609</ele>
        <time>2021-02-11T13:05:11Z</time>
      </trkpt>
      <trkpt lat="46.85288" lon="5.93212">
        <ele>608</ele>
        <time>2021-02-11T13:05:15Z</time>
      </trkpt>
      <trkpt lat="46.85288" lon="5.93206">
        <ele>607.4</ele>
        <time>2021-02-11T13:05:19Z</time>
      </trkpt>
      <trkpt lat="46.8529" lon="5.93199">
        <ele>606.6</ele>
        <time>2021-02-11T13:05:24Z</time>
      </trkpt>
      <trkpt lat="46.85289" lon="5.93191">
        <ele>606.9</ele>
        <time>2021-02-11T13:05:29Z</time>
      </trkpt>
      <trkpt lat="46.85289" lon="5.93184">
        <ele>608</ele>
        <time>2021-02-11T13:05:33Z</time>
      </trkpt>
      <trkpt lat="46.85292" lon="5.93177">
        <ele>609.7</ele>
        <time>2021-02-11T13:05:38Z</time>
      </trkpt>
      <trkpt lat="46.85294" lon="5.9317">
        <ele>610.9</ele>
        <time>2021-02-11T13:05:43Z</time>
      </trkpt>
      <trkpt lat="46.85296" lon="5.93164">
        <ele>611.8</ele>
        <time>2021-02-11T13:05:48Z</time>
      </trkpt>
      <trkpt lat="46.85297" lon="5.93157">
        <ele>612.2</ele>
        <time>2021-02-11T13:05:53Z</time>
      </trkpt>
      <trkpt lat="46.85298" lon="5.93149">
        <ele>612.7</ele>
        <time>2021-02-11T13:05:58Z</time>
      </trkpt>
      <trkpt lat="46.85299" lon="5.93142">
        <ele>612.9</ele>
        <time>2021-02-11T13:06:02Z</time>
      </trkpt>
      <trkpt lat="46.853" lon="5.93136">
        <ele>612.9</ele>
        <time>2021-02-11T13:06:06Z</time>
      </trkpt>
      <trkpt lat="46.85301" lon="5.93128">
        <ele>613</ele>
        <time>2021-02-11T13:06:11Z</time>
      </trkpt>
      <trkpt lat="46.85301" lon="5.93121">
        <ele>613.9</ele>
        <time>2021-02-11T13:06:17Z</time>
      </trkpt>
      <trkpt lat="46.85302" lon="5.93114">
        <ele>614.4</ele>
        <time>2021-02-11T13:06:21Z</time>
      </trkpt>
      <trkpt lat="46.85303" lon="5.93107">
        <ele>614.5</ele>
        <time>2021-02-11T13:06:25Z</time>
      </trkpt>
      <trkpt lat="46.85304" lon="5.931">
        <ele>614.4</ele>
        <time>2021-02-11T13:06:30Z</time>
      </trkpt>
      <trkpt lat="46.85306" lon="5.93094">
        <ele>614.3</ele>
        <time>2021-02-11T13:06:35Z</time>
      </trkpt>
      <trkpt lat="46.85308" lon="5.93087">
        <ele>613.7</ele>
        <time>2021-02-11T13:06:41Z</time>
      </trkpt>
      <trkpt lat="46.85309" lon="5.9308">
        <ele>613.3</ele>
        <time>2021-02-11T13:06:47Z</time>
      </trkpt>
      <trkpt lat="46.85309" lon="5.93073">
        <ele>613.1</ele>
        <time>2021-02-11T13:06:52Z</time>
      </trkpt>
      <trkpt lat="46.85309" lon="5.93066">
        <ele>612.8</ele>
        <time>2021-02-11T13:06:57Z</time>
      </trkpt>
      <trkpt lat="46.85309" lon="5.93058">
        <ele>612.6</ele>
        <time>2021-02-11T13:07:02Z</time>
      </trkpt>
      <trkpt lat="46.85309" lon="5.93051">
        <ele>612.2</ele>
        <time>2021-02-11T13:07:07Z</time>
      </trkpt>
      <trkpt lat="46.85309" lon="5.93043">
        <ele>611.6</ele>
        <time>2021-02-11T13:07:12Z</time>
      </trkpt>
      <trkpt lat="46.85311" lon="5.93036">
        <ele>610.8</ele>
        <time>2021-02-11T13:07:18Z</time>
      </trkpt>
      <trkpt lat="46.85312" lon="5.93029">
        <ele>610.5</ele>
        <time>2021-02-11T13:07:23Z</time>
      </trkpt>
      <trkpt lat="46.85312" lon="5.93022">
        <ele>610.5</ele>
        <time>2021-02-11T13:07:29Z</time>
      </trkpt>
      <trkpt lat="46.85313" lon="5.93015">
        <ele>611</ele>
        <time>2021-02-11T13:07:34Z</time>
      </trkpt>
      <trkpt lat="46.85314" lon="5.93008">
        <ele>611.7</ele>
        <time>2021-02-11T13:07:38Z</time>
      </trkpt>
      <trkpt lat="46.85314" lon="5.93">
        <ele>612.2</ele>
        <time>2021-02-11T13:07:43Z</time>
      </trkpt>
      <trkpt lat="46.85314" lon="5.92993">
        <ele>612.4</ele>
        <time>2021-02-11T13:07:48Z</time>
      </trkpt>
      <trkpt lat="46.85314" lon="5.92987">
        <ele>612.9</ele>
        <time>2021-02-11T13:07:52Z</time>
      </trkpt>
      <trkpt lat="46.85316" lon="5.9298">
        <ele>613.5</ele>
        <time>2021-02-11T13:07:56Z</time>
      </trkpt>
      <trkpt lat="46.85317" lon="5.92973">
        <ele>614.6</ele>
        <time>2021-02-11T13:08:00Z</time>
      </trkpt>
      <trkpt lat="46.85319" lon="5.92966">
        <ele>615.8</ele>
        <time>2021-02-11T13:08:04Z</time>
      </trkpt>
      <trkpt lat="46.85319" lon="5.92958">
        <ele>617.1</ele>
        <time>2021-02-11T13:08:09Z</time>
      </trkpt>
      <trkpt lat="46.8532" lon="5.92951">
        <ele>618.3</ele>
        <time>2021-02-11T13:08:14Z</time>
      </trkpt>
      <trkpt lat="46.8532" lon="5.92945">
        <ele>619.3</ele>
        <time>2021-02-11T13:08:18Z</time>
      </trkpt>
      <trkpt lat="46.85322" lon="5.92938">
        <ele>620.5</ele>
        <time>2021-02-11T13:08:22Z</time>
      </trkpt>
      <trkpt lat="46.85323" lon="5.9293">
        <ele>621.4</ele>
        <time>2021-02-11T13:08:27Z</time>
      </trkpt>
      <trkpt lat="46.85324" lon="5.92923">
        <ele>621.6</ele>
        <time>2021-02-11T13:08:32Z</time>
      </trkpt>
      <trkpt lat="46.85326" lon="5.92916">
        <ele>620.8</ele>
        <time>2021-02-11T13:08:38Z</time>
      </trkpt>
      <trkpt lat="46.85328" lon="5.9291">
        <ele>619.7</ele>
        <time>2021-02-11T13:08:43Z</time>
      </trkpt>
      <trkpt lat="46.8533" lon="5.92903">
        <ele>618.9</ele>
        <time>2021-02-11T13:08:48Z</time>
      </trkpt>
      <trkpt lat="46.85332" lon="5.92897">
        <ele>618.5</ele>
        <time>2021-02-11T13:08:53Z</time>
      </trkpt>
      <trkpt lat="46.85335" lon="5.9289">
        <ele>618.4</ele>
        <time>2021-02-11T13:08:58Z</time>
      </trkpt>
      <trkpt lat="46.85337" lon="5.92883">
        <ele>618.5</ele>
        <time>2021-02-11T13:09:03Z</time>
      </trkpt>
      <trkpt lat="46.8534" lon="5.92876">
        <ele>618.9</ele>
        <time>2021-02-11T13:09:08Z</time>
      </trkpt>
      <trkpt lat="46.85342" lon="5.9287">
        <ele>619.3</ele>
        <time>2021-02-11T13:09:13Z</time>
      </trkpt>
      <trkpt lat="46.85344" lon="5.92863">
        <ele>620</ele>
        <time>2021-02-11T13:09:18Z</time>
      </trkpt>
      <trkpt lat="46.85346" lon="5.92856">
        <ele>620.7</ele>
        <time>2021-02-11T13:09:22Z</time>
      </trkpt>
      <trkpt lat="46.85349" lon="5.9285">
        <ele>621.6</ele>
        <time>2021-02-11T13:09:27Z</time>
      </trkpt>
      <trkpt lat="46.85351" lon="5.92844">
        <ele>622.3</ele>
        <time>2021-02-11T13:09:33Z</time>
      </trkpt>
      <trkpt lat="46.85353" lon="5.92837">
        <ele>622.5</ele>
        <time>2021-02-11T13:09:38Z</time>
      </trkpt>
      <trkpt lat="46.85354" lon="5.92831">
        <ele>622.5</ele>
        <time>2021-02-11T13:09:42Z</time>
      </trkpt>
      <trkpt lat="46.85356" lon="5.92824">
        <ele>622.2</ele>
        <time>2021-02-11T13:09:47Z</time>
      </trkpt>
      <trkpt lat="46.85358" lon="5.92818">
        <ele>621.9</ele>
        <time>2021-02-11T13:09:52Z</time>
      </trkpt>
      <trkpt lat="46.85361" lon="5.92811">
        <ele>621.4</ele>
        <time>2021-02-11T13:09:57Z</time>
      </trkpt>
      <trkpt lat="46.85363" lon="5.92805">
        <ele>620.9</ele>
        <time>2021-02-11T13:10:01Z</time>
      </trkpt>
      <trkpt lat="46.85365" lon="5.92799">
        <ele>620.4</ele>
        <time>2021-02-11T13:10:05Z</time>
      </trkpt>
      <trkpt lat="46.85368" lon="5.92792">
        <ele>619.3</ele>
        <time>2021-02-11T13:10:10Z</time>
      </trkpt>
      <trkpt lat="46.8537" lon="5.92786">
        <ele>618.5</ele>
        <time>2021-02-11T13:10:14Z</time>
      </trkpt>
      <trkpt lat="46.85374" lon="5.92775">
        <ele>620</ele>
        <time>2021-02-11T13:10:18Z</time>
      </trkpt>
      <trkpt lat="46.85375" lon="5.92768">
        <ele>621.4</ele>
        <time>2021-02-11T13:10:21Z</time>
      </trkpt>
      <trkpt lat="46.85378" lon="5.92761">
        <ele>622.8</ele>
        <time>2021-02-11T13:10:25Z</time>
      </trkpt>
      <trkpt lat="46.8538" lon="5.92755">
        <ele>623.5</ele>
        <time>2021-02-11T13:10:30Z</time>
      </trkpt>
      <trkpt lat="46.85381" lon="5.92747">
        <ele>623.7</ele>
        <time>2021-02-11T13:10:35Z</time>
      </trkpt>
      <trkpt lat="46.85383" lon="5.9274">
        <ele>623.7</ele>
        <time>2021-02-11T13:10:40Z</time>
      </trkpt>
      <trkpt lat="46.85384" lon="5.92733">
        <ele>623.4</ele>
        <time>2021-02-11T13:10:45Z</time>
      </trkpt>
      <trkpt lat="46.85386" lon="5.92727">
        <ele>623.1</ele>
        <time>2021-02-11T13:10:50Z</time>
      </trkpt>
      <trkpt lat="46.85389" lon="5.9272">
        <ele>622.6</ele>
        <time>2021-02-11T13:10:55Z</time>
      </trkpt>
      <trkpt lat="46.8539" lon="5.92713">
        <ele>622</ele>
        <time>2021-02-11T13:10:59Z</time>
      </trkpt>
      <trkpt lat="46.85392" lon="5.92706">
        <ele>621.5</ele>
        <time>2021-02-11T13:11:03Z</time>
      </trkpt>
      <trkpt lat="46.85394" lon="5.927">
        <ele>621.2</ele>
        <time>2021-02-11T13:11:07Z</time>
      </trkpt>
      <trkpt lat="46.85395" lon="5.92692">
        <ele>620.7</ele>
        <time>2021-02-11T13:11:12Z</time>
      </trkpt>
      <trkpt lat="46.85397" lon="5.92686">
        <ele>620.4</ele>
        <time>2021-02-11T13:11:16Z</time>
      </trkpt>
      <trkpt lat="46.85399" lon="5.92679">
        <ele>620.3</ele>
        <time>2021-02-11T13:11:21Z</time>
      </trkpt>
      <trkpt lat="46.85402" lon="5.92672">
        <ele>620.3</ele>
        <time>2021-02-11T13:11:26Z</time>
      </trkpt>
      <trkpt lat="46.85405" lon="5.92665">
        <ele>620.2</ele>
        <time>2021-02-11T13:11:30Z</time>
      </trkpt>
      <trkpt lat="46.85408" lon="5.92659">
        <ele>620.1</ele>
        <time>2021-02-11T13:11:35Z</time>
      </trkpt>
      <trkpt lat="46.8541" lon="5.92652">
        <ele>620.2</ele>
        <time>2021-02-11T13:11:40Z</time>
      </trkpt>
      <trkpt lat="46.85413" lon="5.92646">
        <ele>620.1</ele>
        <time>2021-02-11T13:11:44Z</time>
      </trkpt>
      <trkpt lat="46.85415" lon="5.92639">
        <ele>620.2</ele>
        <time>2021-02-11T13:11:49Z</time>
      </trkpt>
      <trkpt lat="46.85418" lon="5.92632">
        <ele>620.1</ele>
        <time>2021-02-11T13:11:54Z</time>
      </trkpt>
      <trkpt lat="46.8542" lon="5.92624">
        <ele>619.9</ele>
        <time>2021-02-11T13:11:59Z</time>
      </trkpt>
      <trkpt lat="46.85421" lon="5.92617">
        <ele>620.2</ele>
        <time>2021-02-11T13:12:03Z</time>
      </trkpt>
      <trkpt lat="46.85423" lon="5.9261">
        <ele>620.9</ele>
        <time>2021-02-11T13:12:08Z</time>
      </trkpt>
      <trkpt lat="46.85424" lon="5.92602">
        <ele>621.2</ele>
        <time>2021-02-11T13:12:13Z</time>
      </trkpt>
      <trkpt lat="46.85426" lon="5.92595">
        <ele>621.1</ele>
        <time>2021-02-11T13:12:17Z</time>
      </trkpt>
      <trkpt lat="46.85428" lon="5.92589">
        <ele>620.7</ele>
        <time>2021-02-11T13:12:21Z</time>
      </trkpt>
      <trkpt lat="46.85431" lon="5.92582">
        <ele>620.5</ele>
        <time>2021-02-11T13:12:25Z</time>
      </trkpt>
      <trkpt lat="46.85433" lon="5.92576">
        <ele>620.1</ele>
        <time>2021-02-11T13:12:30Z</time>
      </trkpt>
      <trkpt lat="46.85436" lon="5.9257">
        <ele>619.5</ele>
        <time>2021-02-11T13:12:35Z</time>
      </trkpt>
      <trkpt lat="46.85438" lon="5.92563">
        <ele>618.8</ele>
        <time>2021-02-11T13:12:40Z</time>
      </trkpt>
      <trkpt lat="46.8544" lon="5.92556">
        <ele>618.3</ele>
        <time>2021-02-11T13:12:45Z</time>
      </trkpt>
      <trkpt lat="46.85442" lon="5.9255">
        <ele>618.2</ele>
        <time>2021-02-11T13:12:50Z</time>
      </trkpt>
      <trkpt lat="46.85443" lon="5.92542">
        <ele>618.6</ele>
        <time>2021-02-11T13:12:56Z</time>
      </trkpt>
      <trkpt lat="46.85445" lon="5.92534">
        <ele>618.2</ele>
        <time>2021-02-11T13:13:01Z</time>
      </trkpt>
      <trkpt lat="46.85447" lon="5.92527">
        <ele>618.1</ele>
        <time>2021-02-11T13:13:05Z</time>
      </trkpt>
      <trkpt lat="46.85449" lon="5.92521">
        <ele>617.8</ele>
        <time>2021-02-11T13:13:09Z</time>
      </trkpt>
      <trkpt lat="46.8545" lon="5.92514">
        <ele>617.6</ele>
        <time>2021-02-11T13:13:12Z</time>
      </trkpt>
      <trkpt lat="46.85452" lon="5.92508">
        <ele>617.5</ele>
        <time>2021-02-11T13:13:15Z</time>
      </trkpt>
      <trkpt lat="46.85454" lon="5.92501">
        <ele>617.4</ele>
        <time>2021-02-11T13:13:19Z</time>
      </trkpt>
      <trkpt lat="46.85456" lon="5.92494">
        <ele>617.4</ele>
        <time>2021-02-11T13:13:23Z</time>
      </trkpt>
      <trkpt lat="46.85457" lon="5.92486">
        <ele>618.1</ele>
        <time>2021-02-11T13:13:28Z</time>
      </trkpt>
      <trkpt lat="46.85459" lon="5.92479">
        <ele>618.9</ele>
        <time>2021-02-11T13:13:33Z</time>
      </trkpt>
      <trkpt lat="46.8546" lon="5.92473">
        <ele>619.6</ele>
        <time>2021-02-11T13:13:37Z</time>
      </trkpt>
      <trkpt lat="46.85462" lon="5.92466">
        <ele>620.1</ele>
        <time>2021-02-11T13:13:42Z</time>
      </trkpt>
      <trkpt lat="46.85464" lon="5.92459">
        <ele>620.2</ele>
        <time>2021-02-11T13:13:47Z</time>
      </trkpt>
      <trkpt lat="46.85466" lon="5.92452">
        <ele>620.3</ele>
        <time>2021-02-11T13:13:51Z</time>
      </trkpt>
      <trkpt lat="46.85469" lon="5.92446">
        <ele>620.7</ele>
        <time>2021-02-11T13:13:55Z</time>
      </trkpt>
      <trkpt lat="46.8547" lon="5.92439">
        <ele>621.2</ele>
        <time>2021-02-11T13:13:59Z</time>
      </trkpt>
      <trkpt lat="46.85472" lon="5.92433">
        <ele>621.6</ele>
        <time>2021-02-11T13:14:03Z</time>
      </trkpt>
      <trkpt lat="46.85474" lon="5.92427">
        <ele>622.2</ele>
        <time>2021-02-11T13:14:07Z</time>
      </trkpt>
      <trkpt lat="46.85475" lon="5.9242">
        <ele>622.6</ele>
        <time>2021-02-11T13:14:12Z</time>
      </trkpt>
      <trkpt lat="46.85477" lon="5.92412">
        <ele>623</ele>
        <time>2021-02-11T13:14:17Z</time>
      </trkpt>
      <trkpt lat="46.8548" lon="5.92407">
        <ele>623.5</ele>
        <time>2021-02-11T13:14:47Z</time>
      </trkpt>
      <trkpt lat="46.85483" lon="5.92402">
        <ele>624.2</ele>
        <time>2021-02-11T13:14:52Z</time>
      </trkpt>
      <trkpt lat="46.85485" lon="5.92395">
        <ele>625.2</ele>
        <time>2021-02-11T13:14:57Z</time>
      </trkpt>
      <trkpt lat="46.85487" lon="5.92388">
        <ele>626</ele>
        <time>2021-02-11T13:15:01Z</time>
      </trkpt>
      <trkpt lat="46.85488" lon="5.92382">
        <ele>626.6</ele>
        <time>2021-02-11T13:15:05Z</time>
      </trkpt>
      <trkpt lat="46.8549" lon="5.92374">
        <ele>626.9</ele>
        <time>2021-02-11T13:15:10Z</time>
      </trkpt>
      <trkpt lat="46.85491" lon="5.92367">
        <ele>626.8</ele>
        <time>2021-02-11T13:15:15Z</time>
      </trkpt>
      <trkpt lat="46.85494" lon="5.9236">
        <ele>626.6</ele>
        <time>2021-02-11T13:15:20Z</time>
      </trkpt>
      <trkpt lat="46.85496" lon="5.92354">
        <ele>626.6</ele>
        <time>2021-02-11T13:15:24Z</time>
      </trkpt>
      <trkpt lat="46.85498" lon="5.92346">
        <ele>626.6</ele>
        <time>2021-02-11T13:15:29Z</time>
      </trkpt>
      <trkpt lat="46.855" lon="5.92339">
        <ele>626.8</ele>
        <time>2021-02-11T13:15:34Z</time>
      </trkpt>
      <trkpt lat="46.85502" lon="5.92333">
        <ele>626.9</ele>
        <time>2021-02-11T13:15:38Z</time>
      </trkpt>
      <trkpt lat="46.85504" lon="5.92327">
        <ele>627.2</ele>
        <time>2021-02-11T13:15:42Z</time>
      </trkpt>
      <trkpt lat="46.85505" lon="5.92321">
        <ele>627.4</ele>
        <time>2021-02-11T13:15:46Z</time>
      </trkpt>
      <trkpt lat="46.85507" lon="5.92314">
        <ele>627.9</ele>
        <time>2021-02-11T13:15:50Z</time>
      </trkpt>
      <trkpt lat="46.85509" lon="5.92308">
        <ele>628.3</ele>
        <time>2021-02-11T13:15:55Z</time>
      </trkpt>
      <trkpt lat="46.85512" lon="5.92301">
        <ele>628.3</ele>
        <time>2021-02-11T13:16:00Z</time>
      </trkpt>
      <trkpt lat="46.85514" lon="5.92294">
        <ele>628.3</ele>
        <time>2021-02-11T13:16:05Z</time>
      </trkpt>
      <trkpt lat="46.85516" lon="5.92288">
        <ele>628.4</ele>
        <time>2021-02-11T13:16:09Z</time>
      </trkpt>
      <trkpt lat="46.85519" lon="5.92282">
        <ele>628.5</ele>
        <time>2021-02-11T13:16:14Z</time>
      </trkpt>
      <trkpt lat="46.8552" lon="5.92275">
        <ele>628.1</ele>
        <time>2021-02-11T13:16:19Z</time>
      </trkpt>
      <trkpt lat="46.85522" lon="5.92267">
        <ele>627.8</ele>
        <time>2021-02-11T13:16:24Z</time>
      </trkpt>
      <trkpt lat="46.85523" lon="5.9226">
        <ele>627.7</ele>
        <time>2021-02-11T13:16:28Z</time>
      </trkpt>
      <trkpt lat="46.85524" lon="5.92253">
        <ele>628</ele>
        <time>2021-02-11T13:16:32Z</time>
      </trkpt>
      <trkpt lat="46.85526" lon="5.92246">
        <ele>628.8</ele>
        <time>2021-02-11T13:16:37Z</time>
      </trkpt>
      <trkpt lat="46.85529" lon="5.92238">
        <ele>629.6</ele>
        <time>2021-02-11T13:16:42Z</time>
      </trkpt>
      <trkpt lat="46.8553" lon="5.92232">
        <ele>630.1</ele>
        <time>2021-02-11T13:16:46Z</time>
      </trkpt>
      <trkpt lat="46.85533" lon="5.92225">
        <ele>630.4</ele>
        <time>2021-02-11T13:16:51Z</time>
      </trkpt>
      <trkpt lat="46.85535" lon="5.92219">
        <ele>630.6</ele>
        <time>2021-02-11T13:16:55Z</time>
      </trkpt>
      <trkpt lat="46.85537" lon="5.92212">
        <ele>630.6</ele>
        <time>2021-02-11T13:16:59Z</time>
      </trkpt>
      <trkpt lat="46.85538" lon="5.92205">
        <ele>630.2</ele>
        <time>2021-02-11T13:17:06Z</time>
      </trkpt>
      <trkpt lat="46.8554" lon="5.92199">
        <ele>629.4</ele>
        <time>2021-02-11T13:17:13Z</time>
      </trkpt>
      <trkpt lat="46.85542" lon="5.92193">
        <ele>629</ele>
        <time>2021-02-11T13:17:18Z</time>
      </trkpt>
      <trkpt lat="46.85544" lon="5.92186">
        <ele>628.5</ele>
        <time>2021-02-11T13:17:23Z</time>
      </trkpt>
      <trkpt lat="46.85547" lon="5.9218">
        <ele>628.3</ele>
        <time>2021-02-11T13:17:28Z</time>
      </trkpt>
      <trkpt lat="46.8555" lon="5.92174">
        <ele>628.2</ele>
        <time>2021-02-11T13:17:33Z</time>
      </trkpt>
      <trkpt lat="46.85552" lon="5.92168">
        <ele>628.1</ele>
        <time>2021-02-11T13:17:37Z</time>
      </trkpt>
      <trkpt lat="46.85554" lon="5.92161">
        <ele>628.3</ele>
        <time>2021-02-11T13:17:42Z</time>
      </trkpt>
      <trkpt lat="46.85557" lon="5.92154">
        <ele>628.3</ele>
        <time>2021-02-11T13:17:47Z</time>
      </trkpt>
      <trkpt lat="46.85559" lon="5.92148">
        <ele>628.2</ele>
        <time>2021-02-11T13:17:52Z</time>
      </trkpt>
      <trkpt lat="46.85561" lon="5.92141">
        <ele>628.2</ele>
        <time>2021-02-11T13:17:57Z</time>
      </trkpt>
      <trkpt lat="46.85563" lon="5.92134">
        <ele>628.3</ele>
        <time>2021-02-11T13:18:02Z</time>
      </trkpt>
      <trkpt lat="46.85565" lon="5.92127">
        <ele>628.5</ele>
        <time>2021-02-11T13:18:08Z</time>
      </trkpt>
      <trkpt lat="46.85567" lon="5.9212">
        <ele>628.7</ele>
        <time>2021-02-11T13:18:14Z</time>
      </trkpt>
      <trkpt lat="46.85568" lon="5.92113">
        <ele>628.6</ele>
        <time>2021-02-11T13:18:19Z</time>
      </trkpt>
      <trkpt lat="46.8557" lon="5.92105">
        <ele>628.3</ele>
        <time>2021-02-11T13:18:24Z</time>
      </trkpt>
      <trkpt lat="46.85573" lon="5.92099">
        <ele>628</ele>
        <time>2021-02-11T13:18:30Z</time>
      </trkpt>
      <trkpt lat="46.85575" lon="5.92094">
        <ele>627.3</ele>
        <time>2021-02-11T13:18:36Z</time>
      </trkpt>
      <trkpt lat="46.85577" lon="5.92088">
        <ele>626.6</ele>
        <time>2021-02-11T13:18:42Z</time>
      </trkpt>
      <trkpt lat="46.8558" lon="5.92081">
        <ele>626.3</ele>
        <time>2021-02-11T13:18:47Z</time>
      </trkpt>
      <trkpt lat="46.85583" lon="5.92074">
        <ele>626.2</ele>
        <time>2021-02-11T13:18:52Z</time>
      </trkpt>
      <trkpt lat="46.85585" lon="5.92068">
        <ele>625.8</ele>
        <time>2021-02-11T13:18:57Z</time>
      </trkpt>
      <trkpt lat="46.85588" lon="5.92061">
        <ele>625.5</ele>
        <time>2021-02-11T13:19:01Z</time>
      </trkpt>
      <trkpt lat="46.85589" lon="5.92054">
        <ele>625.4</ele>
        <time>2021-02-11T13:19:05Z</time>
      </trkpt>
      <trkpt lat="46.85592" lon="5.92048">
        <ele>625.3</ele>
        <time>2021-02-11T13:19:09Z</time>
      </trkpt>
      <trkpt lat="46.85594" lon="5.92043">
        <ele>625</ele>
        <time>2021-02-11T13:19:13Z</time>
      </trkpt>
      <trkpt lat="46.85596" lon="5.92036">
        <ele>624.8</ele>
        <time>2021-02-11T13:19:18Z</time>
      </trkpt>
      <trkpt lat="46.85598" lon="5.92028">
        <ele>624.3</ele>
        <time>2021-02-11T13:19:23Z</time>
      </trkpt>
      <trkpt lat="46.856" lon="5.92021">
        <ele>623.5</ele>
        <time>2021-02-11T13:19:27Z</time>
      </trkpt>
      <trkpt lat="46.85602" lon="5.92014">
        <ele>622.9</ele>
        <time>2021-02-11T13:19:31Z</time>
      </trkpt>
      <trkpt lat="46.85604" lon="5.92007">
        <ele>622.5</ele>
        <time>2021-02-11T13:19:35Z</time>
      </trkpt>
      <trkpt lat="46.85605" lon="5.91999">
        <ele>622.4</ele>
        <time>2021-02-11T13:19:40Z</time>
      </trkpt>
      <trkpt lat="46.85606" lon="5.91992">
        <ele>622.2</ele>
        <time>2021-02-11T13:19:44Z</time>
      </trkpt>
      <trkpt lat="46.85609" lon="5.91986">
        <ele>621.9</ele>
        <time>2021-02-11T13:19:48Z</time>
      </trkpt>
      <trkpt lat="46.85613" lon="5.9198">
        <ele>621.2</ele>
        <time>2021-02-11T13:19:53Z</time>
      </trkpt>
      <trkpt lat="46.85616" lon="5.91975">
        <ele>620.7</ele>
        <time>2021-02-11T13:19:57Z</time>
      </trkpt>
      <trkpt lat="46.85617" lon="5.91967">
        <ele>620.5</ele>
        <time>2021-02-11T13:20:04Z</time>
      </trkpt>
      <trkpt lat="46.85616" lon="5.9196">
        <ele>622.1</ele>
        <time>2021-02-11T13:20:47Z</time>
      </trkpt>
      <trkpt lat="46.85616" lon="5.91953">
        <ele>623.9</ele>
        <time>2021-02-11T13:20:56Z</time>
      </trkpt>
      <trkpt lat="46.85619" lon="5.91946">
        <ele>624.5</ele>
        <time>2021-02-11T13:21:02Z</time>
      </trkpt>
      <trkpt lat="46.8562" lon="5.91939">
        <ele>624.8</ele>
        <time>2021-02-11T13:21:07Z</time>
      </trkpt>
      <trkpt lat="46.85622" lon="5.91931">
        <ele>624.9</ele>
        <time>2021-02-11T13:21:12Z</time>
      </trkpt>
      <trkpt lat="46.85623" lon="5.91925">
        <ele>624.7</ele>
        <time>2021-02-11T13:21:16Z</time>
      </trkpt>
      <trkpt lat="46.85626" lon="5.91918">
        <ele>624.7</ele>
        <time>2021-02-11T13:21:21Z</time>
      </trkpt>
      <trkpt lat="46.85627" lon="5.9191">
        <ele>624.9</ele>
        <time>2021-02-11T13:21:26Z</time>
      </trkpt>
      <trkpt lat="46.85629" lon="5.91903">
        <ele>625.1</ele>
        <time>2021-02-11T13:21:31Z</time>
      </trkpt>
      <trkpt lat="46.85632" lon="5.91896">
        <ele>625.5</ele>
        <time>2021-02-11T13:21:36Z</time>
      </trkpt>
      <trkpt lat="46.85634" lon="5.9189">
        <ele>625.9</ele>
        <time>2021-02-11T13:21:40Z</time>
      </trkpt>
      <trkpt lat="46.85636" lon="5.91884">
        <ele>626.4</ele>
        <time>2021-02-11T13:21:44Z</time>
      </trkpt>
      <trkpt lat="46.85639" lon="5.91877">
        <ele>626.8</ele>
        <time>2021-02-11T13:21:48Z</time>
      </trkpt>
      <trkpt lat="46.85641" lon="5.91871">
        <ele>627</ele>
        <time>2021-02-11T13:21:52Z</time>
      </trkpt>
      <trkpt lat="46.85643" lon="5.91864">
        <ele>627.1</ele>
        <time>2021-02-11T13:21:57Z</time>
      </trkpt>
      <trkpt lat="46.85646" lon="5.91858">
        <ele>627.4</ele>
        <time>2021-02-11T13:22:01Z</time>
      </trkpt>
      <trkpt lat="46.85648" lon="5.91851">
        <ele>627.5</ele>
        <time>2021-02-11T13:22:06Z</time>
      </trkpt>
      <trkpt lat="46.8565" lon="5.91845">
        <ele>627.6</ele>
        <time>2021-02-11T13:22:10Z</time>
      </trkpt>
      <trkpt lat="46.85652" lon="5.91838">
        <ele>627.7</ele>
        <time>2021-02-11T13:22:14Z</time>
      </trkpt>
      <trkpt lat="46.85654" lon="5.91831">
        <ele>627.7</ele>
        <time>2021-02-11T13:22:18Z</time>
      </trkpt>
      <trkpt lat="46.85655" lon="5.91823">
        <ele>627.7</ele>
        <time>2021-02-11T13:22:23Z</time>
      </trkpt>
      <trkpt lat="46.85656" lon="5.91816">
        <ele>627.7</ele>
        <time>2021-02-11T13:22:28Z</time>
      </trkpt>
      <trkpt lat="46.85658" lon="5.91809">
        <ele>627.7</ele>
        <time>2021-02-11T13:22:33Z</time>
      </trkpt>
      <trkpt lat="46.85661" lon="5.91803">
        <ele>627.7</ele>
        <time>2021-02-11T13:22:38Z</time>
      </trkpt>
      <trkpt lat="46.85664" lon="5.91797">
        <ele>627.7</ele>
        <time>2021-02-11T13:22:44Z</time>
      </trkpt>
      <trkpt lat="46.85667" lon="5.91792">
        <ele>627.9</ele>
        <time>2021-02-11T13:22:50Z</time>
      </trkpt>
      <trkpt lat="46.85669" lon="5.91786">
        <ele>627.9</ele>
        <time>2021-02-11T13:22:55Z</time>
      </trkpt>
      <trkpt lat="46.85672" lon="5.91779">
        <ele>627.8</ele>
        <time>2021-02-11T13:23:00Z</time>
      </trkpt>
      <trkpt lat="46.85675" lon="5.91773">
        <ele>627.7</ele>
        <time>2021-02-11T13:23:05Z</time>
      </trkpt>
      <trkpt lat="46.85677" lon="5.91766">
        <ele>627.7</ele>
        <time>2021-02-11T13:23:10Z</time>
      </trkpt>
      <trkpt lat="46.85679" lon="5.91761">
        <ele>627.7</ele>
        <time>2021-02-11T13:23:14Z</time>
      </trkpt>
      <trkpt lat="46.85681" lon="5.91753">
        <ele>627.8</ele>
        <time>2021-02-11T13:23:18Z</time>
      </trkpt>
      <trkpt lat="46.85681" lon="5.91746">
        <ele>627.9</ele>
        <time>2021-02-11T13:23:22Z</time>
      </trkpt>
      <trkpt lat="46.85683" lon="5.91739">
        <ele>628</ele>
        <time>2021-02-11T13:23:26Z</time>
      </trkpt>
      <trkpt lat="46.85684" lon="5.91732">
        <ele>627.3</ele>
        <time>2021-02-11T13:23:32Z</time>
      </trkpt>
      <trkpt lat="46.85687" lon="5.91725">
        <ele>626.6</ele>
        <time>2021-02-11T13:23:41Z</time>
      </trkpt>
      <trkpt lat="46.85691" lon="5.9172">
        <ele>626.7</ele>
        <time>2021-02-11T13:23:45Z</time>
      </trkpt>
      <trkpt lat="46.85694" lon="5.91715">
        <ele>627.1</ele>
        <time>2021-02-11T13:23:50Z</time>
      </trkpt>
      <trkpt lat="46.85696" lon="5.91709">
        <ele>627.7</ele>
        <time>2021-02-11T13:23:54Z</time>
      </trkpt>
      <trkpt lat="46.85698" lon="5.91703">
        <ele>628.2</ele>
        <time>2021-02-11T13:23:58Z</time>
      </trkpt>
      <trkpt lat="46.85698" lon="5.91693">
        <ele>630.4</ele>
        <time>2021-02-11T13:24:03Z</time>
      </trkpt>
      <trkpt lat="46.85698" lon="5.91686">
        <ele>632</ele>
        <time>2021-02-11T13:24:06Z</time>
      </trkpt>
      <trkpt lat="46.857" lon="5.91679">
        <ele>634.2</ele>
        <time>2021-02-11T13:24:12Z</time>
      </trkpt>
      <trkpt lat="46.85703" lon="5.91673">
        <ele>635.2</ele>
        <time>2021-02-11T13:24:17Z</time>
      </trkpt>
      <trkpt lat="46.85705" lon="5.91666">
        <ele>635.6</ele>
        <time>2021-02-11T13:24:23Z</time>
      </trkpt>
      <trkpt lat="46.85707" lon="5.91659">
        <ele>635.6</ele>
        <time>2021-02-11T13:24:28Z</time>
      </trkpt>
      <trkpt lat="46.8571" lon="5.91653">
        <ele>635.6</ele>
        <time>2021-02-11T13:24:33Z</time>
      </trkpt>
      <trkpt lat="46.85712" lon="5.91647">
        <ele>635.5</ele>
        <time>2021-02-11T13:24:37Z</time>
      </trkpt>
      <trkpt lat="46.85714" lon="5.91641">
        <ele>635.2</ele>
        <time>2021-02-11T13:24:41Z</time>
      </trkpt>
      <trkpt lat="46.85717" lon="5.91635">
        <ele>634.5</ele>
        <time>2021-02-11T13:24:46Z</time>
      </trkpt>
      <trkpt lat="46.85719" lon="5.91628">
        <ele>633.9</ele>
        <time>2021-02-11T13:24:50Z</time>
      </trkpt>
      <trkpt lat="46.85722" lon="5.91621">
        <ele>633.3</ele>
        <time>2021-02-11T13:24:55Z</time>
      </trkpt>
      <trkpt lat="46.85723" lon="5.91615">
        <ele>633</ele>
        <time>2021-02-11T13:25:01Z</time>
      </trkpt>
      <trkpt lat="46.85723" lon="5.91607">
        <ele>632.8</ele>
        <time>2021-02-11T13:25:07Z</time>
      </trkpt>
      <trkpt lat="46.85724" lon="5.91599">
        <ele>632.7</ele>
        <time>2021-02-11T13:25:11Z</time>
      </trkpt>
      <trkpt lat="46.85725" lon="5.91593">
        <ele>632.7</ele>
        <time>2021-02-11T13:25:14Z</time>
      </trkpt>
      <trkpt lat="46.85727" lon="5.91587">
        <ele>632.7</ele>
        <time>2021-02-11T13:25:18Z</time>
      </trkpt>
      <trkpt lat="46.85731" lon="5.91583">
        <ele>632.9</ele>
        <time>2021-02-11T13:25:22Z</time>
      </trkpt>
      <trkpt lat="46.85734" lon="5.91577">
        <ele>632.9</ele>
        <time>2021-02-11T13:25:28Z</time>
      </trkpt>
      <trkpt lat="46.85737" lon="5.9157">
        <ele>632.2</ele>
        <time>2021-02-11T13:25:32Z</time>
      </trkpt>
      <trkpt lat="46.85737" lon="5.91562">
        <ele>632</ele>
        <time>2021-02-11T13:25:36Z</time>
      </trkpt>
      <trkpt lat="46.85735" lon="5.91556">
        <ele>632.9</ele>
        <time>2021-02-11T13:25:39Z</time>
      </trkpt>
      <trkpt lat="46.85736" lon="5.91549">
        <ele>634.4</ele>
        <time>2021-02-11T13:25:44Z</time>
      </trkpt>
      <trkpt lat="46.85739" lon="5.91543">
        <ele>635.3</ele>
        <time>2021-02-11T13:25:49Z</time>
      </trkpt>
      <trkpt lat="46.85741" lon="5.91536">
        <ele>635.5</ele>
        <time>2021-02-11T13:25:53Z</time>
      </trkpt>
      <trkpt lat="46.85744" lon="5.9153">
        <ele>635.6</ele>
        <time>2021-02-11T13:25:59Z</time>
      </trkpt>
      <trkpt lat="46.85746" lon="5.91524">
        <ele>636.1</ele>
        <time>2021-02-11T13:26:04Z</time>
      </trkpt>
      <trkpt lat="46.85747" lon="5.91516">
        <ele>637.7</ele>
        <time>2021-02-11T13:26:08Z</time>
      </trkpt>
      <trkpt lat="46.85749" lon="5.9151">
        <ele>639</ele>
        <time>2021-02-11T13:26:11Z</time>
      </trkpt>
      <trkpt lat="46.85752" lon="5.91503">
        <ele>639.9</ele>
        <time>2021-02-11T13:26:14Z</time>
      </trkpt>
      <trkpt lat="46.85753" lon="5.91494">
        <ele>641.2</ele>
        <time>2021-02-11T13:26:18Z</time>
      </trkpt>
      <trkpt lat="46.85754" lon="5.91486">
        <ele>642.6</ele>
        <time>2021-02-11T13:26:21Z</time>
      </trkpt>
      <trkpt lat="46.85756" lon="5.9148">
        <ele>644.2</ele>
        <time>2021-02-11T13:26:25Z</time>
      </trkpt>
      <trkpt lat="46.85758" lon="5.91473">
        <ele>645.4</ele>
        <time>2021-02-11T13:26:29Z</time>
      </trkpt>
      <trkpt lat="46.85759" lon="5.91466">
        <ele>646.2</ele>
        <time>2021-02-11T13:26:33Z</time>
      </trkpt>
      <trkpt lat="46.8576" lon="5.91459">
        <ele>646.9</ele>
        <time>2021-02-11T13:26:37Z</time>
      </trkpt>
      <trkpt lat="46.85761" lon="5.91452">
        <ele>647.7</ele>
        <time>2021-02-11T13:26:42Z</time>
      </trkpt>
      <trkpt lat="46.85764" lon="5.91445">
        <ele>648.4</ele>
        <time>2021-02-11T13:26:47Z</time>
      </trkpt>
      <trkpt lat="46.85765" lon="5.91439">
        <ele>649.3</ele>
        <time>2021-02-11T13:26:52Z</time>
      </trkpt>
      <trkpt lat="46.85767" lon="5.91431">
        <ele>649.4</ele>
        <time>2021-02-11T13:26:57Z</time>
      </trkpt>
      <trkpt lat="46.8577" lon="5.91425">
        <ele>649.4</ele>
        <time>2021-02-11T13:27:02Z</time>
      </trkpt>
      <trkpt lat="46.85774" lon="5.91419">
        <ele>649.2</ele>
        <time>2021-02-11T13:27:06Z</time>
      </trkpt>
      <trkpt lat="46.85777" lon="5.91413">
        <ele>649.3</ele>
        <time>2021-02-11T13:27:11Z</time>
      </trkpt>
      <trkpt lat="46.8578" lon="5.91406">
        <ele>649.5</ele>
        <time>2021-02-11T13:27:17Z</time>
      </trkpt>
      <trkpt lat="46.8578" lon="5.91399">
        <ele>649.5</ele>
        <time>2021-02-11T13:27:22Z</time>
      </trkpt>
      <trkpt lat="46.85782" lon="5.91392">
        <ele>649.4</ele>
        <time>2021-02-11T13:27:27Z</time>
      </trkpt>
      <trkpt lat="46.85785" lon="5.91386">
        <ele>648.9</ele>
        <time>2021-02-11T13:27:32Z</time>
      </trkpt>
      <trkpt lat="46.85788" lon="5.9138">
        <ele>647.9</ele>
        <time>2021-02-11T13:27:38Z</time>
      </trkpt>
      <trkpt lat="46.85791" lon="5.91375">
        <ele>646.3</ele>
        <time>2021-02-11T13:27:44Z</time>
      </trkpt>
      <trkpt lat="46.85793" lon="5.91368">
        <ele>644.7</ele>
        <time>2021-02-11T13:27:49Z</time>
      </trkpt>
      <trkpt lat="46.85796" lon="5.91362">
        <ele>642.9</ele>
        <time>2021-02-11T13:27:54Z</time>
      </trkpt>
      <trkpt lat="46.85799" lon="5.91357">
        <ele>640.8</ele>
        <time>2021-02-11T13:28:01Z</time>
      </trkpt>
      <trkpt lat="46.85801" lon="5.9135">
        <ele>639.6</ele>
        <time>2021-02-11T13:28:06Z</time>
      </trkpt>
      <trkpt lat="46.85803" lon="5.91343">
        <ele>638.6</ele>
        <time>2021-02-11T13:28:11Z</time>
      </trkpt>
      <trkpt lat="46.85805" lon="5.91336">
        <ele>638.1</ele>
        <time>2021-02-11T13:28:15Z</time>
      </trkpt>
      <trkpt lat="46.85807" lon="5.91329">
        <ele>637.2</ele>
        <time>2021-02-11T13:28:21Z</time>
      </trkpt>
      <trkpt lat="46.85809" lon="5.91322">
        <ele>636.5</ele>
        <time>2021-02-11T13:28:26Z</time>
      </trkpt>
      <trkpt lat="46.85811" lon="5.91314">
        <ele>635.8</ele>
        <time>2021-02-11T13:28:32Z</time>
      </trkpt>
      <trkpt lat="46.85813" lon="5.91307">
        <ele>635.2</ele>
        <time>2021-02-11T13:28:37Z</time>
      </trkpt>
      <trkpt lat="46.85816" lon="5.91301">
        <ele>634.7</ele>
        <time>2021-02-11T13:28:44Z</time>
      </trkpt>
      <trkpt lat="46.85817" lon="5.91287">
        <ele>637</ele>
        <time>2021-02-11T13:28:49Z</time>
      </trkpt>
      <trkpt lat="46.85817" lon="5.91277">
        <ele>638.9</ele>
        <time>2021-02-11T13:28:52Z</time>
      </trkpt>
      <trkpt lat="46.85819" lon="5.9127">
        <ele>641.1</ele>
        <time>2021-02-11T13:28:56Z</time>
      </trkpt>
      <trkpt lat="46.85823" lon="5.91265">
        <ele>642.7</ele>
        <time>2021-02-11T13:29:00Z</time>
      </trkpt>
      <trkpt lat="46.85826" lon="5.91259">
        <ele>644.2</ele>
        <time>2021-02-11T13:29:05Z</time>
      </trkpt>
      <trkpt lat="46.85828" lon="5.91252">
        <ele>644.9</ele>
        <time>2021-02-11T13:29:10Z</time>
      </trkpt>
      <trkpt lat="46.85829" lon="5.91246">
        <ele>645.1</ele>
        <time>2021-02-11T13:29:15Z</time>
      </trkpt>
      <trkpt lat="46.85831" lon="5.91239">
        <ele>645.2</ele>
        <time>2021-02-11T13:29:19Z</time>
      </trkpt>
      <trkpt lat="46.85833" lon="5.91232">
        <ele>645.1</ele>
        <time>2021-02-11T13:29:23Z</time>
      </trkpt>
      <trkpt lat="46.85835" lon="5.91225">
        <ele>645</ele>
        <time>2021-02-11T13:29:28Z</time>
      </trkpt>
      <trkpt lat="46.85837" lon="5.91218">
        <ele>644.7</ele>
        <time>2021-02-11T13:29:33Z</time>
      </trkpt>
      <trkpt lat="46.85839" lon="5.91212">
        <ele>644.5</ele>
        <time>2021-02-11T13:29:38Z</time>
      </trkpt>
      <trkpt lat="46.85839" lon="5.91201">
        <ele>646.8</ele>
        <time>2021-02-11T13:29:43Z</time>
      </trkpt>
      <trkpt lat="46.8584" lon="5.91194">
        <ele>648.7</ele>
        <time>2021-02-11T13:29:46Z</time>
      </trkpt>
      <trkpt lat="46.85842" lon="5.91188">
        <ele>650.7</ele>
        <time>2021-02-11T13:29:50Z</time>
      </trkpt>
      <trkpt lat="46.85846" lon="5.91182">
        <ele>652.3</ele>
        <time>2021-02-11T13:29:56Z</time>
      </trkpt>
      <trkpt lat="46.85848" lon="5.91176">
        <ele>653.1</ele>
        <time>2021-02-11T13:30:02Z</time>
      </trkpt>
      <trkpt lat="46.85848" lon="5.91168">
        <ele>654.4</ele>
        <time>2021-02-11T13:30:05Z</time>
      </trkpt>
      <trkpt lat="46.85849" lon="5.9116">
        <ele>655.9</ele>
        <time>2021-02-11T13:30:09Z</time>
      </trkpt>
      <trkpt lat="46.85851" lon="5.91153">
        <ele>657</ele>
        <time>2021-02-11T13:30:14Z</time>
      </trkpt>
      <trkpt lat="46.85854" lon="5.91147">
        <ele>657.5</ele>
        <time>2021-02-11T13:30:19Z</time>
      </trkpt>
      <trkpt lat="46.85857" lon="5.91142">
        <ele>658.4</ele>
        <time>2021-02-11T13:30:29Z</time>
      </trkpt>
      <trkpt lat="46.85862" lon="5.91144">
        <ele>658.6</ele>
        <time>2021-02-11T13:30:33Z</time>
      </trkpt>
      <trkpt lat="46.85867" lon="5.91145">
        <ele>658.5</ele>
        <time>2021-02-11T13:30:36Z</time>
      </trkpt>
      <trkpt lat="46.85871" lon="5.91147">
        <ele>658.5</ele>
        <time>2021-02-11T13:30:39Z</time>
      </trkpt>
      <trkpt lat="46.85876" lon="5.9115">
        <ele>658.5</ele>
        <time>2021-02-11T13:30:43Z</time>
      </trkpt>
      <trkpt lat="46.85881" lon="5.91153">
        <ele>658.2</ele>
        <time>2021-02-11T13:30:47Z</time>
      </trkpt>
      <trkpt lat="46.85886" lon="5.91156">
        <ele>657.8</ele>
        <time>2021-02-11T13:30:51Z</time>
      </trkpt>
      <trkpt lat="46.85889" lon="5.91161">
        <ele>657.4</ele>
        <time>2021-02-11T13:30:56Z</time>
      </trkpt>
      <trkpt lat="46.85893" lon="5.91165">
        <ele>656.8</ele>
        <time>2021-02-11T13:31:01Z</time>
      </trkpt>
      <trkpt lat="46.85897" lon="5.9117">
        <ele>655.9</ele>
        <time>2021-02-11T13:31:06Z</time>
      </trkpt>
      <trkpt lat="46.85901" lon="5.91175">
        <ele>655.1</ele>
        <time>2021-02-11T13:31:12Z</time>
      </trkpt>
      <trkpt lat="46.85905" lon="5.91179">
        <ele>654.7</ele>
        <time>2021-02-11T13:31:18Z</time>
      </trkpt>
      <trkpt lat="46.8591" lon="5.91181">
        <ele>654.2</ele>
        <time>2021-02-11T13:31:23Z</time>
      </trkpt>
      <trkpt lat="46.85914" lon="5.91184">
        <ele>653.5</ele>
        <time>2021-02-11T13:31:27Z</time>
      </trkpt>
      <trkpt lat="46.85919" lon="5.91188">
        <ele>652.7</ele>
        <time>2021-02-11T13:31:31Z</time>
      </trkpt>
      <trkpt lat="46.85921" lon="5.91194">
        <ele>652.2</ele>
        <time>2021-02-11T13:31:35Z</time>
      </trkpt>
      <trkpt lat="46.85924" lon="5.91199">
        <ele>651.8</ele>
        <time>2021-02-11T13:31:39Z</time>
      </trkpt>
      <trkpt lat="46.85928" lon="5.91205">
        <ele>651.6</ele>
        <time>2021-02-11T13:31:43Z</time>
      </trkpt>
      <trkpt lat="46.85931" lon="5.9121">
        <ele>651.4</ele>
        <time>2021-02-11T13:31:47Z</time>
      </trkpt>
      <trkpt lat="46.85935" lon="5.91216">
        <ele>651.3</ele>
        <time>2021-02-11T13:31:51Z</time>
      </trkpt>
      <trkpt lat="46.85938" lon="5.91221">
        <ele>651</ele>
        <time>2021-02-11T13:31:55Z</time>
      </trkpt>
      <trkpt lat="46.85942" lon="5.91225">
        <ele>650.8</ele>
        <time>2021-02-11T13:31:59Z</time>
      </trkpt>
      <trkpt lat="46.85945" lon="5.9123">
        <ele>650.7</ele>
        <time>2021-02-11T13:32:04Z</time>
      </trkpt>
      <trkpt lat="46.85949" lon="5.91235">
        <ele>650.9</ele>
        <time>2021-02-11T13:32:08Z</time>
      </trkpt>
      <trkpt lat="46.85953" lon="5.9124">
        <ele>651</ele>
        <time>2021-02-11T13:32:13Z</time>
      </trkpt>
      <trkpt lat="46.85956" lon="5.91246">
        <ele>650.9</ele>
        <time>2021-02-11T13:32:19Z</time>
      </trkpt>
      <trkpt lat="46.8596" lon="5.91251">
        <ele>650.4</ele>
        <time>2021-02-11T13:32:25Z</time>
      </trkpt>
      <trkpt lat="46.85964" lon="5.91255">
        <ele>649.5</ele>
        <time>2021-02-11T13:32:31Z</time>
      </trkpt>
      <trkpt lat="46.85972" lon="5.9126">
        <ele>652.7</ele>
        <time>2021-02-11T13:32:35Z</time>
      </trkpt>
      <trkpt lat="46.85978" lon="5.91263">
        <ele>655.1</ele>
        <time>2021-02-11T13:32:38Z</time>
      </trkpt>
      <trkpt lat="46.85983" lon="5.91266">
        <ele>657.9</ele>
        <time>2021-02-11T13:32:43Z</time>
      </trkpt>
      <trkpt lat="46.85986" lon="5.91271">
        <ele>659.2</ele>
        <time>2021-02-11T13:32:49Z</time>
      </trkpt>
      <trkpt lat="46.8599" lon="5.91277">
        <ele>659.5</ele>
        <time>2021-02-11T13:32:54Z</time>
      </trkpt>
      <trkpt lat="46.85994" lon="5.91281">
        <ele>659.5</ele>
        <time>2021-02-11T13:32:58Z</time>
      </trkpt>
      <trkpt lat="46.85998" lon="5.91285">
        <ele>659.4</ele>
        <time>2021-02-11T13:33:02Z</time>
      </trkpt>
      <trkpt lat="46.86002" lon="5.9129">
        <ele>659.6</ele>
        <time>2021-02-11T13:33:06Z</time>
      </trkpt>
      <trkpt lat="46.86005" lon="5.91294">
        <ele>659.7</ele>
        <time>2021-02-11T13:33:09Z</time>
      </trkpt>
      <trkpt lat="46.86009" lon="5.91299">
        <ele>659.9</ele>
        <time>2021-02-11T13:33:13Z</time>
      </trkpt>
      <trkpt lat="46.86014" lon="5.91303">
        <ele>660</ele>
        <time>2021-02-11T13:33:17Z</time>
      </trkpt>
      <trkpt lat="46.86017" lon="5.91306">
        <ele>659.9</ele>
        <time>2021-02-11T13:33:21Z</time>
      </trkpt>
      <trkpt lat="46.86021" lon="5.9131">
        <ele>659.7</ele>
        <time>2021-02-11T13:33:25Z</time>
      </trkpt>
      <trkpt lat="46.86025" lon="5.91314">
        <ele>659.3</ele>
        <time>2021-02-11T13:33:30Z</time>
      </trkpt>
      <trkpt lat="46.86029" lon="5.91319">
        <ele>658.5</ele>
        <time>2021-02-11T13:33:36Z</time>
      </trkpt>
      <trkpt lat="46.86033" lon="5.91323">
        <ele>657.6</ele>
        <time>2021-02-11T13:33:42Z</time>
      </trkpt>
      <trkpt lat="46.86037" lon="5.91327">
        <ele>656.7</ele>
        <time>2021-02-11T13:33:46Z</time>
      </trkpt>
      <trkpt lat="46.86041" lon="5.91331">
        <ele>656</ele>
        <time>2021-02-11T13:33:50Z</time>
      </trkpt>
      <trkpt lat="46.86045" lon="5.91336">
        <ele>655.9</ele>
        <time>2021-02-11T13:33:53Z</time>
      </trkpt>
      <trkpt lat="46.86048" lon="5.91342">
        <ele>655.6</ele>
        <time>2021-02-11T13:33:57Z</time>
      </trkpt>
      <trkpt lat="46.86051" lon="5.91348">
        <ele>655.4</ele>
        <time>2021-02-11T13:34:01Z</time>
      </trkpt>
      <trkpt lat="46.86055" lon="5.91353">
        <ele>655.3</ele>
        <time>2021-02-11T13:34:06Z</time>
      </trkpt>
      <trkpt lat="46.86059" lon="5.91357">
        <ele>655.2</ele>
        <time>2021-02-11T13:34:11Z</time>
      </trkpt>
      <trkpt lat="46.86063" lon="5.91362">
        <ele>655.5</ele>
        <time>2021-02-11T13:34:15Z</time>
      </trkpt>
      <trkpt lat="46.86068" lon="5.91368">
        <ele>656</ele>
        <time>2021-02-11T13:34:19Z</time>
      </trkpt>
      <trkpt lat="46.86071" lon="5.91374">
        <ele>656.5</ele>
        <time>2021-02-11T13:34:23Z</time>
      </trkpt>
      <trkpt lat="46.86074" lon="5.91379">
        <ele>656.9</ele>
        <time>2021-02-11T13:34:27Z</time>
      </trkpt>
      <trkpt lat="46.86078" lon="5.91384">
        <ele>657.5</ele>
        <time>2021-02-11T13:34:32Z</time>
      </trkpt>
      <trkpt lat="46.86082" lon="5.91389">
        <ele>658.2</ele>
        <time>2021-02-11T13:34:37Z</time>
      </trkpt>
      <trkpt lat="46.86086" lon="5.91394">
        <ele>658.6</ele>
        <time>2021-02-11T13:34:43Z</time>
      </trkpt>
      <trkpt lat="46.8609" lon="5.91398">
        <ele>658.6</ele>
        <time>2021-02-11T13:34:49Z</time>
      </trkpt>
      <trkpt lat="46.86095" lon="5.91402">
        <ele>658.3</ele>
        <time>2021-02-11T13:34:54Z</time>
      </trkpt>
      <trkpt lat="46.86098" lon="5.91406">
        <ele>657.7</ele>
        <time>2021-02-11T13:34:58Z</time>
      </trkpt>
      <trkpt lat="46.86102" lon="5.9141">
        <ele>657.1</ele>
        <time>2021-02-11T13:35:02Z</time>
      </trkpt>
      <trkpt lat="46.86106" lon="5.91415">
        <ele>655.9</ele>
        <time>2021-02-11T13:35:09Z</time>
      </trkpt>
      <trkpt lat="46.8611" lon="5.91419">
        <ele>654.8</ele>
        <time>2021-02-11T13:35:14Z</time>
      </trkpt>
      <trkpt lat="46.86114" lon="5.91424">
        <ele>653.8</ele>
        <time>2021-02-11T13:35:19Z</time>
      </trkpt>
      <trkpt lat="46.86117" lon="5.9143">
        <ele>653.2</ele>
        <time>2021-02-11T13:35:24Z</time>
      </trkpt>
      <trkpt lat="46.86121" lon="5.91435">
        <ele>652.6</ele>
        <time>2021-02-11T13:35:29Z</time>
      </trkpt>
      <trkpt lat="46.86126" lon="5.91439">
        <ele>652.1</ele>
        <time>2021-02-11T13:35:34Z</time>
      </trkpt>
      <trkpt lat="46.86129" lon="5.91445">
        <ele>651.4</ele>
        <time>2021-02-11T13:35:40Z</time>
      </trkpt>
      <trkpt lat="46.86134" lon="5.9145">
        <ele>650.8</ele>
        <time>2021-02-11T13:35:46Z</time>
      </trkpt>
      <trkpt lat="46.86137" lon="5.91455">
        <ele>650.5</ele>
        <time>2021-02-11T13:35:50Z</time>
      </trkpt>
      <trkpt lat="46.86141" lon="5.91459">
        <ele>650.1</ele>
        <time>2021-02-11T13:35:55Z</time>
      </trkpt>
      <trkpt lat="46.86145" lon="5.91464">
        <ele>649.7</ele>
        <time>2021-02-11T13:35:59Z</time>
      </trkpt>
      <trkpt lat="46.86149" lon="5.91468">
        <ele>649.5</ele>
        <time>2021-02-11T13:36:04Z</time>
      </trkpt>
      <trkpt lat="46.86153" lon="5.91472">
        <ele>648.9</ele>
        <time>2021-02-11T13:36:10Z</time>
      </trkpt>
      <trkpt lat="46.86156" lon="5.91477">
        <ele>648.1</ele>
        <time>2021-02-11T13:36:17Z</time>
      </trkpt>
      <trkpt lat="46.86159" lon="5.91482">
        <ele>647.3</ele>
        <time>2021-02-11T13:36:22Z</time>
      </trkpt>
      <trkpt lat="46.86164" lon="5.91487">
        <ele>647.1</ele>
        <time>2021-02-11T13:36:26Z</time>
      </trkpt>
      <trkpt lat="46.86177" lon="5.91496">
        <ele>651.6</ele>
        <time>2021-02-11T13:36:29Z</time>
      </trkpt>
      <trkpt lat="46.86182" lon="5.91501">
        <ele>653.9</ele>
        <time>2021-02-11T13:36:32Z</time>
      </trkpt>
      <trkpt lat="46.86186" lon="5.91505">
        <ele>655.6</ele>
        <time>2021-02-11T13:36:36Z</time>
      </trkpt>
      <trkpt lat="46.86191" lon="5.9151">
        <ele>656.5</ele>
        <time>2021-02-11T13:36:41Z</time>
      </trkpt>
      <trkpt lat="46.86195" lon="5.91514">
        <ele>656.8</ele>
        <time>2021-02-11T13:36:46Z</time>
      </trkpt>
      <trkpt lat="46.86198" lon="5.91519">
        <ele>657.6</ele>
        <time>2021-02-11T13:36:52Z</time>
      </trkpt>
      <trkpt lat="46.86203" lon="5.91523">
        <ele>658.5</ele>
        <time>2021-02-11T13:36:58Z</time>
      </trkpt>
      <trkpt lat="46.86207" lon="5.91527">
        <ele>659.7</ele>
        <time>2021-02-11T13:37:05Z</time>
      </trkpt>
      <trkpt lat="46.86211" lon="5.91531">
        <ele>660.8</ele>
        <time>2021-02-11T13:37:12Z</time>
      </trkpt>
      <trkpt lat="46.86217" lon="5.91539">
        <ele>663.1</ele>
        <time>2021-02-11T13:37:17Z</time>
      </trkpt>
      <trkpt lat="46.86221" lon="5.91545">
        <ele>664.6</ele>
        <time>2021-02-11T13:37:20Z</time>
      </trkpt>
      <trkpt lat="46.86225" lon="5.9155">
        <ele>666.4</ele>
        <time>2021-02-11T13:37:25Z</time>
      </trkpt>
      <trkpt lat="46.86228" lon="5.91555">
        <ele>667.3</ele>
        <time>2021-02-11T13:37:30Z</time>
      </trkpt>
      <trkpt lat="46.86232" lon="5.91559">
        <ele>667.7</ele>
        <time>2021-02-11T13:37:34Z</time>
      </trkpt>
      <trkpt lat="46.86235" lon="5.91564">
        <ele>667.9</ele>
        <time>2021-02-11T13:37:38Z</time>
      </trkpt>
      <trkpt lat="46.86239" lon="5.91568">
        <ele>668</ele>
        <time>2021-02-11T13:37:44Z</time>
      </trkpt>
      <trkpt lat="46.86242" lon="5.91573">
        <ele>666.8</ele>
        <time>2021-02-11T13:37:51Z</time>
      </trkpt>
      <trkpt lat="46.86246" lon="5.91578">
        <ele>665.2</ele>
        <time>2021-02-11T13:37:57Z</time>
      </trkpt>
      <trkpt lat="46.86251" lon="5.91583">
        <ele>663.9</ele>
        <time>2021-02-11T13:38:02Z</time>
      </trkpt>
      <trkpt lat="46.86255" lon="5.91588">
        <ele>663</ele>
        <time>2021-02-11T13:38:06Z</time>
      </trkpt>
      <trkpt lat="46.86261" lon="5.91597">
        <ele>664.3</ele>
        <time>2021-02-11T13:38:09Z</time>
      </trkpt>
      <trkpt lat="46.86265" lon="5.91604">
        <ele>665.1</ele>
        <time>2021-02-11T13:38:12Z</time>
      </trkpt>
      <trkpt lat="46.86269" lon="5.9161">
        <ele>665.7</ele>
        <time>2021-02-11T13:38:16Z</time>
      </trkpt>
      <trkpt lat="46.86272" lon="5.91615">
        <ele>665.8</ele>
        <time>2021-02-11T13:38:20Z</time>
      </trkpt>
      <trkpt lat="46.86277" lon="5.91619">
        <ele>665.5</ele>
        <time>2021-02-11T13:38:25Z</time>
      </trkpt>
      <trkpt lat="46.86281" lon="5.91623">
        <ele>665.1</ele>
        <time>2021-02-11T13:38:30Z</time>
      </trkpt>
      <trkpt lat="46.86286" lon="5.91627">
        <ele>664.6</ele>
        <time>2021-02-11T13:38:35Z</time>
      </trkpt>
      <trkpt lat="46.86289" lon="5.91633">
        <ele>663.7</ele>
        <time>2021-02-11T13:38:40Z</time>
      </trkpt>
      <trkpt lat="46.86292" lon="5.91637">
        <ele>662.6</ele>
        <time>2021-02-11T13:38:45Z</time>
      </trkpt>
      <trkpt lat="46.86297" lon="5.91641">
        <ele>661.5</ele>
        <time>2021-02-11T13:38:50Z</time>
      </trkpt>
      <trkpt lat="46.86301" lon="5.91646">
        <ele>660.2</ele>
        <time>2021-02-11T13:38:56Z</time>
      </trkpt>
      <trkpt lat="46.86305" lon="5.91651">
        <ele>658.9</ele>
        <time>2021-02-11T13:39:01Z</time>
      </trkpt>
      <trkpt lat="46.86309" lon="5.91655">
        <ele>657.8</ele>
        <time>2021-02-11T13:39:05Z</time>
      </trkpt>
      <trkpt lat="46.86315" lon="5.9166">
        <ele>660.9</ele>
        <time>2021-02-11T13:39:08Z</time>
      </trkpt>
      <trkpt lat="46.86319" lon="5.91664">
        <ele>663.3</ele>
        <time>2021-02-11T13:39:11Z</time>
      </trkpt>
      <trkpt lat="46.86324" lon="5.91669">
        <ele>666</ele>
        <time>2021-02-11T13:39:15Z</time>
      </trkpt>
      <trkpt lat="46.86328" lon="5.91672">
        <ele>668</ele>
        <time>2021-02-11T13:39:21Z</time>
      </trkpt>
      <trkpt lat="46.86332" lon="5.91676">
        <ele>668.8</ele>
        <time>2021-02-11T13:39:26Z</time>
      </trkpt>
      <trkpt lat="46.86336" lon="5.91681">
        <ele>669.3</ele>
        <time>2021-02-11T13:39:31Z</time>
      </trkpt>
      <trkpt lat="46.86339" lon="5.91685">
        <ele>669.7</ele>
        <time>2021-02-11T13:39:35Z</time>
      </trkpt>
      <trkpt lat="46.86344" lon="5.91689">
        <ele>670</ele>
        <time>2021-02-11T13:39:39Z</time>
      </trkpt>
      <trkpt lat="46.86348" lon="5.91694">
        <ele>670.2</ele>
        <time>2021-02-11T13:39:43Z</time>
      </trkpt>
      <trkpt lat="46.86352" lon="5.91699">
        <ele>670.5</ele>
        <time>2021-02-11T13:39:47Z</time>
      </trkpt>
      <trkpt lat="46.86356" lon="5.91705">
        <ele>670.6</ele>
        <time>2021-02-11T13:39:52Z</time>
      </trkpt>
      <trkpt lat="46.8636" lon="5.9171">
        <ele>670.6</ele>
        <time>2021-02-11T13:39:57Z</time>
      </trkpt>
      <trkpt lat="46.86364" lon="5.91714">
        <ele>670.6</ele>
        <time>2021-02-11T13:40:03Z</time>
      </trkpt>
      <trkpt lat="46.86369" lon="5.91718">
        <ele>670.5</ele>
        <time>2021-02-11T13:40:09Z</time>
      </trkpt>
      <trkpt lat="46.86373" lon="5.91723">
        <ele>670.4</ele>
        <time>2021-02-11T13:40:13Z</time>
      </trkpt>
      <trkpt lat="46.86376" lon="5.91728">
        <ele>670.6</ele>
        <time>2021-02-11T13:40:17Z</time>
      </trkpt>
      <trkpt lat="46.8638" lon="5.91732">
        <ele>670.9</ele>
        <time>2021-02-11T13:40:22Z</time>
      </trkpt>
      <trkpt lat="46.86383" lon="5.91738">
        <ele>671.5</ele>
        <time>2021-02-11T13:40:27Z</time>
      </trkpt>
      <trkpt lat="46.86387" lon="5.91742">
        <ele>671.9</ele>
        <time>2021-02-11T13:40:33Z</time>
      </trkpt>
      <trkpt lat="46.86392" lon="5.91744">
        <ele>671.7</ele>
        <time>2021-02-11T13:40:41Z</time>
      </trkpt>
      <trkpt lat="46.86395" lon="5.91749">
        <ele>671.4</ele>
        <time>2021-02-11T13:40:46Z</time>
      </trkpt>
      <trkpt lat="46.864" lon="5.91753">
        <ele>671.3</ele>
        <time>2021-02-11T13:40:50Z</time>
      </trkpt>
      <trkpt lat="46.86404" lon="5.91755">
        <ele>671.3</ele>
        <time>2021-02-11T13:40:58Z</time>
      </trkpt>
      <trkpt lat="46.86409" lon="5.91752">
        <ele>671.4</ele>
        <time>2021-02-11T13:41:03Z</time>
      </trkpt>
      <trkpt lat="46.86413" lon="5.91753">
        <ele>671.1</ele>
        <time>2021-02-11T13:41:09Z</time>
      </trkpt>
      <trkpt lat="46.86417" lon="5.91757">
        <ele>670.4</ele>
        <time>2021-02-11T13:41:13Z</time>
      </trkpt>
      <trkpt lat="46.8642" lon="5.91764">
        <ele>669.5</ele>
        <time>2021-02-11T13:41:17Z</time>
      </trkpt>
      <trkpt lat="46.86423" lon="5.91769">
        <ele>668.1</ele>
        <time>2021-02-11T13:41:23Z</time>
      </trkpt>
      <trkpt lat="46.86423" lon="5.91779">
        <ele>667.8</ele>
        <time>2021-02-11T13:41:26Z</time>
      </trkpt>
      <trkpt lat="46.86426" lon="5.91785">
        <ele>666.7</ele>
        <time>2021-02-11T13:41:31Z</time>
      </trkpt>
      <trkpt lat="46.86431" lon="5.91788">
        <ele>664.9</ele>
        <time>2021-02-11T13:41:37Z</time>
      </trkpt>
      <trkpt lat="46.86435" lon="5.91792">
        <ele>663.5</ele>
        <time>2021-02-11T13:41:45Z</time>
      </trkpt>
      <trkpt lat="46.86438" lon="5.91797">
        <ele>663.2</ele>
        <time>2021-02-11T13:41:49Z</time>
      </trkpt>
      <trkpt lat="46.86441" lon="5.91802">
        <ele>663.7</ele>
        <time>2021-02-11T13:41:53Z</time>
      </trkpt>
      <trkpt lat="46.86444" lon="5.9181">
        <ele>669.7</ele>
        <time>2021-02-11T13:41:59Z</time>
      </trkpt>
      <trkpt lat="46.86442" lon="5.91803">
        <ele>676.9</ele>
        <time>2021-02-11T13:42:10Z</time>
      </trkpt>
      <trkpt lat="46.86444" lon="5.91809">
        <ele>675.5</ele>
        <time>2021-02-11T13:42:27Z</time>
      </trkpt>
      <trkpt lat="46.86449" lon="5.91811">
        <ele>672.7</ele>
        <time>2021-02-11T13:42:37Z</time>
      </trkpt>
      <trkpt lat="46.86453" lon="5.91815">
        <ele>672</ele>
        <time>2021-02-11T13:42:41Z</time>
      </trkpt>
      <trkpt lat="46.86457" lon="5.91819">
        <ele>671.3</ele>
        <time>2021-02-11T13:42:45Z</time>
      </trkpt>
      <trkpt lat="46.86462" lon="5.91824">
        <ele>670.9</ele>
        <time>2021-02-11T13:42:49Z</time>
      </trkpt>
      <trkpt lat="46.86466" lon="5.91828">
        <ele>671</ele>
        <time>2021-02-11T13:42:52Z</time>
      </trkpt>
      <trkpt lat="46.8647" lon="5.91833">
        <ele>672</ele>
        <time>2021-02-11T13:42:56Z</time>
      </trkpt>
      <trkpt lat="46.86475" lon="5.91837">
        <ele>673</ele>
        <time>2021-02-11T13:42:59Z</time>
      </trkpt>
      <trkpt lat="46.8648" lon="5.91842">
        <ele>674.2</ele>
        <time>2021-02-11T13:43:03Z</time>
      </trkpt>
      <trkpt lat="46.86484" lon="5.91847">
        <ele>675.7</ele>
        <time>2021-02-11T13:43:08Z</time>
      </trkpt>
      <trkpt lat="46.86487" lon="5.91853">
        <ele>677</ele>
        <time>2021-02-11T13:43:13Z</time>
      </trkpt>
      <trkpt lat="46.86491" lon="5.91858">
        <ele>677.9</ele>
        <time>2021-02-11T13:43:17Z</time>
      </trkpt>
      <trkpt lat="46.86494" lon="5.91863">
        <ele>678.6</ele>
        <time>2021-02-11T13:43:20Z</time>
      </trkpt>
      <trkpt lat="46.86498" lon="5.91868">
        <ele>680.1</ele>
        <time>2021-02-11T13:43:25Z</time>
      </trkpt>
      <trkpt lat="46.86501" lon="5.91874">
        <ele>680.9</ele>
        <time>2021-02-11T13:43:30Z</time>
      </trkpt>
      <trkpt lat="46.86504" lon="5.91879">
        <ele>681.9</ele>
        <time>2021-02-11T13:43:37Z</time>
      </trkpt>
      <trkpt lat="46.86508" lon="5.91884">
        <ele>681.5</ele>
        <time>2021-02-11T13:43:41Z</time>
      </trkpt>
      <trkpt lat="46.86511" lon="5.91889">
        <ele>681</ele>
        <time>2021-02-11T13:43:44Z</time>
      </trkpt>
      <trkpt lat="46.86515" lon="5.91893">
        <ele>680.6</ele>
        <time>2021-02-11T13:43:48Z</time>
      </trkpt>
      <trkpt lat="46.86519" lon="5.91897">
        <ele>678.4</ele>
        <time>2021-02-11T13:43:55Z</time>
      </trkpt>
      <trkpt lat="46.86523" lon="5.91901">
        <ele>677.3</ele>
        <time>2021-02-11T13:43:58Z</time>
      </trkpt>
      <trkpt lat="46.86527" lon="5.91906">
        <ele>676.4</ele>
        <time>2021-02-11T13:44:01Z</time>
      </trkpt>
      <trkpt lat="46.86531" lon="5.91909">
        <ele>676</ele>
        <time>2021-02-11T13:44:04Z</time>
      </trkpt>
      <trkpt lat="46.86535" lon="5.91913">
        <ele>675.7</ele>
        <time>2021-02-11T13:44:07Z</time>
      </trkpt>
      <trkpt lat="46.86539" lon="5.91917">
        <ele>675.4</ele>
        <time>2021-02-11T13:44:11Z</time>
      </trkpt>
      <trkpt lat="46.86543" lon="5.91921">
        <ele>675.7</ele>
        <time>2021-02-11T13:44:15Z</time>
      </trkpt>
      <trkpt lat="46.86547" lon="5.91926">
        <ele>675.7</ele>
        <time>2021-02-11T13:44:20Z</time>
      </trkpt>
      <trkpt lat="46.86551" lon="5.91931">
        <ele>675.8</ele>
        <time>2021-02-11T13:44:25Z</time>
      </trkpt>
      <trkpt lat="46.86555" lon="5.91935">
        <ele>675.9</ele>
        <time>2021-02-11T13:44:30Z</time>
      </trkpt>
      <trkpt lat="46.8656" lon="5.91939">
        <ele>676.2</ele>
        <time>2021-02-11T13:44:35Z</time>
      </trkpt>
      <trkpt lat="46.86564" lon="5.91944">
        <ele>676.2</ele>
        <time>2021-02-11T13:44:40Z</time>
      </trkpt>
      <trkpt lat="46.86568" lon="5.91948">
        <ele>676</ele>
        <time>2021-02-11T13:44:45Z</time>
      </trkpt>
      <trkpt lat="46.86572" lon="5.91952">
        <ele>675.8</ele>
        <time>2021-02-11T13:44:49Z</time>
      </trkpt>
      <trkpt lat="46.86575" lon="5.91956">
        <ele>675.6</ele>
        <time>2021-02-11T13:44:53Z</time>
      </trkpt>
      <trkpt lat="46.8658" lon="5.91961">
        <ele>675.6</ele>
        <time>2021-02-11T13:44:58Z</time>
      </trkpt>
      <trkpt lat="46.86583" lon="5.91967">
        <ele>675.8</ele>
        <time>2021-02-11T13:45:03Z</time>
      </trkpt>
      <trkpt lat="46.86587" lon="5.91973">
        <ele>676</ele>
        <time>2021-02-11T13:45:09Z</time>
      </trkpt>
      <trkpt lat="46.86591" lon="5.91978">
        <ele>676.1</ele>
        <time>2021-02-11T13:45:15Z</time>
      </trkpt>
      <trkpt lat="46.86595" lon="5.91981">
        <ele>676.1</ele>
        <time>2021-02-11T13:45:18Z</time>
      </trkpt>
      <trkpt lat="46.866" lon="5.91984">
        <ele>676</ele>
        <time>2021-02-11T13:45:22Z</time>
      </trkpt>
      <trkpt lat="46.86604" lon="5.91989">
        <ele>675.9</ele>
        <time>2021-02-11T13:45:26Z</time>
      </trkpt>
      <trkpt lat="46.86606" lon="5.91996">
        <ele>675.6</ele>
        <time>2021-02-11T13:45:31Z</time>
      </trkpt>
      <trkpt lat="46.86609" lon="5.92002">
        <ele>675</ele>
        <time>2021-02-11T13:45:37Z</time>
      </trkpt>
      <trkpt lat="46.86612" lon="5.92006">
        <ele>674.6</ele>
        <time>2021-02-11T13:45:41Z</time>
      </trkpt>
      <trkpt lat="46.86617" lon="5.9201">
        <ele>673.8</ele>
        <time>2021-02-11T13:45:45Z</time>
      </trkpt>
      <trkpt lat="46.86621" lon="5.92014">
        <ele>672.8</ele>
        <time>2021-02-11T13:45:49Z</time>
      </trkpt>
      <trkpt lat="46.86624" lon="5.92018">
        <ele>671.9</ele>
        <time>2021-02-11T13:45:53Z</time>
      </trkpt>
      <trkpt lat="46.86628" lon="5.92023">
        <ele>670.9</ele>
        <time>2021-02-11T13:45:58Z</time>
      </trkpt>
      <trkpt lat="46.86633" lon="5.92027">
        <ele>670.1</ele>
        <time>2021-02-11T13:46:04Z</time>
      </trkpt>
      <trkpt lat="46.86637" lon="5.92031">
        <ele>670.1</ele>
        <time>2021-02-11T13:46:11Z</time>
      </trkpt>
      <trkpt lat="46.86641" lon="5.92038">
        <ele>669.9</ele>
        <time>2021-02-11T13:46:14Z</time>
      </trkpt>
      <trkpt lat="46.86646" lon="5.92041">
        <ele>669</ele>
        <time>2021-02-11T13:46:23Z</time>
      </trkpt>
      <trkpt lat="46.8665" lon="5.92042">
        <ele>668.5</ele>
        <time>2021-02-11T13:46:28Z</time>
      </trkpt>
      <trkpt lat="46.86655" lon="5.92046">
        <ele>667.9</ele>
        <time>2021-02-11T13:46:32Z</time>
      </trkpt>
      <trkpt lat="46.86658" lon="5.92051">
        <ele>667.2</ele>
        <time>2021-02-11T13:46:36Z</time>
      </trkpt>
      <trkpt lat="46.86661" lon="5.92057">
        <ele>667</ele>
        <time>2021-02-11T13:46:40Z</time>
      </trkpt>
      <trkpt lat="46.86665" lon="5.92063">
        <ele>667.1</ele>
        <time>2021-02-11T13:46:44Z</time>
      </trkpt>
      <trkpt lat="46.86669" lon="5.92069">
        <ele>667.3</ele>
        <time>2021-02-11T13:46:48Z</time>
      </trkpt>
      <trkpt lat="46.86674" lon="5.92073">
        <ele>667.8</ele>
        <time>2021-02-11T13:46:51Z</time>
      </trkpt>
      <trkpt lat="46.86679" lon="5.92078">
        <ele>668.6</ele>
        <time>2021-02-11T13:46:54Z</time>
      </trkpt>
      <trkpt lat="46.86684" lon="5.92083">
        <ele>669.3</ele>
        <time>2021-02-11T13:46:57Z</time>
      </trkpt>
      <trkpt lat="46.86688" lon="5.92087">
        <ele>670.1</ele>
        <time>2021-02-11T13:47:01Z</time>
      </trkpt>
      <trkpt lat="46.86692" lon="5.92089">
        <ele>670.8</ele>
        <time>2021-02-11T13:47:05Z</time>
      </trkpt>
      <trkpt lat="46.86696" lon="5.92093">
        <ele>671.5</ele>
        <time>2021-02-11T13:47:09Z</time>
      </trkpt>
      <trkpt lat="46.867" lon="5.92096">
        <ele>672.5</ele>
        <time>2021-02-11T13:47:21Z</time>
      </trkpt>
      <trkpt lat="46.86704" lon="5.921">
        <ele>672.3</ele>
        <time>2021-02-11T13:47:26Z</time>
      </trkpt>
      <trkpt lat="46.86707" lon="5.92104">
        <ele>671.8</ele>
        <time>2021-02-11T13:47:30Z</time>
      </trkpt>
      <trkpt lat="46.8671" lon="5.9211">
        <ele>671.1</ele>
        <time>2021-02-11T13:47:34Z</time>
      </trkpt>
      <trkpt lat="46.86714" lon="5.92115">
        <ele>670.4</ele>
        <time>2021-02-11T13:47:38Z</time>
      </trkpt>
      <trkpt lat="46.86719" lon="5.92117">
        <ele>669.3</ele>
        <time>2021-02-11T13:47:43Z</time>
      </trkpt>
      <trkpt lat="46.86723" lon="5.92121">
        <ele>668.2</ele>
        <time>2021-02-11T13:47:48Z</time>
      </trkpt>
      <trkpt lat="46.86728" lon="5.92125">
        <ele>666.9</ele>
        <time>2021-02-11T13:47:54Z</time>
      </trkpt>
      <trkpt lat="46.86733" lon="5.92128">
        <ele>665.7</ele>
        <time>2021-02-11T13:47:59Z</time>
      </trkpt>
      <trkpt lat="46.86737" lon="5.92134">
        <ele>664.5</ele>
        <time>2021-02-11T13:48:04Z</time>
      </trkpt>
      <trkpt lat="46.86741" lon="5.92138">
        <ele>663.4</ele>
        <time>2021-02-11T13:48:09Z</time>
      </trkpt>
      <trkpt lat="46.86746" lon="5.92143">
        <ele>662.6</ele>
        <time>2021-02-11T13:48:13Z</time>
      </trkpt>
      <trkpt lat="46.86749" lon="5.92149">
        <ele>662.1</ele>
        <time>2021-02-11T13:48:17Z</time>
      </trkpt>
      <trkpt lat="46.86752" lon="5.92153">
        <ele>661.6</ele>
        <time>2021-02-11T13:48:21Z</time>
      </trkpt>
      <trkpt lat="46.86757" lon="5.92156">
        <ele>660.8</ele>
        <time>2021-02-11T13:48:26Z</time>
      </trkpt>
      <trkpt lat="46.86761" lon="5.92165">
        <ele>662.3</ele>
        <time>2021-02-11T13:48:31Z</time>
      </trkpt>
      <trkpt lat="46.86764" lon="5.92172">
        <ele>664</ele>
        <time>2021-02-11T13:48:34Z</time>
      </trkpt>
      <trkpt lat="46.86768" lon="5.92177">
        <ele>666</ele>
        <time>2021-02-11T13:48:38Z</time>
      </trkpt>
      <trkpt lat="46.86772" lon="5.92182">
        <ele>667.6</ele>
        <time>2021-02-11T13:48:43Z</time>
      </trkpt>
      <trkpt lat="46.86776" lon="5.92186">
        <ele>668.7</ele>
        <time>2021-02-11T13:48:48Z</time>
      </trkpt>
      <trkpt lat="46.8678" lon="5.9219">
        <ele>669.2</ele>
        <time>2021-02-11T13:48:52Z</time>
      </trkpt>
      <trkpt lat="46.86784" lon="5.92194">
        <ele>669.7</ele>
        <time>2021-02-11T13:48:57Z</time>
      </trkpt>
      <trkpt lat="46.86788" lon="5.92198">
        <ele>669.4</ele>
        <time>2021-02-11T13:49:03Z</time>
      </trkpt>
      <trkpt lat="46.86792" lon="5.92202">
        <ele>669.2</ele>
        <time>2021-02-11T13:49:08Z</time>
      </trkpt>
      <trkpt lat="46.86796" lon="5.92207">
        <ele>668.9</ele>
        <time>2021-02-11T13:49:12Z</time>
      </trkpt>
      <trkpt lat="46.86798" lon="5.92213">
        <ele>668.4</ele>
        <time>2021-02-11T13:49:16Z</time>
      </trkpt>
      <trkpt lat="46.86801" lon="5.92218">
        <ele>667.9</ele>
        <time>2021-02-11T13:49:19Z</time>
      </trkpt>
      <trkpt lat="46.86804" lon="5.92223">
        <ele>667.5</ele>
        <time>2021-02-11T13:49:22Z</time>
      </trkpt>
      <trkpt lat="46.86808" lon="5.92228">
        <ele>666.7</ele>
        <time>2021-02-11T13:49:28Z</time>
      </trkpt>
      <trkpt lat="46.86812" lon="5.92233">
        <ele>666.2</ele>
        <time>2021-02-11T13:49:34Z</time>
      </trkpt>
      <trkpt lat="46.86817" lon="5.92237">
        <ele>665.6</ele>
        <time>2021-02-11T13:49:40Z</time>
      </trkpt>
      <trkpt lat="46.8682" lon="5.92241">
        <ele>665.1</ele>
        <time>2021-02-11T13:49:44Z</time>
      </trkpt>
      <trkpt lat="46.86825" lon="5.92244">
        <ele>664.4</ele>
        <time>2021-02-11T13:49:50Z</time>
      </trkpt>
      <trkpt lat="46.8683" lon="5.92248">
        <ele>663.6</ele>
        <time>2021-02-11T13:49:55Z</time>
      </trkpt>
      <trkpt lat="46.86833" lon="5.92252">
        <ele>662.1</ele>
        <time>2021-02-11T13:50:00Z</time>
      </trkpt>
      <trkpt lat="46.86837" lon="5.92258">
        <ele>659.9</ele>
        <time>2021-02-11T13:50:05Z</time>
      </trkpt>
      <trkpt lat="46.86841" lon="5.92262">
        <ele>658.7</ele>
        <time>2021-02-11T13:50:08Z</time>
      </trkpt>
      <trkpt lat="46.86845" lon="5.92266">
        <ele>657.3</ele>
        <time>2021-02-11T13:50:12Z</time>
      </trkpt>
      <trkpt lat="46.86848" lon="5.92271">
        <ele>656.2</ele>
        <time>2021-02-11T13:50:16Z</time>
      </trkpt>
      <trkpt lat="46.86851" lon="5.92277">
        <ele>655.5</ele>
        <time>2021-02-11T13:50:20Z</time>
      </trkpt>
      <trkpt lat="46.86855" lon="5.92282">
        <ele>656.5</ele>
        <time>2021-02-11T13:50:24Z</time>
      </trkpt>
      <trkpt lat="46.86859" lon="5.92287">
        <ele>658.4</ele>
        <time>2021-02-11T13:50:28Z</time>
      </trkpt>
      <trkpt lat="46.86864" lon="5.92292">
        <ele>660.6</ele>
        <time>2021-02-11T13:50:32Z</time>
      </trkpt>
      <trkpt lat="46.86867" lon="5.92297">
        <ele>662.3</ele>
        <time>2021-02-11T13:50:35Z</time>
      </trkpt>
      <trkpt lat="46.8687" lon="5.92302">
        <ele>663.8</ele>
        <time>2021-02-11T13:50:38Z</time>
      </trkpt>
      <trkpt lat="46.86873" lon="5.92306">
        <ele>665.1</ele>
        <time>2021-02-11T13:50:41Z</time>
      </trkpt>
      <trkpt lat="46.86877" lon="5.92311">
        <ele>667</ele>
        <time>2021-02-11T13:50:45Z</time>
      </trkpt>
      <trkpt lat="46.86882" lon="5.92315">
        <ele>669</ele>
        <time>2021-02-11T13:50:49Z</time>
      </trkpt>
      <trkpt lat="46.86886" lon="5.9232">
        <ele>671.3</ele>
        <time>2021-02-11T13:50:54Z</time>
      </trkpt>
      <trkpt lat="46.86888" lon="5.92326">
        <ele>674.2</ele>
        <time>2021-02-11T13:51:01Z</time>
      </trkpt>
      <trkpt lat="46.86892" lon="5.92331">
        <ele>676</ele>
        <time>2021-02-11T13:51:06Z</time>
      </trkpt>
      <trkpt lat="46.86896" lon="5.92337">
        <ele>677.6</ele>
        <time>2021-02-11T13:51:11Z</time>
      </trkpt>
      <trkpt lat="46.86901" lon="5.92341">
        <ele>678.4</ele>
        <time>2021-02-11T13:51:15Z</time>
      </trkpt>
      <trkpt lat="46.86905" lon="5.92346">
        <ele>678.7</ele>
        <time>2021-02-11T13:51:19Z</time>
      </trkpt>
      <trkpt lat="46.86909" lon="5.9235">
        <ele>678.3</ele>
        <time>2021-02-11T13:51:23Z</time>
      </trkpt>
      <trkpt lat="46.86912" lon="5.92355">
        <ele>677.8</ele>
        <time>2021-02-11T13:51:28Z</time>
      </trkpt>
      <trkpt lat="46.86915" lon="5.9236">
        <ele>677.8</ele>
        <time>2021-02-11T13:51:33Z</time>
      </trkpt>
      <trkpt lat="46.86919" lon="5.92366">
        <ele>677.8</ele>
        <time>2021-02-11T13:51:38Z</time>
      </trkpt>
      <trkpt lat="46.86923" lon="5.92371">
        <ele>677.2</ele>
        <time>2021-02-11T13:51:43Z</time>
      </trkpt>
      <trkpt lat="46.86928" lon="5.92375">
        <ele>676.6</ele>
        <time>2021-02-11T13:51:47Z</time>
      </trkpt>
      <trkpt lat="46.86932" lon="5.92379">
        <ele>675.8</ele>
        <time>2021-02-11T13:51:51Z</time>
      </trkpt>
      <trkpt lat="46.86936" lon="5.92382">
        <ele>675.3</ele>
        <time>2021-02-11T13:51:55Z</time>
      </trkpt>
      <trkpt lat="46.8694" lon="5.92385">
        <ele>674.3</ele>
        <time>2021-02-11T13:51:59Z</time>
      </trkpt>
      <trkpt lat="46.86944" lon="5.92388">
        <ele>673.6</ele>
        <time>2021-02-11T13:52:03Z</time>
      </trkpt>
      <trkpt lat="46.86948" lon="5.92391">
        <ele>673</ele>
        <time>2021-02-11T13:52:07Z</time>
      </trkpt>
      <trkpt lat="46.86953" lon="5.92395">
        <ele>672.1</ele>
        <time>2021-02-11T13:52:11Z</time>
      </trkpt>
      <trkpt lat="46.86957" lon="5.924">
        <ele>670.8</ele>
        <time>2021-02-11T13:52:16Z</time>
      </trkpt>
      <trkpt lat="46.86961" lon="5.92404">
        <ele>669.3</ele>
        <time>2021-02-11T13:52:20Z</time>
      </trkpt>
      <trkpt lat="46.86964" lon="5.92408">
        <ele>667.6</ele>
        <time>2021-02-11T13:52:24Z</time>
      </trkpt>
      <trkpt lat="46.86967" lon="5.92415">
        <ele>665.5</ele>
        <time>2021-02-11T13:52:30Z</time>
      </trkpt>
      <trkpt lat="46.86968" lon="5.92421">
        <ele>663.8</ele>
        <time>2021-02-11T13:52:36Z</time>
      </trkpt>
      <trkpt lat="46.86972" lon="5.92426">
        <ele>662.5</ele>
        <time>2021-02-11T13:52:43Z</time>
      </trkpt>
      <trkpt lat="46.86975" lon="5.92432">
        <ele>660.3</ele>
        <time>2021-02-11T13:53:15Z</time>
      </trkpt>
      <trkpt lat="46.8698" lon="5.92435">
        <ele>651.9</ele>
        <time>2021-02-11T13:53:31Z</time>
      </trkpt>
      <trkpt lat="46.86987" lon="5.9244">
        <ele>651.7</ele>
        <time>2021-02-11T13:53:35Z</time>
      </trkpt>
      <trkpt lat="46.86993" lon="5.92446">
        <ele>653.1</ele>
        <time>2021-02-11T13:53:38Z</time>
      </trkpt>
      <trkpt lat="46.86997" lon="5.92451">
        <ele>653.8</ele>
        <time>2021-02-11T13:53:42Z</time>
      </trkpt>
      <trkpt lat="46.87" lon="5.92455">
        <ele>654.1</ele>
        <time>2021-02-11T13:53:47Z</time>
      </trkpt>
      <trkpt lat="46.87005" lon="5.92459">
        <ele>653.8</ele>
        <time>2021-02-11T13:53:54Z</time>
      </trkpt>
      <trkpt lat="46.87008" lon="5.92464">
        <ele>653.9</ele>
        <time>2021-02-11T13:53:58Z</time>
      </trkpt>
      <trkpt lat="46.87012" lon="5.92468">
        <ele>654.2</ele>
        <time>2021-02-11T13:54:02Z</time>
      </trkpt>
      <trkpt lat="46.87016" lon="5.92473">
        <ele>654.7</ele>
        <time>2021-02-11T13:54:05Z</time>
      </trkpt>
      <trkpt lat="46.8702" lon="5.92477">
        <ele>655.2</ele>
        <time>2021-02-11T13:54:08Z</time>
      </trkpt>
      <trkpt lat="46.87023" lon="5.92482">
        <ele>656.1</ele>
        <time>2021-02-11T13:54:12Z</time>
      </trkpt>
      <trkpt lat="46.87027" lon="5.92488">
        <ele>657.3</ele>
        <time>2021-02-11T13:54:18Z</time>
      </trkpt>
      <trkpt lat="46.87031" lon="5.92493">
        <ele>658.7</ele>
        <time>2021-02-11T13:54:23Z</time>
      </trkpt>
      <trkpt lat="46.87034" lon="5.92497">
        <ele>659.4</ele>
        <time>2021-02-11T13:54:26Z</time>
      </trkpt>
      <trkpt lat="46.87038" lon="5.92502">
        <ele>660.4</ele>
        <time>2021-02-11T13:54:30Z</time>
      </trkpt>
      <trkpt lat="46.87042" lon="5.92507">
        <ele>661.2</ele>
        <time>2021-02-11T13:54:34Z</time>
      </trkpt>
      <trkpt lat="46.87047" lon="5.92512">
        <ele>662.3</ele>
        <time>2021-02-11T13:54:39Z</time>
      </trkpt>
      <trkpt lat="46.8705" lon="5.92517">
        <ele>663.1</ele>
        <time>2021-02-11T13:54:43Z</time>
      </trkpt>
      <trkpt lat="46.87053" lon="5.92522">
        <ele>664.1</ele>
        <time>2021-02-11T13:54:49Z</time>
      </trkpt>
      <trkpt lat="46.87057" lon="5.92528">
        <ele>664.4</ele>
        <time>2021-02-11T13:54:54Z</time>
      </trkpt>
      <trkpt lat="46.8706" lon="5.92533">
        <ele>664.1</ele>
        <time>2021-02-11T13:54:58Z</time>
      </trkpt>
      <trkpt lat="46.87063" lon="5.92539">
        <ele>663.8</ele>
        <time>2021-02-11T13:55:03Z</time>
      </trkpt>
      <trkpt lat="46.87067" lon="5.92544">
        <ele>663.6</ele>
        <time>2021-02-11T13:55:08Z</time>
      </trkpt>
      <trkpt lat="46.8707" lon="5.92549">
        <ele>663.1</ele>
        <time>2021-02-11T13:55:14Z</time>
      </trkpt>
      <trkpt lat="46.87073" lon="5.92555">
        <ele>662</ele>
        <time>2021-02-11T13:55:20Z</time>
      </trkpt>
      <trkpt lat="46.87075" lon="5.92561">
        <ele>661.2</ele>
        <time>2021-02-11T13:55:25Z</time>
      </trkpt>
      <trkpt lat="46.87077" lon="5.92569">
        <ele>662</ele>
        <time>2021-02-11T13:55:28Z</time>
      </trkpt>
      <trkpt lat="46.87078" lon="5.92576">
        <ele>662.5</ele>
        <time>2021-02-11T13:55:33Z</time>
      </trkpt>
      <trkpt lat="46.87077" lon="5.92583">
        <ele>662.6</ele>
        <time>2021-02-11T13:55:41Z</time>
      </trkpt>
      <trkpt lat="46.87076" lon="5.92591">
        <ele>662.4</ele>
        <time>2021-02-11T13:55:48Z</time>
      </trkpt>
      <trkpt lat="46.87076" lon="5.92597">
        <ele>662.3</ele>
        <time>2021-02-11T13:55:53Z</time>
      </trkpt>
      <trkpt lat="46.87077" lon="5.9261">
        <ele>662.4</ele>
        <time>2021-02-11T13:55:56Z</time>
      </trkpt>
      <trkpt lat="46.87078" lon="5.92618">
        <ele>662.5</ele>
        <time>2021-02-11T13:56:00Z</time>
      </trkpt>
      <trkpt lat="46.87078" lon="5.92625">
        <ele>662.4</ele>
        <time>2021-02-11T13:56:05Z</time>
      </trkpt>
      <trkpt lat="46.87077" lon="5.92632">
        <ele>662</ele>
        <time>2021-02-11T13:56:10Z</time>
      </trkpt>
      <trkpt lat="46.87073" lon="5.92635">
        <ele>661.8</ele>
        <time>2021-02-11T13:56:16Z</time>
      </trkpt>
      <trkpt lat="46.87069" lon="5.9264">
        <ele>661.7</ele>
        <time>2021-02-11T13:56:37Z</time>
      </trkpt>
      <trkpt lat="46.87071" lon="5.92633">
        <ele>661.9</ele>
        <time>2021-02-11T13:57:03Z</time>
      </trkpt>
      <trkpt lat="46.87075" lon="5.92636">
        <ele>661.7</ele>
        <time>2021-02-11T13:57:41Z</time>
      </trkpt>
      <trkpt lat="46.87078" lon="5.92631">
        <ele>660.3</ele>
        <time>2021-02-11T13:58:01Z</time>
      </trkpt>
      <trkpt lat="46.87084" lon="5.92633">
        <ele>661</ele>
        <time>2021-02-11T13:59:06Z</time>
      </trkpt>
      <trkpt lat="46.87087" lon="5.92628">
        <ele>662.1</ele>
        <time>2021-02-11T13:59:11Z</time>
      </trkpt>
      <trkpt lat="46.87091" lon="5.92628">
        <ele>659.3</ele>
        <time>2021-02-11T13:59:41Z</time>
      </trkpt>
      <trkpt lat="46.87087" lon="5.9263">
        <ele>657.9</ele>
        <time>2021-02-11T13:59:52Z</time>
      </trkpt>
      <trkpt lat="46.87081" lon="5.92632">
        <ele>657.3</ele>
        <time>2021-02-11T13:59:56Z</time>
      </trkpt>
      <trkpt lat="46.87077" lon="5.92635">
        <ele>656.8</ele>
        <time>2021-02-11T14:00:00Z</time>
      </trkpt>
      <trkpt lat="46.87073" lon="5.92639">
        <ele>656</ele>
        <time>2021-02-11T14:00:04Z</time>
      </trkpt>
      <trkpt lat="46.87069" lon="5.9264">
        <ele>654.5</ele>
        <time>2021-02-11T14:00:14Z</time>
      </trkpt>
      <trkpt lat="46.87073" lon="5.92638">
        <ele>654.6</ele>
        <time>2021-02-11T14:00:29Z</time>
      </trkpt>
      <trkpt lat="46.87077" lon="5.92634">
        <ele>655.7</ele>
        <time>2021-02-11T14:00:34Z</time>
      </trkpt>
      <trkpt lat="46.8708" lon="5.92639">
        <ele>658.4</ele>
        <time>2021-02-11T14:00:42Z</time>
      </trkpt>
      <trkpt lat="46.87081" lon="5.92647">
        <ele>660.3</ele>
        <time>2021-02-11T14:00:46Z</time>
      </trkpt>
      <trkpt lat="46.87083" lon="5.92653">
        <ele>661.9</ele>
        <time>2021-02-11T14:00:50Z</time>
      </trkpt>
      <trkpt lat="46.87085" lon="5.9266">
        <ele>663.4</ele>
        <time>2021-02-11T14:00:55Z</time>
      </trkpt>
      <trkpt lat="46.87086" lon="5.92667">
        <ele>664</ele>
        <time>2021-02-11T14:00:59Z</time>
      </trkpt>
      <trkpt lat="46.87088" lon="5.92673">
        <ele>664.6</ele>
        <time>2021-02-11T14:01:03Z</time>
      </trkpt>
      <trkpt lat="46.87089" lon="5.9268">
        <ele>665.1</ele>
        <time>2021-02-11T14:01:07Z</time>
      </trkpt>
      <trkpt lat="46.8709" lon="5.92687">
        <ele>665.6</ele>
        <time>2021-02-11T14:01:11Z</time>
      </trkpt>
      <trkpt lat="46.87091" lon="5.92694">
        <ele>665.4</ele>
        <time>2021-02-11T14:01:16Z</time>
      </trkpt>
      <trkpt lat="46.87093" lon="5.927">
        <ele>663.4</ele>
        <time>2021-02-11T14:01:21Z</time>
      </trkpt>
      <trkpt lat="46.87092" lon="5.92706">
        <ele>660.5</ele>
        <time>2021-02-11T14:01:25Z</time>
      </trkpt>
      <trkpt lat="46.87093" lon="5.92714">
        <ele>657.8</ele>
        <time>2021-02-11T14:01:29Z</time>
      </trkpt>
      <trkpt lat="46.87094" lon="5.9272">
        <ele>655.8</ele>
        <time>2021-02-11T14:01:33Z</time>
      </trkpt>
      <trkpt lat="46.87096" lon="5.92728">
        <ele>653.7</ele>
        <time>2021-02-11T14:01:38Z</time>
      </trkpt>
      <trkpt lat="46.87097" lon="5.92735">
        <ele>652.1</ele>
        <time>2021-02-11T14:01:43Z</time>
      </trkpt>
      <trkpt lat="46.871" lon="5.92742">
        <ele>650.7</ele>
        <time>2021-02-11T14:01:58Z</time>
      </trkpt>
      <trkpt lat="46.87102" lon="5.92748">
        <ele>651.1</ele>
        <time>2021-02-11T14:02:02Z</time>
      </trkpt>
      <trkpt lat="46.87104" lon="5.92756">
        <ele>651.9</ele>
        <time>2021-02-11T14:02:07Z</time>
      </trkpt>
      <trkpt lat="46.87106" lon="5.92762">
        <ele>652.7</ele>
        <time>2021-02-11T14:02:11Z</time>
      </trkpt>
      <trkpt lat="46.87107" lon="5.9277">
        <ele>653.2</ele>
        <time>2021-02-11T14:02:16Z</time>
      </trkpt>
      <trkpt lat="46.87107" lon="5.92778">
        <ele>653</ele>
        <time>2021-02-11T14:02:21Z</time>
      </trkpt>
      <trkpt lat="46.87109" lon="5.92786">
        <ele>652.6</ele>
        <time>2021-02-11T14:02:26Z</time>
      </trkpt>
      <trkpt lat="46.8711" lon="5.92792">
        <ele>652.7</ele>
        <time>2021-02-11T14:02:30Z</time>
      </trkpt>
      <trkpt lat="46.8711" lon="5.92799">
        <ele>652.7</ele>
        <time>2021-02-11T14:02:34Z</time>
      </trkpt>
      <trkpt lat="46.87107" lon="5.92806">
        <ele>652.5</ele>
        <time>2021-02-11T14:02:39Z</time>
      </trkpt>
      <trkpt lat="46.87103" lon="5.92811">
        <ele>653.1</ele>
        <time>2021-02-11T14:02:44Z</time>
      </trkpt>
      <trkpt lat="46.87099" lon="5.92814">
        <ele>654.3</ele>
        <time>2021-02-11T14:02:51Z</time>
      </trkpt>
      <trkpt lat="46.87094" lon="5.92818">
        <ele>654.7</ele>
        <time>2021-02-11T14:03:30Z</time>
      </trkpt>
      <trkpt lat="46.87091" lon="5.92823">
        <ele>655.2</ele>
        <time>2021-02-11T14:03:34Z</time>
      </trkpt>
      <trkpt lat="46.87087" lon="5.92828">
        <ele>656.3</ele>
        <time>2021-02-11T14:03:41Z</time>
      </trkpt>
      <trkpt lat="46.87083" lon="5.9283">
        <ele>656.4</ele>
        <time>2021-02-11T14:03:46Z</time>
      </trkpt>
      <trkpt lat="46.8708" lon="5.92835">
        <ele>656</ele>
        <time>2021-02-11T14:03:56Z</time>
      </trkpt>
      <trkpt lat="46.87077" lon="5.92841">
        <ele>656</ele>
        <time>2021-02-11T14:04:52Z</time>
      </trkpt>
      <trkpt lat="46.87073" lon="5.92846">
        <ele>656</ele>
        <time>2021-02-11T14:04:57Z</time>
      </trkpt>
      <trkpt lat="46.8707" lon="5.92851">
        <ele>656</ele>
        <time>2021-02-11T14:05:03Z</time>
      </trkpt>
      <trkpt lat="46.87066" lon="5.92855">
        <ele>655.3</ele>
        <time>2021-02-11T14:05:14Z</time>
      </trkpt>
      <trkpt lat="46.87062" lon="5.9286">
        <ele>654.9</ele>
        <time>2021-02-11T14:05:22Z</time>
      </trkpt>
      <trkpt lat="46.87058" lon="5.92864">
        <ele>654.6</ele>
        <time>2021-02-11T14:05:29Z</time>
      </trkpt>
      <trkpt lat="46.87054" lon="5.92868">
        <ele>654</ele>
        <time>2021-02-11T14:05:35Z</time>
      </trkpt>
      <trkpt lat="46.8705" lon="5.92873">
        <ele>653.4</ele>
        <time>2021-02-11T14:05:41Z</time>
      </trkpt>
      <trkpt lat="46.87047" lon="5.92878">
        <ele>653.9</ele>
        <time>2021-02-11T14:05:45Z</time>
      </trkpt>
      <trkpt lat="46.87044" lon="5.92882">
        <ele>654.7</ele>
        <time>2021-02-11T14:06:05Z</time>
      </trkpt>
      <trkpt lat="46.8704" lon="5.92887">
        <ele>654.9</ele>
        <time>2021-02-11T14:06:12Z</time>
      </trkpt>
      <trkpt lat="46.87036" lon="5.92892">
        <ele>655.4</ele>
        <time>2021-02-11T14:06:19Z</time>
      </trkpt>
      <trkpt lat="46.87032" lon="5.92895">
        <ele>656.1</ele>
        <time>2021-02-11T14:06:25Z</time>
      </trkpt>
      <trkpt lat="46.87028" lon="5.929">
        <ele>656.7</ele>
        <time>2021-02-11T14:06:31Z</time>
      </trkpt>
      <trkpt lat="46.87023" lon="5.92903">
        <ele>656.8</ele>
        <time>2021-02-11T14:06:38Z</time>
      </trkpt>
      <trkpt lat="46.87018" lon="5.92907">
        <ele>656.8</ele>
        <time>2021-02-11T14:06:43Z</time>
      </trkpt>
      <trkpt lat="46.87014" lon="5.9291">
        <ele>656.2</ele>
        <time>2021-02-11T14:06:48Z</time>
      </trkpt>
      <trkpt lat="46.8701" lon="5.92914">
        <ele>654.8</ele>
        <time>2021-02-11T14:06:54Z</time>
      </trkpt>
      <trkpt lat="46.87005" lon="5.92917">
        <ele>653.1</ele>
        <time>2021-02-11T14:06:59Z</time>
      </trkpt>
      <trkpt lat="46.87001" lon="5.92921">
        <ele>651.5</ele>
        <time>2021-02-11T14:07:03Z</time>
      </trkpt>
      <trkpt lat="46.86996" lon="5.92925">
        <ele>650.3</ele>
        <time>2021-02-11T14:07:08Z</time>
      </trkpt>
      <trkpt lat="46.86992" lon="5.92929">
        <ele>650</ele>
        <time>2021-02-11T14:07:12Z</time>
      </trkpt>
      <trkpt lat="46.86988" lon="5.92934">
        <ele>649.5</ele>
        <time>2021-02-11T14:07:18Z</time>
      </trkpt>
      <trkpt lat="46.86984" lon="5.92938">
        <ele>649.2</ele>
        <time>2021-02-11T14:07:22Z</time>
      </trkpt>
      <trkpt lat="46.8698" lon="5.92942">
        <ele>648.7</ele>
        <time>2021-02-11T14:07:26Z</time>
      </trkpt>
      <trkpt lat="46.86976" lon="5.92947">
        <ele>648.3</ele>
        <time>2021-02-11T14:07:31Z</time>
      </trkpt>
      <trkpt lat="46.86973" lon="5.92952">
        <ele>648.4</ele>
        <time>2021-02-11T14:07:34Z</time>
      </trkpt>
      <trkpt lat="46.86969" lon="5.92957">
        <ele>649.3</ele>
        <time>2021-02-11T14:07:38Z</time>
      </trkpt>
      <trkpt lat="46.86965" lon="5.92962">
        <ele>649.9</ele>
        <time>2021-02-11T14:07:43Z</time>
      </trkpt>
      <trkpt lat="46.86961" lon="5.92967">
        <ele>649.8</ele>
        <time>2021-02-11T14:07:47Z</time>
      </trkpt>
      <trkpt lat="46.86958" lon="5.92972">
        <ele>649.9</ele>
        <time>2021-02-11T14:07:50Z</time>
      </trkpt>
      <trkpt lat="46.86954" lon="5.92977">
        <ele>650.1</ele>
        <time>2021-02-11T14:07:53Z</time>
      </trkpt>
      <trkpt lat="46.8695" lon="5.9298">
        <ele>650.4</ele>
        <time>2021-02-11T14:07:56Z</time>
      </trkpt>
      <trkpt lat="46.86946" lon="5.92983">
        <ele>650.5</ele>
        <time>2021-02-11T14:08:00Z</time>
      </trkpt>
      <trkpt lat="46.86942" lon="5.92985">
        <ele>650.7</ele>
        <time>2021-02-11T14:08:05Z</time>
      </trkpt>
      <trkpt lat="46.86937" lon="5.92987">
        <ele>651.1</ele>
        <time>2021-02-11T14:08:11Z</time>
      </trkpt>
      <trkpt lat="46.86932" lon="5.92988">
        <ele>651.7</ele>
        <time>2021-02-11T14:08:16Z</time>
      </trkpt>
      <trkpt lat="46.86927" lon="5.92989">
        <ele>651.9</ele>
        <time>2021-02-11T14:08:21Z</time>
      </trkpt>
      <trkpt lat="46.86921" lon="5.9299">
        <ele>651.6</ele>
        <time>2021-02-11T14:08:25Z</time>
      </trkpt>
      <trkpt lat="46.86916" lon="5.92991">
        <ele>651.6</ele>
        <time>2021-02-11T14:08:30Z</time>
      </trkpt>
      <trkpt lat="46.86912" lon="5.92994">
        <ele>651.8</ele>
        <time>2021-02-11T14:08:34Z</time>
      </trkpt>
      <trkpt lat="46.86907" lon="5.92995">
        <ele>651.8</ele>
        <time>2021-02-11T14:08:39Z</time>
      </trkpt>
      <trkpt lat="46.86901" lon="5.92996">
        <ele>651.6</ele>
        <time>2021-02-11T14:08:44Z</time>
      </trkpt>
      <trkpt lat="46.86896" lon="5.92996">
        <ele>651</ele>
        <time>2021-02-11T14:08:49Z</time>
      </trkpt>
      <trkpt lat="46.86891" lon="5.92998">
        <ele>650</ele>
        <time>2021-02-11T14:08:53Z</time>
      </trkpt>
      <trkpt lat="46.86886" lon="5.93">
        <ele>648.7</ele>
        <time>2021-02-11T14:08:58Z</time>
      </trkpt>
      <trkpt lat="46.86882" lon="5.93003">
        <ele>647.6</ele>
        <time>2021-02-11T14:09:02Z</time>
      </trkpt>
      <trkpt lat="46.86878" lon="5.93008">
        <ele>646.6</ele>
        <time>2021-02-11T14:09:07Z</time>
      </trkpt>
      <trkpt lat="46.86873" lon="5.93011">
        <ele>646.2</ele>
        <time>2021-02-11T14:09:12Z</time>
      </trkpt>
      <trkpt lat="46.86869" lon="5.93015">
        <ele>645.9</ele>
        <time>2021-02-11T14:09:16Z</time>
      </trkpt>
      <trkpt lat="46.86865" lon="5.93019">
        <ele>645.8</ele>
        <time>2021-02-11T14:09:20Z</time>
      </trkpt>
      <trkpt lat="46.86861" lon="5.93024">
        <ele>645.6</ele>
        <time>2021-02-11T14:09:24Z</time>
      </trkpt>
      <trkpt lat="46.86857" lon="5.93028">
        <ele>645.5</ele>
        <time>2021-02-11T14:09:28Z</time>
      </trkpt>
      <trkpt lat="46.86854" lon="5.93032">
        <ele>645.3</ele>
        <time>2021-02-11T14:09:32Z</time>
      </trkpt>
      <trkpt lat="46.8685" lon="5.93036">
        <ele>645.3</ele>
        <time>2021-02-11T14:09:36Z</time>
      </trkpt>
      <trkpt lat="46.86845" lon="5.93041">
        <ele>645.1</ele>
        <time>2021-02-11T14:09:41Z</time>
      </trkpt>
      <trkpt lat="46.86842" lon="5.93045">
        <ele>644.7</ele>
        <time>2021-02-11T14:09:45Z</time>
      </trkpt>
      <trkpt lat="46.86838" lon="5.9305">
        <ele>644.4</ele>
        <time>2021-02-11T14:09:49Z</time>
      </trkpt>
      <trkpt lat="46.86834" lon="5.93055">
        <ele>644.1</ele>
        <time>2021-02-11T14:09:54Z</time>
      </trkpt>
      <trkpt lat="46.8683" lon="5.93059">
        <ele>644</ele>
        <time>2021-02-11T14:09:59Z</time>
      </trkpt>
      <trkpt lat="46.86825" lon="5.93063">
        <ele>644.5</ele>
        <time>2021-02-11T14:10:05Z</time>
      </trkpt>
      <trkpt lat="46.86821" lon="5.93068">
        <ele>644.9</ele>
        <time>2021-02-11T14:10:10Z</time>
      </trkpt>
      <trkpt lat="46.86818" lon="5.93072">
        <ele>645.3</ele>
        <time>2021-02-11T14:10:14Z</time>
      </trkpt>
      <trkpt lat="46.86815" lon="5.93077">
        <ele>645.4</ele>
        <time>2021-02-11T14:10:18Z</time>
      </trkpt>
      <trkpt lat="46.86811" lon="5.93082">
        <ele>645.1</ele>
        <time>2021-02-11T14:10:22Z</time>
      </trkpt>
      <trkpt lat="46.86808" lon="5.93087">
        <ele>644.7</ele>
        <time>2021-02-11T14:10:26Z</time>
      </trkpt>
      <trkpt lat="46.86804" lon="5.93093">
        <ele>644.6</ele>
        <time>2021-02-11T14:10:31Z</time>
      </trkpt>
      <trkpt lat="46.868" lon="5.93098">
        <ele>644.2</ele>
        <time>2021-02-11T14:10:36Z</time>
      </trkpt>
      <trkpt lat="46.86796" lon="5.93104">
        <ele>643.5</ele>
        <time>2021-02-11T14:10:41Z</time>
      </trkpt>
      <trkpt lat="46.86793" lon="5.93109">
        <ele>643</ele>
        <time>2021-02-11T14:10:46Z</time>
      </trkpt>
      <trkpt lat="46.86788" lon="5.93114">
        <ele>642</ele>
        <time>2021-02-11T14:10:52Z</time>
      </trkpt>
      <trkpt lat="46.86785" lon="5.9312">
        <ele>641.4</ele>
        <time>2021-02-11T14:10:56Z</time>
      </trkpt>
      <trkpt lat="46.86782" lon="5.93125">
        <ele>641.2</ele>
        <time>2021-02-11T14:10:59Z</time>
      </trkpt>
      <trkpt lat="46.8678" lon="5.93131">
        <ele>641.1</ele>
        <time>2021-02-11T14:11:02Z</time>
      </trkpt>
      <trkpt lat="46.86777" lon="5.93137">
        <ele>641.3</ele>
        <time>2021-02-11T14:11:07Z</time>
      </trkpt>
      <trkpt lat="46.86774" lon="5.93142">
        <ele>642.1</ele>
        <time>2021-02-11T14:11:12Z</time>
      </trkpt>
      <trkpt lat="46.8677" lon="5.93148">
        <ele>642.4</ele>
        <time>2021-02-11T14:11:17Z</time>
      </trkpt>
      <trkpt lat="46.86767" lon="5.93154">
        <ele>642.3</ele>
        <time>2021-02-11T14:11:22Z</time>
      </trkpt>
      <trkpt lat="46.86763" lon="5.9316">
        <ele>642.5</ele>
        <time>2021-02-11T14:11:27Z</time>
      </trkpt>
      <trkpt lat="46.86761" lon="5.93166">
        <ele>642.8</ele>
        <time>2021-02-11T14:11:31Z</time>
      </trkpt>
      <trkpt lat="46.86759" lon="5.93172">
        <ele>643.1</ele>
        <time>2021-02-11T14:11:35Z</time>
      </trkpt>
      <trkpt lat="46.86755" lon="5.93179">
        <ele>643.8</ele>
        <time>2021-02-11T14:11:40Z</time>
      </trkpt>
      <trkpt lat="46.86753" lon="5.93184">
        <ele>644.1</ele>
        <time>2021-02-11T14:11:44Z</time>
      </trkpt>
      <trkpt lat="46.8675" lon="5.9319">
        <ele>644.2</ele>
        <time>2021-02-11T14:11:48Z</time>
      </trkpt>
      <trkpt lat="46.86747" lon="5.93195">
        <ele>643.9</ele>
        <time>2021-02-11T14:11:52Z</time>
      </trkpt>
      <trkpt lat="46.86744" lon="5.93202">
        <ele>643.5</ele>
        <time>2021-02-11T14:11:57Z</time>
      </trkpt>
      <trkpt lat="46.86741" lon="5.93208">
        <ele>643.5</ele>
        <time>2021-02-11T14:12:02Z</time>
      </trkpt>
      <trkpt lat="46.86737" lon="5.93213">
        <ele>643.5</ele>
        <time>2021-02-11T14:12:06Z</time>
      </trkpt>
      <trkpt lat="46.86733" lon="5.93218">
        <ele>643.1</ele>
        <time>2021-02-11T14:12:11Z</time>
      </trkpt>
      <trkpt lat="46.86729" lon="5.93224">
        <ele>642.3</ele>
        <time>2021-02-11T14:12:16Z</time>
      </trkpt>
      <trkpt lat="46.86725" lon="5.93229">
        <ele>641.6</ele>
        <time>2021-02-11T14:12:20Z</time>
      </trkpt>
      <trkpt lat="46.86721" lon="5.93234">
        <ele>640.8</ele>
        <time>2021-02-11T14:12:24Z</time>
      </trkpt>
      <trkpt lat="46.86717" lon="5.93239">
        <ele>639.9</ele>
        <time>2021-02-11T14:12:28Z</time>
      </trkpt>
      <trkpt lat="46.86713" lon="5.93243">
        <ele>639.3</ele>
        <time>2021-02-11T14:12:32Z</time>
      </trkpt>
      <trkpt lat="46.86709" lon="5.93247">
        <ele>639.1</ele>
        <time>2021-02-11T14:12:37Z</time>
      </trkpt>
      <trkpt lat="46.86705" lon="5.93251">
        <ele>639.5</ele>
        <time>2021-02-11T14:12:44Z</time>
      </trkpt>
      <trkpt lat="46.867" lon="5.93254">
        <ele>639.4</ele>
        <time>2021-02-11T14:12:50Z</time>
      </trkpt>
      <trkpt lat="46.86695" lon="5.93259">
        <ele>639.4</ele>
        <time>2021-02-11T14:12:54Z</time>
      </trkpt>
      <trkpt lat="46.86691" lon="5.93262">
        <ele>639.5</ele>
        <time>2021-02-11T14:12:58Z</time>
      </trkpt>
      <trkpt lat="46.86686" lon="5.93266">
        <ele>639.7</ele>
        <time>2021-02-11T14:13:03Z</time>
      </trkpt>
      <trkpt lat="46.86682" lon="5.93269">
        <ele>639.8</ele>
        <time>2021-02-11T14:13:07Z</time>
      </trkpt>
      <trkpt lat="46.86678" lon="5.93273">
        <ele>639.7</ele>
        <time>2021-02-11T14:13:11Z</time>
      </trkpt>
      <trkpt lat="46.86675" lon="5.93278">
        <ele>639.5</ele>
        <time>2021-02-11T14:13:15Z</time>
      </trkpt>
      <trkpt lat="46.86671" lon="5.93283">
        <ele>639.4</ele>
        <time>2021-02-11T14:13:20Z</time>
      </trkpt>
      <trkpt lat="46.86667" lon="5.93287">
        <ele>639.3</ele>
        <time>2021-02-11T14:13:25Z</time>
      </trkpt>
      <trkpt lat="46.86663" lon="5.93293">
        <ele>639.1</ele>
        <time>2021-02-11T14:13:30Z</time>
      </trkpt>
      <trkpt lat="46.8666" lon="5.93298">
        <ele>638.9</ele>
        <time>2021-02-11T14:13:34Z</time>
      </trkpt>
      <trkpt lat="46.86656" lon="5.93303">
        <ele>638.7</ele>
        <time>2021-02-11T14:13:39Z</time>
      </trkpt>
      <trkpt lat="46.86652" lon="5.93308">
        <ele>638.3</ele>
        <time>2021-02-11T14:13:44Z</time>
      </trkpt>
      <trkpt lat="46.86648" lon="5.93314">
        <ele>637.8</ele>
        <time>2021-02-11T14:13:49Z</time>
      </trkpt>
      <trkpt lat="46.86645" lon="5.9332">
        <ele>637.3</ele>
        <time>2021-02-11T14:13:54Z</time>
      </trkpt>
      <trkpt lat="46.86641" lon="5.93324">
        <ele>636.9</ele>
        <time>2021-02-11T14:13:58Z</time>
      </trkpt>
      <trkpt lat="46.86637" lon="5.9333">
        <ele>636.1</ele>
        <time>2021-02-11T14:14:03Z</time>
      </trkpt>
      <trkpt lat="46.86634" lon="5.93335">
        <ele>635.2</ele>
        <time>2021-02-11T14:14:08Z</time>
      </trkpt>
      <trkpt lat="46.8663" lon="5.9334">
        <ele>634.7</ele>
        <time>2021-02-11T14:14:12Z</time>
      </trkpt>
      <trkpt lat="46.86627" lon="5.93345">
        <ele>634.3</ele>
        <time>2021-02-11T14:14:16Z</time>
      </trkpt>
      <trkpt lat="46.86622" lon="5.9335">
        <ele>633.8</ele>
        <time>2021-02-11T14:14:21Z</time>
      </trkpt>
      <trkpt lat="46.86619" lon="5.93355">
        <ele>633.2</ele>
        <time>2021-02-11T14:14:25Z</time>
      </trkpt>
      <trkpt lat="46.86616" lon="5.93361">
        <ele>632.3</ele>
        <time>2021-02-11T14:14:30Z</time>
      </trkpt>
      <trkpt lat="46.86612" lon="5.93366">
        <ele>631.8</ele>
        <time>2021-02-11T14:14:34Z</time>
      </trkpt>
      <trkpt lat="46.86609" lon="5.9337">
        <ele>631.5</ele>
        <time>2021-02-11T14:14:38Z</time>
      </trkpt>
      <trkpt lat="46.86606" lon="5.93375">
        <ele>631.3</ele>
        <time>2021-02-11T14:14:42Z</time>
      </trkpt>
      <trkpt lat="46.86601" lon="5.9338">
        <ele>631.1</ele>
        <time>2021-02-11T14:14:47Z</time>
      </trkpt>
      <trkpt lat="46.86598" lon="5.93384">
        <ele>630.9</ele>
        <time>2021-02-11T14:14:51Z</time>
      </trkpt>
      <trkpt lat="46.86594" lon="5.93389">
        <ele>630.9</ele>
        <time>2021-02-11T14:14:56Z</time>
      </trkpt>
      <trkpt lat="46.86589" lon="5.93394">
        <ele>631</ele>
        <time>2021-02-11T14:15:01Z</time>
      </trkpt>
      <trkpt lat="46.86585" lon="5.93399">
        <ele>631.2</ele>
        <time>2021-02-11T14:15:06Z</time>
      </trkpt>
      <trkpt lat="46.86581" lon="5.93404">
        <ele>631.1</ele>
        <time>2021-02-11T14:15:11Z</time>
      </trkpt>
      <trkpt lat="46.86577" lon="5.93407">
        <ele>630.9</ele>
        <time>2021-02-11T14:15:16Z</time>
      </trkpt>
      <trkpt lat="46.86574" lon="5.93413">
        <ele>630.5</ele>
        <time>2021-02-11T14:15:21Z</time>
      </trkpt>
      <trkpt lat="46.86569" lon="5.93418">
        <ele>630</ele>
        <time>2021-02-11T14:15:26Z</time>
      </trkpt>
      <trkpt lat="46.86566" lon="5.93423">
        <ele>629.5</ele>
        <time>2021-02-11T14:15:30Z</time>
      </trkpt>
      <trkpt lat="46.86563" lon="5.93427">
        <ele>629.3</ele>
        <time>2021-02-11T14:15:34Z</time>
      </trkpt>
      <trkpt lat="46.86559" lon="5.93433">
        <ele>629.3</ele>
        <time>2021-02-11T14:15:38Z</time>
      </trkpt>
      <trkpt lat="46.86556" lon="5.93438">
        <ele>629.6</ele>
        <time>2021-02-11T14:15:43Z</time>
      </trkpt>
      <trkpt lat="46.86553" lon="5.93444">
        <ele>629.9</ele>
        <time>2021-02-11T14:15:48Z</time>
      </trkpt>
      <trkpt lat="46.86551" lon="5.9345">
        <ele>630.1</ele>
        <time>2021-02-11T14:15:52Z</time>
      </trkpt>
      <trkpt lat="46.86548" lon="5.93456">
        <ele>630.1</ele>
        <time>2021-02-11T14:15:56Z</time>
      </trkpt>
      <trkpt lat="46.86544" lon="5.93462">
        <ele>630</ele>
        <time>2021-02-11T14:16:01Z</time>
      </trkpt>
      <trkpt lat="46.86541" lon="5.93467">
        <ele>629.9</ele>
        <time>2021-02-11T14:16:05Z</time>
      </trkpt>
      <trkpt lat="46.86539" lon="5.93473">
        <ele>630.2</ele>
        <time>2021-02-11T14:16:10Z</time>
      </trkpt>
      <trkpt lat="46.86536" lon="5.93479">
        <ele>630.7</ele>
        <time>2021-02-11T14:16:15Z</time>
      </trkpt>
      <trkpt lat="46.86532" lon="5.93484">
        <ele>630.6</ele>
        <time>2021-02-11T14:16:20Z</time>
      </trkpt>
      <trkpt lat="46.86528" lon="5.93489">
        <ele>629.7</ele>
        <time>2021-02-11T14:16:25Z</time>
      </trkpt>
      <trkpt lat="46.86525" lon="5.93495">
        <ele>628.5</ele>
        <time>2021-02-11T14:16:30Z</time>
      </trkpt>
      <trkpt lat="46.86522" lon="5.93501">
        <ele>627.8</ele>
        <time>2021-02-11T14:16:35Z</time>
      </trkpt>
      <trkpt lat="46.86519" lon="5.93507">
        <ele>627.8</ele>
        <time>2021-02-11T14:16:40Z</time>
      </trkpt>
      <trkpt lat="46.86516" lon="5.93513">
        <ele>628</ele>
        <time>2021-02-11T14:16:44Z</time>
      </trkpt>
      <trkpt lat="46.86513" lon="5.93519">
        <ele>628.3</ele>
        <time>2021-02-11T14:16:48Z</time>
      </trkpt>
      <trkpt lat="46.86509" lon="5.93524">
        <ele>628.7</ele>
        <time>2021-02-11T14:16:53Z</time>
      </trkpt>
      <trkpt lat="46.86505" lon="5.93528">
        <ele>629.1</ele>
        <time>2021-02-11T14:16:59Z</time>
      </trkpt>
      <trkpt lat="46.865" lon="5.93531">
        <ele>629.1</ele>
        <time>2021-02-11T14:17:06Z</time>
      </trkpt>
      <trkpt lat="46.86496" lon="5.93534">
        <ele>630.3</ele>
        <time>2021-02-11T14:17:21Z</time>
      </trkpt>
      <trkpt lat="46.86492" lon="5.93537">
        <ele>628.4</ele>
        <time>2021-02-11T14:18:00Z</time>
      </trkpt>
      <trkpt lat="46.86486" lon="5.93537">
        <ele>627.8</ele>
        <time>2021-02-11T14:18:07Z</time>
      </trkpt>
      <trkpt lat="46.86481" lon="5.93536">
        <ele>628.3</ele>
        <time>2021-02-11T14:18:13Z</time>
      </trkpt>
      <trkpt lat="46.86477" lon="5.93536">
        <ele>628.8</ele>
        <time>2021-02-11T14:18:18Z</time>
      </trkpt>
      <trkpt lat="46.86472" lon="5.93537">
        <ele>628.2</ele>
        <time>2021-02-11T14:18:28Z</time>
      </trkpt>
      <trkpt lat="46.86467" lon="5.93535">
        <ele>628.1</ele>
        <time>2021-02-11T14:18:33Z</time>
      </trkpt>
      <trkpt lat="46.86462" lon="5.93536">
        <ele>628.2</ele>
        <time>2021-02-11T14:18:39Z</time>
      </trkpt>
      <trkpt lat="46.86457" lon="5.93533">
        <ele>627.8</ele>
        <time>2021-02-11T14:18:45Z</time>
      </trkpt>
      <trkpt lat="46.86453" lon="5.93531">
        <ele>627.1</ele>
        <time>2021-02-11T14:18:49Z</time>
      </trkpt>
      <trkpt lat="46.86447" lon="5.93532">
        <ele>627.3</ele>
        <time>2021-02-11T14:18:53Z</time>
      </trkpt>
      <trkpt lat="46.86441" lon="5.93532">
        <ele>627.8</ele>
        <time>2021-02-11T14:18:57Z</time>
      </trkpt>
      <trkpt lat="46.86436" lon="5.93532">
        <ele>629.1</ele>
        <time>2021-02-11T14:19:01Z</time>
      </trkpt>
      <trkpt lat="46.86431" lon="5.93531">
        <ele>630.5</ele>
        <time>2021-02-11T14:19:05Z</time>
      </trkpt>
      <trkpt lat="46.86426" lon="5.93531">
        <ele>631.9</ele>
        <time>2021-02-11T14:19:09Z</time>
      </trkpt>
      <trkpt lat="46.86421" lon="5.93531">
        <ele>633.1</ele>
        <time>2021-02-11T14:19:13Z</time>
      </trkpt>
      <trkpt lat="46.86416" lon="5.93531">
        <ele>633.6</ele>
        <time>2021-02-11T14:19:17Z</time>
      </trkpt>
      <trkpt lat="46.86412" lon="5.93533">
        <ele>633.6</ele>
        <time>2021-02-11T14:19:21Z</time>
      </trkpt>
      <trkpt lat="46.86407" lon="5.93533">
        <ele>633</ele>
        <time>2021-02-11T14:19:25Z</time>
      </trkpt>
      <trkpt lat="46.86402" lon="5.93534">
        <ele>633</ele>
        <time>2021-02-11T14:19:30Z</time>
      </trkpt>
      <trkpt lat="46.86397" lon="5.93534">
        <ele>633.4</ele>
        <time>2021-02-11T14:19:36Z</time>
      </trkpt>
      <trkpt lat="46.86393" lon="5.93537">
        <ele>634.7</ele>
        <time>2021-02-11T14:19:44Z</time>
      </trkpt>
      <trkpt lat="46.8639" lon="5.93542">
        <ele>635.4</ele>
        <time>2021-02-11T14:19:48Z</time>
      </trkpt>
      <trkpt lat="46.86385" lon="5.93539">
        <ele>636.1</ele>
        <time>2021-02-11T14:19:52Z</time>
      </trkpt>
      <trkpt lat="46.86379" lon="5.93538">
        <ele>633.5</ele>
        <time>2021-02-11T14:19:55Z</time>
      </trkpt>
      <trkpt lat="46.86374" lon="5.93538">
        <ele>632.1</ele>
        <time>2021-02-11T14:20:00Z</time>
      </trkpt>
      <trkpt lat="46.86369" lon="5.93534">
        <ele>630.7</ele>
        <time>2021-02-11T14:20:09Z</time>
      </trkpt>
      <trkpt lat="46.86365" lon="5.93534">
        <ele>630.1</ele>
        <time>2021-02-11T14:20:13Z</time>
      </trkpt>
      <trkpt lat="46.8636" lon="5.93535">
        <ele>629.2</ele>
        <time>2021-02-11T14:20:18Z</time>
      </trkpt>
      <trkpt lat="46.86355" lon="5.93531">
        <ele>627.1</ele>
        <time>2021-02-11T14:20:25Z</time>
      </trkpt>
      <trkpt lat="46.86351" lon="5.93529">
        <ele>626</ele>
        <time>2021-02-11T14:20:29Z</time>
      </trkpt>
      <trkpt lat="46.86346" lon="5.93527">
        <ele>625.3</ele>
        <time>2021-02-11T14:20:33Z</time>
      </trkpt>
      <trkpt lat="46.86342" lon="5.93525">
        <ele>624.8</ele>
        <time>2021-02-11T14:20:38Z</time>
      </trkpt>
      <trkpt lat="46.86337" lon="5.93522">
        <ele>624.7</ele>
        <time>2021-02-11T14:20:43Z</time>
      </trkpt>
      <trkpt lat="46.86332" lon="5.93521">
        <ele>624.2</ele>
        <time>2021-02-11T14:20:48Z</time>
      </trkpt>
      <trkpt lat="46.86326" lon="5.93521">
        <ele>623.9</ele>
        <time>2021-02-11T14:20:52Z</time>
      </trkpt>
      <trkpt lat="46.86321" lon="5.93523">
        <ele>623.8</ele>
        <time>2021-02-11T14:20:56Z</time>
      </trkpt>
      <trkpt lat="46.86316" lon="5.93524">
        <ele>623.6</ele>
        <time>2021-02-11T14:21:01Z</time>
      </trkpt>
      <trkpt lat="46.86311" lon="5.93525">
        <ele>624.1</ele>
        <time>2021-02-11T14:21:06Z</time>
      </trkpt>
      <trkpt lat="46.86306" lon="5.93527">
        <ele>624.7</ele>
        <time>2021-02-11T14:21:11Z</time>
      </trkpt>
      <trkpt lat="46.86301" lon="5.9353">
        <ele>625.2</ele>
        <time>2021-02-11T14:21:16Z</time>
      </trkpt>
      <trkpt lat="46.86295" lon="5.93533">
        <ele>625.6</ele>
        <time>2021-02-11T14:21:21Z</time>
      </trkpt>
      <trkpt lat="46.8629" lon="5.93535">
        <ele>625.7</ele>
        <time>2021-02-11T14:21:26Z</time>
      </trkpt>
      <trkpt lat="46.86286" lon="5.93537">
        <ele>625.4</ele>
        <time>2021-02-11T14:21:30Z</time>
      </trkpt>
      <trkpt lat="46.86281" lon="5.93539">
        <ele>625.3</ele>
        <time>2021-02-11T14:21:34Z</time>
      </trkpt>
      <trkpt lat="46.86277" lon="5.93541">
        <ele>625.4</ele>
        <time>2021-02-11T14:21:39Z</time>
      </trkpt>
      <trkpt lat="46.86272" lon="5.93543">
        <ele>625.7</ele>
        <time>2021-02-11T14:21:43Z</time>
      </trkpt>
      <trkpt lat="46.86268" lon="5.93545">
        <ele>625.9</ele>
        <time>2021-02-11T14:21:47Z</time>
      </trkpt>
      <trkpt lat="46.86263" lon="5.93547">
        <ele>626</ele>
        <time>2021-02-11T14:21:51Z</time>
      </trkpt>
      <trkpt lat="46.86258" lon="5.9355">
        <ele>626</ele>
        <time>2021-02-11T14:21:55Z</time>
      </trkpt>
      <trkpt lat="46.86254" lon="5.93552">
        <ele>626.1</ele>
        <time>2021-02-11T14:21:59Z</time>
      </trkpt>
      <trkpt lat="46.86249" lon="5.93554">
        <ele>626.2</ele>
        <time>2021-02-11T14:22:03Z</time>
      </trkpt>
      <trkpt lat="46.86244" lon="5.93556">
        <ele>626.2</ele>
        <time>2021-02-11T14:22:08Z</time>
      </trkpt>
      <trkpt lat="46.86239" lon="5.93558">
        <ele>626.2</ele>
        <time>2021-02-11T14:22:12Z</time>
      </trkpt>
      <trkpt lat="46.86235" lon="5.9356">
        <ele>626</ele>
        <time>2021-02-11T14:22:16Z</time>
      </trkpt>
      <trkpt lat="46.86231" lon="5.93562">
        <ele>625.8</ele>
        <time>2021-02-11T14:22:20Z</time>
      </trkpt>
      <trkpt lat="46.86226" lon="5.93563">
        <ele>625.5</ele>
        <time>2021-02-11T14:22:25Z</time>
      </trkpt>
      <trkpt lat="46.86222" lon="5.93567">
        <ele>625.5</ele>
        <time>2021-02-11T14:22:30Z</time>
      </trkpt>
      <trkpt lat="46.86219" lon="5.93572">
        <ele>626.2</ele>
        <time>2021-02-11T14:22:38Z</time>
      </trkpt>
      <trkpt lat="46.8622" lon="5.93579">
        <ele>625.7</ele>
        <time>2021-02-11T14:23:21Z</time>
      </trkpt>
      <trkpt lat="46.86219" lon="5.93586">
        <ele>625.6</ele>
        <time>2021-02-11T14:23:26Z</time>
      </trkpt>
      <trkpt lat="46.86218" lon="5.93593">
        <ele>625.5</ele>
        <time>2021-02-11T14:23:30Z</time>
      </trkpt>
      <trkpt lat="46.86216" lon="5.936">
        <ele>625.5</ele>
        <time>2021-02-11T14:23:34Z</time>
      </trkpt>
      <trkpt lat="46.86215" lon="5.93608">
        <ele>625.5</ele>
        <time>2021-02-11T14:23:39Z</time>
      </trkpt>
      <trkpt lat="46.86213" lon="5.93615">
        <ele>625.6</ele>
        <time>2021-02-11T14:23:43Z</time>
      </trkpt>
      <trkpt lat="46.86212" lon="5.93622">
        <ele>627</ele>
        <time>2021-02-11T14:23:48Z</time>
      </trkpt>
      <trkpt lat="46.8621" lon="5.93629">
        <ele>628.1</ele>
        <time>2021-02-11T14:23:54Z</time>
      </trkpt>
      <trkpt lat="46.86208" lon="5.93637">
        <ele>628.5</ele>
        <time>2021-02-11T14:23:59Z</time>
      </trkpt>
      <trkpt lat="46.86206" lon="5.93644">
        <ele>628.9</ele>
        <time>2021-02-11T14:24:04Z</time>
      </trkpt>
      <trkpt lat="46.86206" lon="5.93651">
        <ele>629.1</ele>
        <time>2021-02-11T14:24:08Z</time>
      </trkpt>
      <trkpt lat="46.86205" lon="5.93658">
        <ele>629</ele>
        <time>2021-02-11T14:24:12Z</time>
      </trkpt>
      <trkpt lat="46.86204" lon="5.93665">
        <ele>628.3</ele>
        <time>2021-02-11T14:24:16Z</time>
      </trkpt>
      <trkpt lat="46.86202" lon="5.93671">
        <ele>627.4</ele>
        <time>2021-02-11T14:24:20Z</time>
      </trkpt>
      <trkpt lat="46.862" lon="5.93677">
        <ele>626.1</ele>
        <time>2021-02-11T14:24:24Z</time>
      </trkpt>
      <trkpt lat="46.86199" lon="5.93684">
        <ele>625.1</ele>
        <time>2021-02-11T14:24:28Z</time>
      </trkpt>
      <trkpt lat="46.86197" lon="5.93692">
        <ele>624.4</ele>
        <time>2021-02-11T14:24:33Z</time>
      </trkpt>
      <trkpt lat="46.86196" lon="5.93699">
        <ele>624</ele>
        <time>2021-02-11T14:24:38Z</time>
      </trkpt>
      <trkpt lat="46.86196" lon="5.93705">
        <ele>623.6</ele>
        <time>2021-02-11T14:24:44Z</time>
      </trkpt>
      <trkpt lat="46.86195" lon="5.93712">
        <ele>623.9</ele>
        <time>2021-02-11T14:24:57Z</time>
      </trkpt>
      <trkpt lat="46.86195" lon="5.93719">
        <ele>624.3</ele>
        <time>2021-02-11T14:25:02Z</time>
      </trkpt>
      <trkpt lat="46.86193" lon="5.93725">
        <ele>624.1</ele>
        <time>2021-02-11T14:25:07Z</time>
      </trkpt>
      <trkpt lat="46.8619" lon="5.93732">
        <ele>622.8</ele>
        <time>2021-02-11T14:25:12Z</time>
      </trkpt>
      <trkpt lat="46.86189" lon="5.93738">
        <ele>621.6</ele>
        <time>2021-02-11T14:25:16Z</time>
      </trkpt>
      <trkpt lat="46.86188" lon="5.93746">
        <ele>620.8</ele>
        <time>2021-02-11T14:25:20Z</time>
      </trkpt>
      <trkpt lat="46.86186" lon="5.93754">
        <ele>620</ele>
        <time>2021-02-11T14:25:24Z</time>
      </trkpt>
      <trkpt lat="46.86185" lon="5.93761">
        <ele>619.1</ele>
        <time>2021-02-11T14:25:29Z</time>
      </trkpt>
      <trkpt lat="46.86183" lon="5.93767">
        <ele>618.6</ele>
        <time>2021-02-11T14:25:34Z</time>
      </trkpt>
      <trkpt lat="46.86181" lon="5.93774">
        <ele>618.3</ele>
        <time>2021-02-11T14:25:39Z</time>
      </trkpt>
      <trkpt lat="46.86179" lon="5.93781">
        <ele>618</ele>
        <time>2021-02-11T14:25:44Z</time>
      </trkpt>
      <trkpt lat="46.86178" lon="5.93788">
        <ele>617.3</ele>
        <time>2021-02-11T14:25:49Z</time>
      </trkpt>
      <trkpt lat="46.86177" lon="5.93795">
        <ele>616.8</ele>
        <time>2021-02-11T14:25:54Z</time>
      </trkpt>
      <trkpt lat="46.86174" lon="5.93802">
        <ele>616.8</ele>
        <time>2021-02-11T14:25:58Z</time>
      </trkpt>
      <trkpt lat="46.86173" lon="5.93808">
        <ele>617.2</ele>
        <time>2021-02-11T14:26:02Z</time>
      </trkpt>
      <trkpt lat="46.86171" lon="5.93814">
        <ele>617.6</ele>
        <time>2021-02-11T14:26:06Z</time>
      </trkpt>
      <trkpt lat="46.86171" lon="5.93822">
        <ele>617.9</ele>
        <time>2021-02-11T14:26:11Z</time>
      </trkpt>
      <trkpt lat="46.8617" lon="5.93828">
        <ele>618.2</ele>
        <time>2021-02-11T14:26:16Z</time>
      </trkpt>
      <trkpt lat="46.86168" lon="5.93835">
        <ele>618.4</ele>
        <time>2021-02-11T14:26:21Z</time>
      </trkpt>
      <trkpt lat="46.86166" lon="5.93841">
        <ele>618.3</ele>
        <time>2021-02-11T14:26:26Z</time>
      </trkpt>
      <trkpt lat="46.86163" lon="5.93847">
        <ele>617.7</ele>
        <time>2021-02-11T14:26:31Z</time>
      </trkpt>
      <trkpt lat="46.8616" lon="5.93853">
        <ele>616.9</ele>
        <time>2021-02-11T14:26:35Z</time>
      </trkpt>
      <trkpt lat="46.86157" lon="5.93858">
        <ele>616.1</ele>
        <time>2021-02-11T14:26:39Z</time>
      </trkpt>
      <trkpt lat="46.86152" lon="5.93862">
        <ele>614.9</ele>
        <time>2021-02-11T14:26:44Z</time>
      </trkpt>
      <trkpt lat="46.86148" lon="5.93866">
        <ele>613.9</ele>
        <time>2021-02-11T14:26:49Z</time>
      </trkpt>
      <trkpt lat="46.86143" lon="5.9387">
        <ele>613.4</ele>
        <time>2021-02-11T14:26:54Z</time>
      </trkpt>
      <trkpt lat="46.86139" lon="5.93873">
        <ele>613.4</ele>
        <time>2021-02-11T14:26:58Z</time>
      </trkpt>
      <trkpt lat="46.86135" lon="5.93876">
        <ele>613.4</ele>
        <time>2021-02-11T14:27:02Z</time>
      </trkpt>
      <trkpt lat="46.8613" lon="5.93879">
        <ele>613.7</ele>
        <time>2021-02-11T14:27:07Z</time>
      </trkpt>
      <trkpt lat="46.86126" lon="5.93882">
        <ele>614.4</ele>
        <time>2021-02-11T14:27:11Z</time>
      </trkpt>
      <trkpt lat="46.86122" lon="5.93886">
        <ele>615.1</ele>
        <time>2021-02-11T14:27:15Z</time>
      </trkpt>
      <trkpt lat="46.86117" lon="5.93889">
        <ele>615.7</ele>
        <time>2021-02-11T14:27:19Z</time>
      </trkpt>
      <trkpt lat="46.86113" lon="5.93893">
        <ele>616.2</ele>
        <time>2021-02-11T14:27:23Z</time>
      </trkpt>
      <trkpt lat="46.86109" lon="5.93896">
        <ele>616.6</ele>
        <time>2021-02-11T14:27:28Z</time>
      </trkpt>
      <trkpt lat="46.86105" lon="5.939">
        <ele>616.7</ele>
        <time>2021-02-11T14:27:32Z</time>
      </trkpt>
      <trkpt lat="46.861" lon="5.93903">
        <ele>616.6</ele>
        <time>2021-02-11T14:27:36Z</time>
      </trkpt>
      <trkpt lat="46.86096" lon="5.93906">
        <ele>616.3</ele>
        <time>2021-02-11T14:27:41Z</time>
      </trkpt>
      <trkpt lat="46.86091" lon="5.93911">
        <ele>615.7</ele>
        <time>2021-02-11T14:27:46Z</time>
      </trkpt>
      <trkpt lat="46.86086" lon="5.93914">
        <ele>615</ele>
        <time>2021-02-11T14:27:51Z</time>
      </trkpt>
      <trkpt lat="46.86082" lon="5.93918">
        <ele>614.3</ele>
        <time>2021-02-11T14:27:56Z</time>
      </trkpt>
      <trkpt lat="46.86077" lon="5.93922">
        <ele>613.9</ele>
        <time>2021-02-11T14:28:01Z</time>
      </trkpt>
      <trkpt lat="46.86073" lon="5.93926">
        <ele>613.5</ele>
        <time>2021-02-11T14:28:05Z</time>
      </trkpt>
      <trkpt lat="46.86069" lon="5.93929">
        <ele>613</ele>
        <time>2021-02-11T14:28:09Z</time>
      </trkpt>
      <trkpt lat="46.86065" lon="5.93933">
        <ele>612.6</ele>
        <time>2021-02-11T14:28:13Z</time>
      </trkpt>
      <trkpt lat="46.8606" lon="5.93937">
        <ele>612.4</ele>
        <time>2021-02-11T14:28:18Z</time>
      </trkpt>
      <trkpt lat="46.86055" lon="5.93941">
        <ele>612</ele>
        <time>2021-02-11T14:28:23Z</time>
      </trkpt>
      <trkpt lat="46.86051" lon="5.93944">
        <ele>612.1</ele>
        <time>2021-02-11T14:28:27Z</time>
      </trkpt>
      <trkpt lat="46.86046" lon="5.93948">
        <ele>612.2</ele>
        <time>2021-02-11T14:28:32Z</time>
      </trkpt>
      <trkpt lat="46.86042" lon="5.93951">
        <ele>612.4</ele>
        <time>2021-02-11T14:28:37Z</time>
      </trkpt>
      <trkpt lat="46.86038" lon="5.93955">
        <ele>612.5</ele>
        <time>2021-02-11T14:28:42Z</time>
      </trkpt>
      <trkpt lat="46.86033" lon="5.93959">
        <ele>612.3</ele>
        <time>2021-02-11T14:28:47Z</time>
      </trkpt>
      <trkpt lat="46.86029" lon="5.93964">
        <ele>611.7</ele>
        <time>2021-02-11T14:28:52Z</time>
      </trkpt>
      <trkpt lat="46.86027" lon="5.9397">
        <ele>610.6</ele>
        <time>2021-02-11T14:28:57Z</time>
      </trkpt>
      <trkpt lat="46.86023" lon="5.93976">
        <ele>609.9</ele>
        <time>2021-02-11T14:29:02Z</time>
      </trkpt>
      <trkpt lat="46.86022" lon="5.93982">
        <ele>609.9</ele>
        <time>2021-02-11T14:29:11Z</time>
      </trkpt>
      <trkpt lat="46.86024" lon="5.93988">
        <ele>610.5</ele>
        <time>2021-02-11T14:29:18Z</time>
      </trkpt>
      <trkpt lat="46.86028" lon="5.93994">
        <ele>610.9</ele>
        <time>2021-02-11T14:29:24Z</time>
      </trkpt>
      <trkpt lat="46.86033" lon="5.93996">
        <ele>611.1</ele>
        <time>2021-02-11T14:29:29Z</time>
      </trkpt>
      <trkpt lat="46.86037" lon="5.93998">
        <ele>611.3</ele>
        <time>2021-02-11T14:29:33Z</time>
      </trkpt>
      <trkpt lat="46.86043" lon="5.94">
        <ele>611.5</ele>
        <time>2021-02-11T14:29:38Z</time>
      </trkpt>
      <trkpt lat="46.86048" lon="5.94002">
        <ele>611.5</ele>
        <time>2021-02-11T14:29:43Z</time>
      </trkpt>
      <trkpt lat="46.86052" lon="5.94004">
        <ele>611.8</ele>
        <time>2021-02-11T14:29:47Z</time>
      </trkpt>
      <trkpt lat="46.86056" lon="5.94007">
        <ele>612.4</ele>
        <time>2021-02-11T14:29:51Z</time>
      </trkpt>
      <trkpt lat="46.8606" lon="5.94011">
        <ele>613.1</ele>
        <time>2021-02-11T14:29:55Z</time>
      </trkpt>
      <trkpt lat="46.86065" lon="5.94014">
        <ele>613.8</ele>
        <time>2021-02-11T14:30:00Z</time>
      </trkpt>
      <trkpt lat="46.8607" lon="5.94017">
        <ele>614.3</ele>
        <time>2021-02-11T14:30:04Z</time>
      </trkpt>
      <trkpt lat="46.86075" lon="5.9402">
        <ele>614.7</ele>
        <time>2021-02-11T14:30:09Z</time>
      </trkpt>
      <trkpt lat="46.8608" lon="5.94022">
        <ele>614.9</ele>
        <time>2021-02-11T14:30:14Z</time>
      </trkpt>
      <trkpt lat="46.86085" lon="5.94024">
        <ele>615.2</ele>
        <time>2021-02-11T14:30:19Z</time>
      </trkpt>
      <trkpt lat="46.8609" lon="5.94026">
        <ele>615.4</ele>
        <time>2021-02-11T14:30:24Z</time>
      </trkpt>
      <trkpt lat="46.86094" lon="5.94028">
        <ele>615.2</ele>
        <time>2021-02-11T14:30:28Z</time>
      </trkpt>
      <trkpt lat="46.861" lon="5.94029">
        <ele>614.8</ele>
        <time>2021-02-11T14:30:33Z</time>
      </trkpt>
      <trkpt lat="46.86105" lon="5.94031">
        <ele>614.3</ele>
        <time>2021-02-11T14:30:38Z</time>
      </trkpt>
      <trkpt lat="46.8611" lon="5.94034">
        <ele>613.5</ele>
        <time>2021-02-11T14:30:43Z</time>
      </trkpt>
      <trkpt lat="46.86113" lon="5.94038">
        <ele>612.9</ele>
        <time>2021-02-11T14:30:47Z</time>
      </trkpt>
      <trkpt lat="46.86115" lon="5.94045">
        <ele>613</ele>
        <time>2021-02-11T14:30:52Z</time>
      </trkpt>
      <trkpt lat="46.86115" lon="5.94051">
        <ele>614.4</ele>
        <time>2021-02-11T14:31:08Z</time>
      </trkpt>
      <trkpt lat="46.86114" lon="5.94058">
        <ele>614.4</ele>
        <time>2021-02-11T14:31:14Z</time>
      </trkpt>
      <trkpt lat="46.86112" lon="5.94064">
        <ele>615.2</ele>
        <time>2021-02-11T14:31:28Z</time>
      </trkpt>
      <trkpt lat="46.86111" lon="5.94072">
        <ele>615</ele>
        <time>2021-02-11T14:31:33Z</time>
      </trkpt>
      <trkpt lat="46.8611" lon="5.94079">
        <ele>615.1</ele>
        <time>2021-02-11T14:31:37Z</time>
      </trkpt>
      <trkpt lat="46.8611" lon="5.94086">
        <ele>615.2</ele>
        <time>2021-02-11T14:31:41Z</time>
      </trkpt>
      <trkpt lat="46.86109" lon="5.94094">
        <ele>615.6</ele>
        <time>2021-02-11T14:31:46Z</time>
      </trkpt>
      <trkpt lat="46.86109" lon="5.94101">
        <ele>615.6</ele>
        <time>2021-02-11T14:31:50Z</time>
      </trkpt>
      <trkpt lat="46.86108" lon="5.94108">
        <ele>615.6</ele>
        <time>2021-02-11T14:31:55Z</time>
      </trkpt>
      <trkpt lat="46.86108" lon="5.94114">
        <ele>615.6</ele>
        <time>2021-02-11T14:31:59Z</time>
      </trkpt>
      <trkpt lat="46.86106" lon="5.94121">
        <ele>615.5</ele>
        <time>2021-02-11T14:32:03Z</time>
      </trkpt>
      <trkpt lat="46.86105" lon="5.94128">
        <ele>615.3</ele>
        <time>2021-02-11T14:32:07Z</time>
      </trkpt>
      <trkpt lat="46.86104" lon="5.94134">
        <ele>615.2</ele>
        <time>2021-02-11T14:32:11Z</time>
      </trkpt>
      <trkpt lat="46.86103" lon="5.94141">
        <ele>615.3</ele>
        <time>2021-02-11T14:32:15Z</time>
      </trkpt>
      <trkpt lat="46.86102" lon="5.94148">
        <ele>615.7</ele>
        <time>2021-02-11T14:32:20Z</time>
      </trkpt>
      <trkpt lat="46.86101" lon="5.94156">
        <ele>616</ele>
        <time>2021-02-11T14:32:25Z</time>
      </trkpt>
      <trkpt lat="46.861" lon="5.94163">
        <ele>616.2</ele>
        <time>2021-02-11T14:32:29Z</time>
      </trkpt>
      <trkpt lat="46.86099" lon="5.94169">
        <ele>616.4</ele>
        <time>2021-02-11T14:32:33Z</time>
      </trkpt>
      <trkpt lat="46.86098" lon="5.94176">
        <ele>616.6</ele>
        <time>2021-02-11T14:32:37Z</time>
      </trkpt>
      <trkpt lat="46.86097" lon="5.94184">
        <ele>616.7</ele>
        <time>2021-02-11T14:32:42Z</time>
      </trkpt>
      <trkpt lat="46.86097" lon="5.9419">
        <ele>616.5</ele>
        <time>2021-02-11T14:32:46Z</time>
      </trkpt>
      <trkpt lat="46.86096" lon="5.94197">
        <ele>616.2</ele>
        <time>2021-02-11T14:32:50Z</time>
      </trkpt>
      <trkpt lat="46.86096" lon="5.94204">
        <ele>615.5</ele>
        <time>2021-02-11T14:32:55Z</time>
      </trkpt>
      <trkpt lat="46.86095" lon="5.94211">
        <ele>614.9</ele>
        <time>2021-02-11T14:32:59Z</time>
      </trkpt>
      <trkpt lat="46.86095" lon="5.94219">
        <ele>614.3</ele>
        <time>2021-02-11T14:33:04Z</time>
      </trkpt>
      <trkpt lat="46.86095" lon="5.94226">
        <ele>614</ele>
        <time>2021-02-11T14:33:09Z</time>
      </trkpt>
      <trkpt lat="46.86095" lon="5.94233">
        <ele>613.8</ele>
        <time>2021-02-11T14:33:13Z</time>
      </trkpt>
      <trkpt lat="46.86095" lon="5.94241">
        <ele>613.8</ele>
        <time>2021-02-11T14:33:18Z</time>
      </trkpt>
      <trkpt lat="46.86095" lon="5.94249">
        <ele>613.5</ele>
        <time>2021-02-11T14:33:23Z</time>
      </trkpt>
      <trkpt lat="46.86094" lon="5.94257">
        <ele>613</ele>
        <time>2021-02-11T14:33:28Z</time>
      </trkpt>
      <trkpt lat="46.86094" lon="5.94265">
        <ele>612.8</ele>
        <time>2021-02-11T14:33:33Z</time>
      </trkpt>
      <trkpt lat="46.86094" lon="5.94272">
        <ele>612.4</ele>
        <time>2021-02-11T14:33:42Z</time>
      </trkpt>
      <trkpt lat="46.86093" lon="5.9428">
        <ele>612.2</ele>
        <time>2021-02-11T14:33:47Z</time>
      </trkpt>
      <trkpt lat="46.86093" lon="5.94288">
        <ele>612</ele>
        <time>2021-02-11T14:33:52Z</time>
      </trkpt>
      <trkpt lat="46.86092" lon="5.94295">
        <ele>612.2</ele>
        <time>2021-02-11T14:33:57Z</time>
      </trkpt>
      <trkpt lat="46.86092" lon="5.94303">
        <ele>612.5</ele>
        <time>2021-02-11T14:34:02Z</time>
      </trkpt>
      <trkpt lat="46.8609" lon="5.9431">
        <ele>612.8</ele>
        <time>2021-02-11T14:34:07Z</time>
      </trkpt>
      <trkpt lat="46.86088" lon="5.94317">
        <ele>613.3</ele>
        <time>2021-02-11T14:34:12Z</time>
      </trkpt>
      <trkpt lat="46.86086" lon="5.94323">
        <ele>614</ele>
        <time>2021-02-11T14:34:17Z</time>
      </trkpt>
      <trkpt lat="46.86084" lon="5.9433">
        <ele>614.7</ele>
        <time>2021-02-11T14:34:22Z</time>
      </trkpt>
      <trkpt lat="46.86082" lon="5.94337">
        <ele>615</ele>
        <time>2021-02-11T14:34:27Z</time>
      </trkpt>
      <trkpt lat="46.8608" lon="5.94344">
        <ele>615.4</ele>
        <time>2021-02-11T14:34:32Z</time>
      </trkpt>
      <trkpt lat="46.86077" lon="5.9435">
        <ele>615.5</ele>
        <time>2021-02-11T14:34:37Z</time>
      </trkpt>
      <trkpt lat="46.86076" lon="5.94357">
        <ele>615.3</ele>
        <time>2021-02-11T14:34:55Z</time>
      </trkpt>
      <trkpt lat="46.86074" lon="5.94363">
        <ele>615.6</ele>
        <time>2021-02-11T14:35:01Z</time>
      </trkpt>
      <trkpt lat="46.86072" lon="5.9437">
        <ele>615.9</ele>
        <time>2021-02-11T14:35:06Z</time>
      </trkpt>
      <trkpt lat="46.86071" lon="5.94377">
        <ele>615.9</ele>
        <time>2021-02-11T14:35:11Z</time>
      </trkpt>
      <trkpt lat="46.86068" lon="5.94383">
        <ele>615.9</ele>
        <time>2021-02-11T14:35:16Z</time>
      </trkpt>
      <trkpt lat="46.86065" lon="5.9439">
        <ele>616.3</ele>
        <time>2021-02-11T14:35:21Z</time>
      </trkpt>
      <trkpt lat="46.86063" lon="5.94397">
        <ele>616.4</ele>
        <time>2021-02-11T14:35:26Z</time>
      </trkpt>
      <trkpt lat="46.86061" lon="5.94404">
        <ele>616.5</ele>
        <time>2021-02-11T14:35:31Z</time>
      </trkpt>
      <trkpt lat="46.86058" lon="5.94411">
        <ele>616.8</ele>
        <time>2021-02-11T14:35:36Z</time>
      </trkpt>
      <trkpt lat="46.86056" lon="5.94417">
        <ele>617.1</ele>
        <time>2021-02-11T14:35:41Z</time>
      </trkpt>
      <trkpt lat="46.86054" lon="5.94423">
        <ele>617.7</ele>
        <time>2021-02-11T14:35:47Z</time>
      </trkpt>
      <trkpt lat="46.86052" lon="5.9443">
        <ele>618.3</ele>
        <time>2021-02-11T14:35:52Z</time>
      </trkpt>
      <trkpt lat="46.8605" lon="5.94436">
        <ele>618.8</ele>
        <time>2021-02-11T14:35:58Z</time>
      </trkpt>
      <trkpt lat="46.86049" lon="5.94443">
        <ele>619.2</ele>
        <time>2021-02-11T14:36:04Z</time>
      </trkpt>
      <trkpt lat="46.86048" lon="5.94449">
        <ele>619.6</ele>
        <time>2021-02-11T14:36:09Z</time>
      </trkpt>
      <trkpt lat="46.86045" lon="5.94456">
        <ele>620.2</ele>
        <time>2021-02-11T14:36:14Z</time>
      </trkpt>
      <trkpt lat="46.86043" lon="5.94463">
        <ele>621</ele>
        <time>2021-02-11T14:36:20Z</time>
      </trkpt>
      <trkpt lat="46.86039" lon="5.94467">
        <ele>621.9</ele>
        <time>2021-02-11T14:36:27Z</time>
      </trkpt>
      <trkpt lat="46.86036" lon="5.94473">
        <ele>622.6</ele>
        <time>2021-02-11T14:36:33Z</time>
      </trkpt>
      <trkpt lat="46.86034" lon="5.94479">
        <ele>622.7</ele>
        <time>2021-02-11T14:36:39Z</time>
      </trkpt>
      <trkpt lat="46.86032" lon="5.94486">
        <ele>622.6</ele>
        <time>2021-02-11T14:36:44Z</time>
      </trkpt>
      <trkpt lat="46.86029" lon="5.94492">
        <ele>622.7</ele>
        <time>2021-02-11T14:36:49Z</time>
      </trkpt>
      <trkpt lat="46.86025" lon="5.94495">
        <ele>622.7</ele>
        <time>2021-02-11T14:36:55Z</time>
      </trkpt>
      <trkpt lat="46.86023" lon="5.94501">
        <ele>623.4</ele>
        <time>2021-02-11T14:37:05Z</time>
      </trkpt>
      <trkpt lat="46.86022" lon="5.94508">
        <ele>624.3</ele>
        <time>2021-02-11T14:37:11Z</time>
      </trkpt>
      <trkpt lat="46.8602" lon="5.94514">
        <ele>625.2</ele>
        <time>2021-02-11T14:37:17Z</time>
      </trkpt>
      <trkpt lat="46.86018" lon="5.9452">
        <ele>625.9</ele>
        <time>2021-02-11T14:37:23Z</time>
      </trkpt>
      <trkpt lat="46.86015" lon="5.94526">
        <ele>626.4</ele>
        <time>2021-02-11T14:37:28Z</time>
      </trkpt>
      <trkpt lat="46.86013" lon="5.94533">
        <ele>626.6</ele>
        <time>2021-02-11T14:37:33Z</time>
      </trkpt>
      <trkpt lat="46.86011" lon="5.94539">
        <ele>626.8</ele>
        <time>2021-02-11T14:37:38Z</time>
      </trkpt>
      <trkpt lat="46.8601" lon="5.94545">
        <ele>627.1</ele>
        <time>2021-02-11T14:37:44Z</time>
      </trkpt>
      <trkpt lat="46.86009" lon="5.94553">
        <ele>627.3</ele>
        <time>2021-02-11T14:37:51Z</time>
      </trkpt>
      <trkpt lat="46.86006" lon="5.94558">
        <ele>627.7</ele>
        <time>2021-02-11T14:37:56Z</time>
      </trkpt>
      <trkpt lat="46.86004" lon="5.94564">
        <ele>628.3</ele>
        <time>2021-02-11T14:38:01Z</time>
      </trkpt>
      <trkpt lat="46.86001" lon="5.9457">
        <ele>629.3</ele>
        <time>2021-02-11T14:38:07Z</time>
      </trkpt>
      <trkpt lat="46.85998" lon="5.94577">
        <ele>630.6</ele>
        <time>2021-02-11T14:38:14Z</time>
      </trkpt>
      <trkpt lat="46.85996" lon="5.94584">
        <ele>631.4</ele>
        <time>2021-02-11T14:38:20Z</time>
      </trkpt>
      <trkpt lat="46.85995" lon="5.94591">
        <ele>632</ele>
        <time>2021-02-11T14:38:25Z</time>
      </trkpt>
      <trkpt lat="46.85993" lon="5.94597">
        <ele>632.7</ele>
        <time>2021-02-11T14:38:30Z</time>
      </trkpt>
      <trkpt lat="46.85991" lon="5.94603">
        <ele>633.6</ele>
        <time>2021-02-11T14:38:36Z</time>
      </trkpt>
      <trkpt lat="46.85989" lon="5.94609">
        <ele>633.9</ele>
        <time>2021-02-11T14:38:42Z</time>
      </trkpt>
      <trkpt lat="46.85986" lon="5.94615">
        <ele>634.3</ele>
        <time>2021-02-11T14:38:48Z</time>
      </trkpt>
      <trkpt lat="46.85983" lon="5.94621">
        <ele>634.9</ele>
        <time>2021-02-11T14:38:54Z</time>
      </trkpt>
      <trkpt lat="46.85981" lon="5.94627">
        <ele>635.6</ele>
        <time>2021-02-11T14:39:00Z</time>
      </trkpt>
      <trkpt lat="46.85979" lon="5.94633">
        <ele>636.2</ele>
        <time>2021-02-11T14:39:06Z</time>
      </trkpt>
      <trkpt lat="46.85976" lon="5.94639">
        <ele>636.7</ele>
        <time>2021-02-11T14:39:12Z</time>
      </trkpt>
      <trkpt lat="46.85973" lon="5.94644">
        <ele>637.3</ele>
        <time>2021-02-11T14:39:18Z</time>
      </trkpt>
      <trkpt lat="46.8597" lon="5.94649">
        <ele>637.8</ele>
        <time>2021-02-11T14:39:24Z</time>
      </trkpt>
      <trkpt lat="46.85966" lon="5.94653">
        <ele>638.5</ele>
        <time>2021-02-11T14:39:29Z</time>
      </trkpt>
      <trkpt lat="46.85963" lon="5.94657">
        <ele>639.2</ele>
        <time>2021-02-11T14:39:34Z</time>
      </trkpt>
      <trkpt lat="46.85959" lon="5.94661">
        <ele>639.7</ele>
        <time>2021-02-11T14:39:39Z</time>
      </trkpt>
      <trkpt lat="46.85955" lon="5.94666">
        <ele>640.2</ele>
        <time>2021-02-11T14:39:44Z</time>
      </trkpt>
      <trkpt lat="46.85952" lon="5.9467">
        <ele>641</ele>
        <time>2021-02-11T14:39:49Z</time>
      </trkpt>
      <trkpt lat="46.85948" lon="5.94675">
        <ele>642</ele>
        <time>2021-02-11T14:39:55Z</time>
      </trkpt>
      <trkpt lat="46.85945" lon="5.94681">
        <ele>643</ele>
        <time>2021-02-11T14:40:01Z</time>
      </trkpt>
      <trkpt lat="46.85943" lon="5.94687">
        <ele>643.9</ele>
        <time>2021-02-11T14:40:07Z</time>
      </trkpt>
      <trkpt lat="46.85939" lon="5.94691">
        <ele>644.6</ele>
        <time>2021-02-11T14:40:14Z</time>
      </trkpt>
      <trkpt lat="46.85934" lon="5.94693">
        <ele>644.9</ele>
        <time>2021-02-11T14:40:20Z</time>
      </trkpt>
      <trkpt lat="46.8593" lon="5.94696">
        <ele>646.3</ele>
        <time>2021-02-11T14:40:41Z</time>
      </trkpt>
      <trkpt lat="46.85925" lon="5.94697">
        <ele>647.4</ele>
        <time>2021-02-11T14:40:48Z</time>
      </trkpt>
      <trkpt lat="46.8592" lon="5.947">
        <ele>648.1</ele>
        <time>2021-02-11T14:40:54Z</time>
      </trkpt>
      <trkpt lat="46.85916" lon="5.94702">
        <ele>648.6</ele>
        <time>2021-02-11T14:40:59Z</time>
      </trkpt>
      <trkpt lat="46.8591" lon="5.94702">
        <ele>649</ele>
        <time>2021-02-11T14:41:05Z</time>
      </trkpt>
      <trkpt lat="46.85906" lon="5.94702">
        <ele>649.2</ele>
        <time>2021-02-11T14:41:09Z</time>
      </trkpt>
      <trkpt lat="46.85901" lon="5.94703">
        <ele>649.3</ele>
        <time>2021-02-11T14:41:13Z</time>
      </trkpt>
      <trkpt lat="46.85896" lon="5.94705">
        <ele>649.6</ele>
        <time>2021-02-11T14:41:18Z</time>
      </trkpt>
      <trkpt lat="46.85891" lon="5.94707">
        <ele>650</ele>
        <time>2021-02-11T14:41:23Z</time>
      </trkpt>
      <trkpt lat="46.85887" lon="5.9471">
        <ele>650.7</ele>
        <time>2021-02-11T14:41:28Z</time>
      </trkpt>
      <trkpt lat="46.85882" lon="5.94712">
        <ele>651.5</ele>
        <time>2021-02-11T14:41:33Z</time>
      </trkpt>
      <trkpt lat="46.85877" lon="5.94713">
        <ele>652.6</ele>
        <time>2021-02-11T14:41:39Z</time>
      </trkpt>
      <trkpt lat="46.85873" lon="5.94709">
        <ele>653.7</ele>
        <time>2021-02-11T14:41:47Z</time>
      </trkpt>
      <trkpt lat="46.85874" lon="5.94716">
        <ele>652</ele>
        <time>2021-02-11T14:43:23Z</time>
      </trkpt>
      <trkpt lat="46.8587" lon="5.94722">
        <ele>652.8</ele>
        <time>2021-02-11T14:43:28Z</time>
      </trkpt>
      <trkpt lat="46.85867" lon="5.94728">
        <ele>653.4</ele>
        <time>2021-02-11T14:43:33Z</time>
      </trkpt>
      <trkpt lat="46.85863" lon="5.94733">
        <ele>654.2</ele>
        <time>2021-02-11T14:43:38Z</time>
      </trkpt>
      <trkpt lat="46.8586" lon="5.94739">
        <ele>654.9</ele>
        <time>2021-02-11T14:43:44Z</time>
      </trkpt>
      <trkpt lat="46.85858" lon="5.94746">
        <ele>655.4</ele>
        <time>2021-02-11T14:43:49Z</time>
      </trkpt>
      <trkpt lat="46.85855" lon="5.94752">
        <ele>656</ele>
        <time>2021-02-11T14:43:53Z</time>
      </trkpt>
      <trkpt lat="46.85853" lon="5.94759">
        <ele>656.5</ele>
        <time>2021-02-11T14:43:57Z</time>
      </trkpt>
      <trkpt lat="46.85851" lon="5.94766">
        <ele>657.1</ele>
        <time>2021-02-11T14:44:02Z</time>
      </trkpt>
      <trkpt lat="46.85849" lon="5.94773">
        <ele>658</ele>
        <time>2021-02-11T14:44:06Z</time>
      </trkpt>
      <trkpt lat="46.85848" lon="5.94779">
        <ele>659</ele>
        <time>2021-02-11T14:44:10Z</time>
      </trkpt>
      <trkpt lat="46.85846" lon="5.94786">
        <ele>660.3</ele>
        <time>2021-02-11T14:44:15Z</time>
      </trkpt>
      <trkpt lat="46.85843" lon="5.94793">
        <ele>661.2</ele>
        <time>2021-02-11T14:44:20Z</time>
      </trkpt>
      <trkpt lat="46.85841" lon="5.94801">
        <ele>662</ele>
        <time>2021-02-11T14:44:25Z</time>
      </trkpt>
      <trkpt lat="46.85838" lon="5.94807">
        <ele>662.5</ele>
        <time>2021-02-11T14:44:30Z</time>
      </trkpt>
      <trkpt lat="46.85835" lon="5.94812">
        <ele>662.8</ele>
        <time>2021-02-11T14:44:34Z</time>
      </trkpt>
      <trkpt lat="46.8583" lon="5.94816">
        <ele>663.3</ele>
        <time>2021-02-11T14:44:39Z</time>
      </trkpt>
      <trkpt lat="46.85826" lon="5.94819">
        <ele>663.7</ele>
        <time>2021-02-11T14:44:43Z</time>
      </trkpt>
      <trkpt lat="46.85821" lon="5.94822">
        <ele>664.1</ele>
        <time>2021-02-11T14:44:48Z</time>
      </trkpt>
      <trkpt lat="46.85816" lon="5.94825">
        <ele>664.3</ele>
        <time>2021-02-11T14:44:53Z</time>
      </trkpt>
      <trkpt lat="46.85811" lon="5.94827">
        <ele>664</ele>
        <time>2021-02-11T14:44:58Z</time>
      </trkpt>
      <trkpt lat="46.85806" lon="5.94829">
        <ele>663.8</ele>
        <time>2021-02-11T14:45:03Z</time>
      </trkpt>
      <trkpt lat="46.85801" lon="5.9483">
        <ele>663.6</ele>
        <time>2021-02-11T14:45:08Z</time>
      </trkpt>
      <trkpt lat="46.85795" lon="5.94832">
        <ele>663.4</ele>
        <time>2021-02-11T14:45:13Z</time>
      </trkpt>
      <trkpt lat="46.8579" lon="5.94833">
        <ele>663.2</ele>
        <time>2021-02-11T14:45:18Z</time>
      </trkpt>
      <trkpt lat="46.85785" lon="5.94834">
        <ele>663.2</ele>
        <time>2021-02-11T14:45:23Z</time>
      </trkpt>
      <trkpt lat="46.8578" lon="5.94835">
        <ele>663.6</ele>
        <time>2021-02-11T14:45:28Z</time>
      </trkpt>
      <trkpt lat="46.85775" lon="5.94838">
        <ele>664.5</ele>
        <time>2021-02-11T14:45:33Z</time>
      </trkpt>
      <trkpt lat="46.85769" lon="5.94839">
        <ele>665.4</ele>
        <time>2021-02-11T14:45:38Z</time>
      </trkpt>
      <trkpt lat="46.85765" lon="5.94841">
        <ele>666.1</ele>
        <time>2021-02-11T14:45:42Z</time>
      </trkpt>
      <trkpt lat="46.8576" lon="5.94842">
        <ele>666.4</ele>
        <time>2021-02-11T14:45:46Z</time>
      </trkpt>
      <trkpt lat="46.85755" lon="5.94843">
        <ele>666.5</ele>
        <time>2021-02-11T14:45:51Z</time>
      </trkpt>
      <trkpt lat="46.8575" lon="5.94845">
        <ele>666.4</ele>
        <time>2021-02-11T14:45:57Z</time>
      </trkpt>
      <trkpt lat="46.85746" lon="5.94846">
        <ele>664.4</ele>
        <time>2021-02-11T14:46:19Z</time>
      </trkpt>
      <trkpt lat="46.85741" lon="5.94848">
        <ele>664.5</ele>
        <time>2021-02-11T14:46:25Z</time>
      </trkpt>
      <trkpt lat="46.85737" lon="5.9485">
        <ele>664.6</ele>
        <time>2021-02-11T14:46:30Z</time>
      </trkpt>
      <trkpt lat="46.85732" lon="5.94853">
        <ele>664.5</ele>
        <time>2021-02-11T14:46:35Z</time>
      </trkpt>
      <trkpt lat="46.85728" lon="5.94855">
        <ele>664.4</ele>
        <time>2021-02-11T14:46:40Z</time>
      </trkpt>
      <trkpt lat="46.85724" lon="5.94859">
        <ele>664.2</ele>
        <time>2021-02-11T14:46:45Z</time>
      </trkpt>
      <trkpt lat="46.8572" lon="5.94862">
        <ele>664</ele>
        <time>2021-02-11T14:46:50Z</time>
      </trkpt>
      <trkpt lat="46.85715" lon="5.94864">
        <ele>663.8</ele>
        <time>2021-02-11T14:46:55Z</time>
      </trkpt>
      <trkpt lat="46.8571" lon="5.94862">
        <ele>664.1</ele>
        <time>2021-02-11T14:48:24Z</time>
      </trkpt>
      <trkpt lat="46.85705" lon="5.94862">
        <ele>665.2</ele>
        <time>2021-02-11T14:48:30Z</time>
      </trkpt>
      <trkpt lat="46.857" lon="5.94861">
        <ele>666</ele>
        <time>2021-02-11T14:48:35Z</time>
      </trkpt>
      <trkpt lat="46.85695" lon="5.94862">
        <ele>666.7</ele>
        <time>2021-02-11T14:48:40Z</time>
      </trkpt>
      <trkpt lat="46.8569" lon="5.94862">
        <ele>667.2</ele>
        <time>2021-02-11T14:48:45Z</time>
      </trkpt>
      <trkpt lat="46.85685" lon="5.94861">
        <ele>666.9</ele>
        <time>2021-02-11T14:48:50Z</time>
      </trkpt>
      <trkpt lat="46.8568" lon="5.94862">
        <ele>666.3</ele>
        <time>2021-02-11T14:48:55Z</time>
      </trkpt>
      <trkpt lat="46.85675" lon="5.94863">
        <ele>665.6</ele>
        <time>2021-02-11T14:49:00Z</time>
      </trkpt>
      <trkpt lat="46.8567" lon="5.94865">
        <ele>665.1</ele>
        <time>2021-02-11T14:49:05Z</time>
      </trkpt>
      <trkpt lat="46.85665" lon="5.94864">
        <ele>664.9</ele>
        <time>2021-02-11T14:49:10Z</time>
      </trkpt>
      <trkpt lat="46.85661" lon="5.94864">
        <ele>662.8</ele>
        <time>2021-02-11T14:49:17Z</time>
      </trkpt>
      <trkpt lat="46.85656" lon="5.94866">
        <ele>660.8</ele>
        <time>2021-02-11T14:49:24Z</time>
      </trkpt>
      <trkpt lat="46.85651" lon="5.94868">
        <ele>658.8</ele>
        <time>2021-02-11T14:49:30Z</time>
      </trkpt>
      <trkpt lat="46.85646" lon="5.94869">
        <ele>657.4</ele>
        <time>2021-02-11T14:49:35Z</time>
      </trkpt>
      <trkpt lat="46.8564" lon="5.94868">
        <ele>656.8</ele>
        <time>2021-02-11T14:49:40Z</time>
      </trkpt>
      <trkpt lat="46.85635" lon="5.94868">
        <ele>657.1</ele>
        <time>2021-02-11T14:49:44Z</time>
      </trkpt>
      <trkpt lat="46.8563" lon="5.94868">
        <ele>657.7</ele>
        <time>2021-02-11T14:49:49Z</time>
      </trkpt>
      <trkpt lat="46.85625" lon="5.94868">
        <ele>658.4</ele>
        <time>2021-02-11T14:49:54Z</time>
      </trkpt>
      <trkpt lat="46.85619" lon="5.94867">
        <ele>659.3</ele>
        <time>2021-02-11T14:49:59Z</time>
      </trkpt>
      <trkpt lat="46.85615" lon="5.94864">
        <ele>660.6</ele>
        <time>2021-02-11T14:50:04Z</time>
      </trkpt>
      <trkpt lat="46.8561" lon="5.94864">
        <ele>662.6</ele>
        <time>2021-02-11T14:50:18Z</time>
      </trkpt>
      <trkpt lat="46.85605" lon="5.94863">
        <ele>663.1</ele>
        <time>2021-02-11T14:50:25Z</time>
      </trkpt>
      <trkpt lat="46.85601" lon="5.9486">
        <ele>663.5</ele>
        <time>2021-02-11T14:50:32Z</time>
      </trkpt>
      <trkpt lat="46.85596" lon="5.94857">
        <ele>664</ele>
        <time>2021-02-11T14:50:37Z</time>
      </trkpt>
      <trkpt lat="46.85591" lon="5.94854">
        <ele>664.3</ele>
        <time>2021-02-11T14:50:42Z</time>
      </trkpt>
      <trkpt lat="46.85587" lon="5.94851">
        <ele>664.7</ele>
        <time>2021-02-11T14:50:47Z</time>
      </trkpt>
      <trkpt lat="46.85582" lon="5.94848">
        <ele>664.9</ele>
        <time>2021-02-11T14:50:53Z</time>
      </trkpt>
      <trkpt lat="46.85577" lon="5.94845">
        <ele>664.8</ele>
        <time>2021-02-11T14:50:58Z</time>
      </trkpt>
      <trkpt lat="46.85573" lon="5.94841">
        <ele>664.6</ele>
        <time>2021-02-11T14:51:03Z</time>
      </trkpt>
      <trkpt lat="46.85569" lon="5.94837">
        <ele>664.2</ele>
        <time>2021-02-11T14:51:08Z</time>
      </trkpt>
      <trkpt lat="46.85565" lon="5.94832">
        <ele>663.1</ele>
        <time>2021-02-11T14:51:15Z</time>
      </trkpt>
      <trkpt lat="46.8556" lon="5.94829">
        <ele>662.4</ele>
        <time>2021-02-11T14:51:20Z</time>
      </trkpt>
      <trkpt lat="46.85556" lon="5.94826">
        <ele>661.9</ele>
        <time>2021-02-11T14:51:24Z</time>
      </trkpt>
      <trkpt lat="46.85551" lon="5.94823">
        <ele>661.6</ele>
        <time>2021-02-11T14:51:28Z</time>
      </trkpt>
      <trkpt lat="46.85546" lon="5.9482">
        <ele>661.3</ele>
        <time>2021-02-11T14:51:33Z</time>
      </trkpt>
      <trkpt lat="46.85542" lon="5.94817">
        <ele>661.1</ele>
        <time>2021-02-11T14:51:38Z</time>
      </trkpt>
      <trkpt lat="46.85538" lon="5.94814">
        <ele>660.9</ele>
        <time>2021-02-11T14:51:43Z</time>
      </trkpt>
      <trkpt lat="46.85533" lon="5.94811">
        <ele>660.6</ele>
        <time>2021-02-11T14:51:48Z</time>
      </trkpt>
      <trkpt lat="46.85528" lon="5.94808">
        <ele>660.6</ele>
        <time>2021-02-11T14:51:53Z</time>
      </trkpt>
      <trkpt lat="46.85523" lon="5.94805">
        <ele>660.6</ele>
        <time>2021-02-11T14:51:58Z</time>
      </trkpt>
      <trkpt lat="46.8552" lon="5.94801">
        <ele>660.4</ele>
        <time>2021-02-11T14:52:03Z</time>
      </trkpt>
      <trkpt lat="46.85515" lon="5.94798">
        <ele>660</ele>
        <time>2021-02-11T14:52:08Z</time>
      </trkpt>
      <trkpt lat="46.85511" lon="5.94795">
        <ele>659.9</ele>
        <time>2021-02-11T14:52:13Z</time>
      </trkpt>
      <trkpt lat="46.85506" lon="5.94791">
        <ele>659.7</ele>
        <time>2021-02-11T14:52:18Z</time>
      </trkpt>
      <trkpt lat="46.85501" lon="5.94788">
        <ele>659.2</ele>
        <time>2021-02-11T14:52:23Z</time>
      </trkpt>
      <trkpt lat="46.85496" lon="5.94785">
        <ele>658.5</ele>
        <time>2021-02-11T14:52:28Z</time>
      </trkpt>
      <trkpt lat="46.85491" lon="5.94781">
        <ele>657.9</ele>
        <time>2021-02-11T14:52:33Z</time>
      </trkpt>
      <trkpt lat="46.85487" lon="5.94777">
        <ele>657.5</ele>
        <time>2021-02-11T14:52:38Z</time>
      </trkpt>
      <trkpt lat="46.85483" lon="5.94775">
        <ele>657.5</ele>
        <time>2021-02-11T14:52:43Z</time>
      </trkpt>
      <trkpt lat="46.85478" lon="5.94772">
        <ele>657.6</ele>
        <time>2021-02-11T14:52:48Z</time>
      </trkpt>
      <trkpt lat="46.85473" lon="5.9477">
        <ele>657.5</ele>
        <time>2021-02-11T14:52:53Z</time>
      </trkpt>
      <trkpt lat="46.85469" lon="5.94766">
        <ele>657.1</ele>
        <time>2021-02-11T14:52:58Z</time>
      </trkpt>
      <trkpt lat="46.85464" lon="5.94762">
        <ele>656.8</ele>
        <time>2021-02-11T14:53:03Z</time>
      </trkpt>
      <trkpt lat="46.85459" lon="5.9476">
        <ele>656.6</ele>
        <time>2021-02-11T14:53:14Z</time>
      </trkpt>
      <trkpt lat="46.85455" lon="5.94756">
        <ele>656</ele>
        <time>2021-02-11T14:53:19Z</time>
      </trkpt>
      <trkpt lat="46.8545" lon="5.94754">
        <ele>655.4</ele>
        <time>2021-02-11T14:53:24Z</time>
      </trkpt>
      <trkpt lat="46.85445" lon="5.94751">
        <ele>654.9</ele>
        <time>2021-02-11T14:53:29Z</time>
      </trkpt>
      <trkpt lat="46.85441" lon="5.94749">
        <ele>654.7</ele>
        <time>2021-02-11T14:53:33Z</time>
      </trkpt>
      <trkpt lat="46.85436" lon="5.94748">
        <ele>654.5</ele>
        <time>2021-02-11T14:53:37Z</time>
      </trkpt>
      <trkpt lat="46.85431" lon="5.94747">
        <ele>654.8</ele>
        <time>2021-02-11T14:53:42Z</time>
      </trkpt>
      <trkpt lat="46.85426" lon="5.94746">
        <ele>655.4</ele>
        <time>2021-02-11T14:53:47Z</time>
      </trkpt>
      <trkpt lat="46.8542" lon="5.94745">
        <ele>656</ele>
        <time>2021-02-11T14:53:52Z</time>
      </trkpt>
      <trkpt lat="46.85415" lon="5.94744">
        <ele>656.7</ele>
        <time>2021-02-11T14:53:57Z</time>
      </trkpt>
      <trkpt lat="46.8541" lon="5.94743">
        <ele>657.4</ele>
        <time>2021-02-11T14:54:02Z</time>
      </trkpt>
      <trkpt lat="46.85405" lon="5.94743">
        <ele>657.7</ele>
        <time>2021-02-11T14:54:06Z</time>
      </trkpt>
      <trkpt lat="46.854" lon="5.94742">
        <ele>658.1</ele>
        <time>2021-02-11T14:54:10Z</time>
      </trkpt>
      <trkpt lat="46.85395" lon="5.9474">
        <ele>658.5</ele>
        <time>2021-02-11T14:54:15Z</time>
      </trkpt>
      <trkpt lat="46.85391" lon="5.94739">
        <ele>659.2</ele>
        <time>2021-02-11T14:54:23Z</time>
      </trkpt>
      <trkpt lat="46.85386" lon="5.94738">
        <ele>659.4</ele>
        <time>2021-02-11T14:54:28Z</time>
      </trkpt>
      <trkpt lat="46.85381" lon="5.94737">
        <ele>659.2</ele>
        <time>2021-02-11T14:54:33Z</time>
      </trkpt>
      <trkpt lat="46.85376" lon="5.94737">
        <ele>658.8</ele>
        <time>2021-02-11T14:54:38Z</time>
      </trkpt>
      <trkpt lat="46.8537" lon="5.94736">
        <ele>658.2</ele>
        <time>2021-02-11T14:54:43Z</time>
      </trkpt>
      <trkpt lat="46.85365" lon="5.94734">
        <ele>657.7</ele>
        <time>2021-02-11T14:54:48Z</time>
      </trkpt>
      <trkpt lat="46.8536" lon="5.94734">
        <ele>657.2</ele>
        <time>2021-02-11T14:54:53Z</time>
      </trkpt>
      <trkpt lat="46.85354" lon="5.94733">
        <ele>657</ele>
        <time>2021-02-11T14:54:58Z</time>
      </trkpt>
      <trkpt lat="46.85349" lon="5.94732">
        <ele>656.8</ele>
        <time>2021-02-11T14:55:03Z</time>
      </trkpt>
      <trkpt lat="46.85344" lon="5.94731">
        <ele>656.5</ele>
        <time>2021-02-11T14:55:08Z</time>
      </trkpt>
      <trkpt lat="46.85339" lon="5.9473">
        <ele>656.2</ele>
        <time>2021-02-11T14:55:13Z</time>
      </trkpt>
      <trkpt lat="46.85334" lon="5.9473">
        <ele>656</ele>
        <time>2021-02-11T14:55:18Z</time>
      </trkpt>
      <trkpt lat="46.85329" lon="5.94729">
        <ele>655.8</ele>
        <time>2021-02-11T14:55:23Z</time>
      </trkpt>
      <trkpt lat="46.85323" lon="5.94729">
        <ele>655.6</ele>
        <time>2021-02-11T14:55:28Z</time>
      </trkpt>
      <trkpt lat="46.85318" lon="5.94728">
        <ele>655.4</ele>
        <time>2021-02-11T14:55:33Z</time>
      </trkpt>
      <trkpt lat="46.85312" lon="5.94727">
        <ele>655.5</ele>
        <time>2021-02-11T14:55:38Z</time>
      </trkpt>
      <trkpt lat="46.85307" lon="5.94726">
        <ele>655.7</ele>
        <time>2021-02-11T14:55:43Z</time>
      </trkpt>
      <trkpt lat="46.85301" lon="5.94725">
        <ele>655.9</ele>
        <time>2021-02-11T14:55:48Z</time>
      </trkpt>
      <trkpt lat="46.85297" lon="5.94725">
        <ele>656.1</ele>
        <time>2021-02-11T14:55:52Z</time>
      </trkpt>
      <trkpt lat="46.85292" lon="5.94724">
        <ele>656.3</ele>
        <time>2021-02-11T14:55:57Z</time>
      </trkpt>
      <trkpt lat="46.85286" lon="5.94723">
        <ele>656.3</ele>
        <time>2021-02-11T14:56:02Z</time>
      </trkpt>
      <trkpt lat="46.85281" lon="5.94722">
        <ele>656.2</ele>
        <time>2021-02-11T14:56:07Z</time>
      </trkpt>
      <trkpt lat="46.85276" lon="5.94722">
        <ele>655.7</ele>
        <time>2021-02-11T14:56:12Z</time>
      </trkpt>
      <trkpt lat="46.85271" lon="5.94722">
        <ele>655.1</ele>
        <time>2021-02-11T14:56:17Z</time>
      </trkpt>
      <trkpt lat="46.85266" lon="5.9472">
        <ele>654.4</ele>
        <time>2021-02-11T14:56:22Z</time>
      </trkpt>
      <trkpt lat="46.85261" lon="5.94719">
        <ele>653.9</ele>
        <time>2021-02-11T14:56:27Z</time>
      </trkpt>
      <trkpt lat="46.85256" lon="5.94719">
        <ele>653.4</ele>
        <time>2021-02-11T14:56:31Z</time>
      </trkpt>
      <trkpt lat="46.85251" lon="5.94718">
        <ele>653</ele>
        <time>2021-02-11T14:56:36Z</time>
      </trkpt>
      <trkpt lat="46.85246" lon="5.94717">
        <ele>653</ele>
        <time>2021-02-11T14:56:40Z</time>
      </trkpt>
      <trkpt lat="46.85242" lon="5.94716">
        <ele>652.8</ele>
        <time>2021-02-11T14:56:44Z</time>
      </trkpt>
      <trkpt lat="46.85237" lon="5.94715">
        <ele>652.8</ele>
        <time>2021-02-11T14:56:48Z</time>
      </trkpt>
      <trkpt lat="46.85232" lon="5.94715">
        <ele>652.7</ele>
        <time>2021-02-11T14:56:53Z</time>
      </trkpt>
      <trkpt lat="46.85227" lon="5.94713">
        <ele>652.6</ele>
        <time>2021-02-11T14:56:58Z</time>
      </trkpt>
      <trkpt lat="46.85222" lon="5.94713">
        <ele>652.3</ele>
        <time>2021-02-11T14:57:03Z</time>
      </trkpt>
      <trkpt lat="46.85217" lon="5.94714">
        <ele>652.1</ele>
        <time>2021-02-11T14:57:08Z</time>
      </trkpt>
      <trkpt lat="46.85212" lon="5.94714">
        <ele>651.8</ele>
        <time>2021-02-11T14:57:13Z</time>
      </trkpt>
      <trkpt lat="46.85206" lon="5.94713">
        <ele>651.3</ele>
        <time>2021-02-11T14:57:18Z</time>
      </trkpt>
      <trkpt lat="46.85201" lon="5.94713">
        <ele>650.8</ele>
        <time>2021-02-11T14:57:23Z</time>
      </trkpt>
      <trkpt lat="46.85197" lon="5.94712">
        <ele>650.5</ele>
        <time>2021-02-11T14:57:28Z</time>
      </trkpt>
      <trkpt lat="46.85192" lon="5.94711">
        <ele>650.4</ele>
        <time>2021-02-11T14:57:34Z</time>
      </trkpt>
      <trkpt lat="46.85187" lon="5.94713">
        <ele>650.7</ele>
        <time>2021-02-11T14:57:58Z</time>
      </trkpt>
      <trkpt lat="46.85182" lon="5.94711">
        <ele>654.8</ele>
        <time>2021-02-11T15:01:04Z</time>
      </trkpt>
      <trkpt lat="46.85178" lon="5.9471">
        <ele>654.3</ele>
        <time>2021-02-11T15:01:08Z</time>
      </trkpt>
      <trkpt lat="46.85173" lon="5.94711">
        <ele>654.1</ele>
        <time>2021-02-11T15:01:12Z</time>
      </trkpt>
      <trkpt lat="46.85168" lon="5.9471">
        <ele>654.7</ele>
        <time>2021-02-11T15:01:16Z</time>
      </trkpt>
      <trkpt lat="46.85163" lon="5.9471">
        <ele>656</ele>
        <time>2021-02-11T15:01:21Z</time>
      </trkpt>
      <trkpt lat="46.85157" lon="5.94708">
        <ele>656.8</ele>
        <time>2021-02-11T15:01:26Z</time>
      </trkpt>
      <trkpt lat="46.85152" lon="5.94706">
        <ele>657.3</ele>
        <time>2021-02-11T15:01:31Z</time>
      </trkpt>
      <trkpt lat="46.85148" lon="5.94704">
        <ele>657.3</ele>
        <time>2021-02-11T15:01:36Z</time>
      </trkpt>
      <trkpt lat="46.85142" lon="5.94702">
        <ele>656.9</ele>
        <time>2021-02-11T15:01:41Z</time>
      </trkpt>
      <trkpt lat="46.85138" lon="5.94699">
        <ele>656.5</ele>
        <time>2021-02-11T15:01:45Z</time>
      </trkpt>
      <trkpt lat="46.85133" lon="5.94696">
        <ele>655.9</ele>
        <time>2021-02-11T15:01:50Z</time>
      </trkpt>
      <trkpt lat="46.85128" lon="5.94694">
        <ele>655.1</ele>
        <time>2021-02-11T15:01:55Z</time>
      </trkpt>
      <trkpt lat="46.85124" lon="5.94692">
        <ele>654.2</ele>
        <time>2021-02-11T15:01:59Z</time>
      </trkpt>
      <trkpt lat="46.8512" lon="5.9469">
        <ele>653.5</ele>
        <time>2021-02-11T15:02:03Z</time>
      </trkpt>
      <trkpt lat="46.85114" lon="5.94687">
        <ele>652.8</ele>
        <time>2021-02-11T15:02:08Z</time>
      </trkpt>
      <trkpt lat="46.85109" lon="5.94685">
        <ele>652.3</ele>
        <time>2021-02-11T15:02:13Z</time>
      </trkpt>
      <trkpt lat="46.85105" lon="5.94683">
        <ele>651.9</ele>
        <time>2021-02-11T15:02:20Z</time>
      </trkpt>
      <trkpt lat="46.851" lon="5.9468">
        <ele>651.3</ele>
        <time>2021-02-11T15:02:25Z</time>
      </trkpt>
      <trkpt lat="46.85095" lon="5.94678">
        <ele>651.1</ele>
        <time>2021-02-11T15:02:29Z</time>
      </trkpt>
      <trkpt lat="46.8509" lon="5.94677">
        <ele>651</ele>
        <time>2021-02-11T15:02:34Z</time>
      </trkpt>
      <trkpt lat="46.85086" lon="5.94675">
        <ele>651</ele>
        <time>2021-02-11T15:02:39Z</time>
      </trkpt>
      <trkpt lat="46.85081" lon="5.94673">
        <ele>651</ele>
        <time>2021-02-11T15:02:47Z</time>
      </trkpt>
      <trkpt lat="46.85076" lon="5.94671">
        <ele>651.5</ele>
        <time>2021-02-11T15:02:52Z</time>
      </trkpt>
      <trkpt lat="46.85072" lon="5.94669">
        <ele>652.1</ele>
        <time>2021-02-11T15:02:56Z</time>
      </trkpt>
      <trkpt lat="46.85066" lon="5.94667">
        <ele>652.8</ele>
        <time>2021-02-11T15:03:01Z</time>
      </trkpt>
      <trkpt lat="46.85062" lon="5.94665">
        <ele>652.9</ele>
        <time>2021-02-11T15:03:05Z</time>
      </trkpt>
      <trkpt lat="46.85058" lon="5.94662">
        <ele>652.5</ele>
        <time>2021-02-11T15:03:09Z</time>
      </trkpt>
      <trkpt lat="46.85053" lon="5.94661">
        <ele>651.9</ele>
        <time>2021-02-11T15:03:13Z</time>
      </trkpt>
      <trkpt lat="46.85049" lon="5.94659">
        <ele>651.6</ele>
        <time>2021-02-11T15:03:17Z</time>
      </trkpt>
      <trkpt lat="46.85043" lon="5.94657">
        <ele>651.3</ele>
        <time>2021-02-11T15:03:22Z</time>
      </trkpt>
      <trkpt lat="46.85038" lon="5.94656">
        <ele>651.4</ele>
        <time>2021-02-11T15:03:27Z</time>
      </trkpt>
      <trkpt lat="46.85033" lon="5.94654">
        <ele>651.7</ele>
        <time>2021-02-11T15:03:32Z</time>
      </trkpt>
      <trkpt lat="46.85028" lon="5.94654">
        <ele>652</ele>
        <time>2021-02-11T15:03:36Z</time>
      </trkpt>
      <trkpt lat="46.85023" lon="5.94654">
        <ele>652.5</ele>
        <time>2021-02-11T15:03:41Z</time>
      </trkpt>
      <trkpt lat="46.85018" lon="5.94654">
        <ele>652.8</ele>
        <time>2021-02-11T15:03:46Z</time>
      </trkpt>
      <trkpt lat="46.85013" lon="5.94654">
        <ele>653.3</ele>
        <time>2021-02-11T15:03:50Z</time>
      </trkpt>
      <trkpt lat="46.85008" lon="5.94654">
        <ele>653.9</ele>
        <time>2021-02-11T15:03:55Z</time>
      </trkpt>
      <trkpt lat="46.85003" lon="5.94656">
        <ele>655.1</ele>
        <time>2021-02-11T15:04:10Z</time>
      </trkpt>
      <trkpt lat="46.84998" lon="5.94657">
        <ele>655.6</ele>
        <time>2021-02-11T15:04:16Z</time>
      </trkpt>
      <trkpt lat="46.84993" lon="5.94658">
        <ele>655.9</ele>
        <time>2021-02-11T15:04:21Z</time>
      </trkpt>
      <trkpt lat="46.84988" lon="5.94658">
        <ele>656.3</ele>
        <time>2021-02-11T15:04:26Z</time>
      </trkpt>
      <trkpt lat="46.84984" lon="5.9466">
        <ele>656.5</ele>
        <time>2021-02-11T15:04:31Z</time>
      </trkpt>
      <trkpt lat="46.84979" lon="5.9466">
        <ele>656.5</ele>
        <time>2021-02-11T15:04:37Z</time>
      </trkpt>
      <trkpt lat="46.84974" lon="5.94659">
        <ele>656.3</ele>
        <time>2021-02-11T15:04:43Z</time>
      </trkpt>
      <trkpt lat="46.8497" lon="5.9466">
        <ele>655.9</ele>
        <time>2021-02-11T15:04:47Z</time>
      </trkpt>
      <trkpt lat="46.84965" lon="5.94659">
        <ele>655.5</ele>
        <time>2021-02-11T15:04:51Z</time>
      </trkpt>
      <trkpt lat="46.8496" lon="5.94659">
        <ele>655</ele>
        <time>2021-02-11T15:04:56Z</time>
      </trkpt>
      <trkpt lat="46.84955" lon="5.94658">
        <ele>655</ele>
        <time>2021-02-11T15:05:01Z</time>
      </trkpt>
      <trkpt lat="46.8495" lon="5.94659">
        <ele>655.1</ele>
        <time>2021-02-11T15:05:07Z</time>
      </trkpt>
      <trkpt lat="46.84946" lon="5.94659">
        <ele>655.5</ele>
        <time>2021-02-11T15:05:14Z</time>
      </trkpt>
      <trkpt lat="46.84941" lon="5.94657">
        <ele>656.9</ele>
        <time>2021-02-11T15:05:38Z</time>
      </trkpt>
      <trkpt lat="46.84937" lon="5.94654">
        <ele>656.4</ele>
        <time>2021-02-11T15:06:04Z</time>
      </trkpt>
      <trkpt lat="46.84932" lon="5.94652">
        <ele>656.4</ele>
        <time>2021-02-11T15:06:09Z</time>
      </trkpt>
      <trkpt lat="46.84928" lon="5.94651">
        <ele>656.3</ele>
        <time>2021-02-11T15:06:13Z</time>
      </trkpt>
      <trkpt lat="46.84923" lon="5.94649">
        <ele>656.4</ele>
        <time>2021-02-11T15:06:17Z</time>
      </trkpt>
      <trkpt lat="46.84918" lon="5.94648">
        <ele>656.4</ele>
        <time>2021-02-11T15:06:22Z</time>
      </trkpt>
      <trkpt lat="46.84914" lon="5.94645">
        <ele>656.3</ele>
        <time>2021-02-11T15:06:28Z</time>
      </trkpt>
      <trkpt lat="46.84909" lon="5.94643">
        <ele>656</ele>
        <time>2021-02-11T15:06:34Z</time>
      </trkpt>
      <trkpt lat="46.84905" lon="5.94642">
        <ele>655.7</ele>
        <time>2021-02-11T15:06:39Z</time>
      </trkpt>
      <trkpt lat="46.849" lon="5.9464">
        <ele>655.4</ele>
        <time>2021-02-11T15:06:44Z</time>
      </trkpt>
      <trkpt lat="46.84895" lon="5.94639">
        <ele>655.1</ele>
        <time>2021-02-11T15:06:49Z</time>
      </trkpt>
      <trkpt lat="46.8489" lon="5.94638">
        <ele>654.9</ele>
        <time>2021-02-11T15:06:54Z</time>
      </trkpt>
      <trkpt lat="46.84886" lon="5.94637">
        <ele>654.9</ele>
        <time>2021-02-11T15:06:58Z</time>
      </trkpt>
      <trkpt lat="46.84881" lon="5.94635">
        <ele>654.5</ele>
        <time>2021-02-11T15:07:02Z</time>
      </trkpt>
      <trkpt lat="46.84876" lon="5.94633">
        <ele>653.9</ele>
        <time>2021-02-11T15:07:06Z</time>
      </trkpt>
      <trkpt lat="46.84871" lon="5.94631">
        <ele>653.3</ele>
        <time>2021-02-11T15:07:11Z</time>
      </trkpt>
      <trkpt lat="46.84866" lon="5.94629">
        <ele>652.9</ele>
        <time>2021-02-11T15:07:16Z</time>
      </trkpt>
      <trkpt lat="46.84861" lon="5.94628">
        <ele>652.8</ele>
        <time>2021-02-11T15:07:21Z</time>
      </trkpt>
      <trkpt lat="46.84856" lon="5.94627">
        <ele>652.7</ele>
        <time>2021-02-11T15:07:26Z</time>
      </trkpt>
      <trkpt lat="46.84851" lon="5.94626">
        <ele>652.5</ele>
        <time>2021-02-11T15:07:30Z</time>
      </trkpt>
      <trkpt lat="46.84846" lon="5.94624">
        <ele>652.5</ele>
        <time>2021-02-11T15:07:34Z</time>
      </trkpt>
      <trkpt lat="46.84841" lon="5.94623">
        <ele>652.2</ele>
        <time>2021-02-11T15:07:51Z</time>
      </trkpt>
      <trkpt lat="46.84836" lon="5.94621">
        <ele>652.3</ele>
        <time>2021-02-11T15:07:56Z</time>
      </trkpt>
      <trkpt lat="46.84832" lon="5.94619">
        <ele>652.5</ele>
        <time>2021-02-11T15:08:00Z</time>
      </trkpt>
      <trkpt lat="46.84827" lon="5.94616">
        <ele>652.7</ele>
        <time>2021-02-11T15:08:05Z</time>
      </trkpt>
      <trkpt lat="46.84822" lon="5.94614">
        <ele>652.7</ele>
        <time>2021-02-11T15:08:10Z</time>
      </trkpt>
      <trkpt lat="46.84817" lon="5.94611">
        <ele>652.6</ele>
        <time>2021-02-11T15:08:15Z</time>
      </trkpt>
      <trkpt lat="46.84812" lon="5.94609">
        <ele>652.5</ele>
        <time>2021-02-11T15:08:20Z</time>
      </trkpt>
      <trkpt lat="46.84807" lon="5.94607">
        <ele>652.6</ele>
        <time>2021-02-11T15:08:25Z</time>
      </trkpt>
      <trkpt lat="46.84802" lon="5.94604">
        <ele>652.3</ele>
        <time>2021-02-11T15:08:30Z</time>
      </trkpt>
      <trkpt lat="46.84797" lon="5.94601">
        <ele>652</ele>
        <time>2021-02-11T15:08:35Z</time>
      </trkpt>
      <trkpt lat="46.84792" lon="5.94599">
        <ele>651.9</ele>
        <time>2021-02-11T15:08:39Z</time>
      </trkpt>
      <trkpt lat="46.84787" lon="5.94597">
        <ele>651.9</ele>
        <time>2021-02-11T15:08:43Z</time>
      </trkpt>
      <trkpt lat="46.84782" lon="5.94594">
        <ele>652.1</ele>
        <time>2021-02-11T15:08:48Z</time>
      </trkpt>
      <trkpt lat="46.84777" lon="5.94592">
        <ele>652.3</ele>
        <time>2021-02-11T15:08:53Z</time>
      </trkpt>
      <trkpt lat="46.84772" lon="5.94589">
        <ele>652.7</ele>
        <time>2021-02-11T15:08:58Z</time>
      </trkpt>
      <trkpt lat="46.84767" lon="5.94586">
        <ele>653.1</ele>
        <time>2021-02-11T15:09:03Z</time>
      </trkpt>
      <trkpt lat="46.84763" lon="5.94584">
        <ele>653.4</ele>
        <time>2021-02-11T15:09:07Z</time>
      </trkpt>
      <trkpt lat="46.84758" lon="5.94581">
        <ele>653.4</ele>
        <time>2021-02-11T15:09:12Z</time>
      </trkpt>
      <trkpt lat="46.84753" lon="5.9458">
        <ele>653.2</ele>
        <time>2021-02-11T15:09:17Z</time>
      </trkpt>
      <trkpt lat="46.84749" lon="5.94577">
        <ele>652.8</ele>
        <time>2021-02-11T15:09:22Z</time>
      </trkpt>
      <trkpt lat="46.84744" lon="5.94575">
        <ele>652.2</ele>
        <time>2021-02-11T15:09:26Z</time>
      </trkpt>
      <trkpt lat="46.8474" lon="5.94572">
        <ele>651.5</ele>
        <time>2021-02-11T15:09:31Z</time>
      </trkpt>
      <trkpt lat="46.84735" lon="5.94569">
        <ele>650.9</ele>
        <time>2021-02-11T15:09:36Z</time>
      </trkpt>
      <trkpt lat="46.8473" lon="5.94566">
        <ele>650.5</ele>
        <time>2021-02-11T15:09:41Z</time>
      </trkpt>
      <trkpt lat="46.84725" lon="5.94564">
        <ele>650.6</ele>
        <time>2021-02-11T15:09:53Z</time>
      </trkpt>
      <trkpt lat="46.84721" lon="5.94561">
        <ele>651.3</ele>
        <time>2021-02-11T15:09:59Z</time>
      </trkpt>
      <trkpt lat="46.84716" lon="5.94558">
        <ele>651.9</ele>
        <time>2021-02-11T15:10:04Z</time>
      </trkpt>
      <trkpt lat="46.84712" lon="5.94555">
        <ele>652.3</ele>
        <time>2021-02-11T15:10:09Z</time>
      </trkpt>
      <trkpt lat="46.84707" lon="5.94552">
        <ele>652.7</ele>
        <time>2021-02-11T15:10:15Z</time>
      </trkpt>
      <trkpt lat="46.84702" lon="5.94549">
        <ele>652.8</ele>
        <time>2021-02-11T15:10:20Z</time>
      </trkpt>
      <trkpt lat="46.84698" lon="5.94547">
        <ele>652.7</ele>
        <time>2021-02-11T15:10:25Z</time>
      </trkpt>
      <trkpt lat="46.84693" lon="5.94543">
        <ele>652.6</ele>
        <time>2021-02-11T15:10:30Z</time>
      </trkpt>
      <trkpt lat="46.84689" lon="5.9454">
        <ele>652.7</ele>
        <time>2021-02-11T15:10:35Z</time>
      </trkpt>
      <trkpt lat="46.84683" lon="5.94539">
        <ele>652.1</ele>
        <time>2021-02-11T15:10:59Z</time>
      </trkpt>
      <trkpt lat="46.84679" lon="5.94536">
        <ele>652.1</ele>
        <time>2021-02-11T15:11:04Z</time>
      </trkpt>
      <trkpt lat="46.84674" lon="5.94534">
        <ele>652</ele>
        <time>2021-02-11T15:11:08Z</time>
      </trkpt>
      <trkpt lat="46.84669" lon="5.94532">
        <ele>651.9</ele>
        <time>2021-02-11T15:11:13Z</time>
      </trkpt>
      <trkpt lat="46.84664" lon="5.94531">
        <ele>651.6</ele>
        <time>2021-02-11T15:11:19Z</time>
      </trkpt>
      <trkpt lat="46.84658" lon="5.9453">
        <ele>651</ele>
        <time>2021-02-11T15:11:25Z</time>
      </trkpt>
      <trkpt lat="46.84654" lon="5.94531">
        <ele>650.4</ele>
        <time>2021-02-11T15:11:32Z</time>
      </trkpt>
      <trkpt lat="46.8465" lon="5.94535">
        <ele>650.2</ele>
        <time>2021-02-11T15:12:00Z</time>
      </trkpt>
      <trkpt lat="46.84646" lon="5.94539">
        <ele>649.4</ele>
        <time>2021-02-11T15:12:10Z</time>
      </trkpt>
      <trkpt lat="46.84643" lon="5.94545">
        <ele>648</ele>
        <time>2021-02-11T15:12:16Z</time>
      </trkpt>
      <trkpt lat="46.8464" lon="5.9455">
        <ele>646.7</ele>
        <time>2021-02-11T15:12:22Z</time>
      </trkpt>
      <trkpt lat="46.84637" lon="5.94556">
        <ele>646</ele>
        <time>2021-02-11T15:12:27Z</time>
      </trkpt>
      <trkpt lat="46.84634" lon="5.94562">
        <ele>645.5</ele>
        <time>2021-02-11T15:12:32Z</time>
      </trkpt>
      <trkpt lat="46.84631" lon="5.94568">
        <ele>644.8</ele>
        <time>2021-02-11T15:12:39Z</time>
      </trkpt>
      <trkpt lat="46.84628" lon="5.94575">
        <ele>644.2</ele>
        <time>2021-02-11T15:12:45Z</time>
      </trkpt>
      <trkpt lat="46.84625" lon="5.9458">
        <ele>644</ele>
        <time>2021-02-11T15:12:49Z</time>
      </trkpt>
      <trkpt lat="46.84622" lon="5.94586">
        <ele>644</ele>
        <time>2021-02-11T15:12:53Z</time>
      </trkpt>
      <trkpt lat="46.84618" lon="5.94591">
        <ele>645.5</ele>
        <time>2021-02-11T15:13:07Z</time>
      </trkpt>
      <trkpt lat="46.84616" lon="5.94597">
        <ele>645.5</ele>
        <time>2021-02-11T15:13:13Z</time>
      </trkpt>
      <trkpt lat="46.84613" lon="5.94602">
        <ele>645.2</ele>
        <time>2021-02-11T15:13:18Z</time>
      </trkpt>
      <trkpt lat="46.8461" lon="5.94608">
        <ele>645</ele>
        <time>2021-02-11T15:13:22Z</time>
      </trkpt>
      <trkpt lat="46.84607" lon="5.94614">
        <ele>644.7</ele>
        <time>2021-02-11T15:13:27Z</time>
      </trkpt>
      <trkpt lat="46.84604" lon="5.94621">
        <ele>644.8</ele>
        <time>2021-02-11T15:13:32Z</time>
      </trkpt>
      <trkpt lat="46.84601" lon="5.94627">
        <ele>645</ele>
        <time>2021-02-11T15:13:38Z</time>
      </trkpt>
      <trkpt lat="46.84598" lon="5.94632">
        <ele>644.6</ele>
        <time>2021-02-11T15:13:44Z</time>
      </trkpt>
      <trkpt lat="46.84595" lon="5.94638">
        <ele>644</ele>
        <time>2021-02-11T15:13:49Z</time>
      </trkpt>
      <trkpt lat="46.84592" lon="5.94644">
        <ele>643.5</ele>
        <time>2021-02-11T15:13:54Z</time>
      </trkpt>
      <trkpt lat="46.84589" lon="5.94648">
        <ele>643.3</ele>
        <time>2021-02-11T15:14:00Z</time>
      </trkpt>
      <trkpt lat="46.84585" lon="5.94654">
        <ele>643.8</ele>
        <time>2021-02-11T15:14:04Z</time>
      </trkpt>
      <trkpt lat="46.84582" lon="5.9466">
        <ele>644.6</ele>
        <time>2021-02-11T15:14:08Z</time>
      </trkpt>
      <trkpt lat="46.84579" lon="5.94665">
        <ele>645.4</ele>
        <time>2021-02-11T15:14:12Z</time>
      </trkpt>
      <trkpt lat="46.84576" lon="5.94671">
        <ele>645.8</ele>
        <time>2021-02-11T15:14:16Z</time>
      </trkpt>
      <trkpt lat="46.84574" lon="5.94676">
        <ele>646.3</ele>
        <time>2021-02-11T15:14:20Z</time>
      </trkpt>
      <trkpt lat="46.84571" lon="5.94682">
        <ele>646.8</ele>
        <time>2021-02-11T15:14:24Z</time>
      </trkpt>
      <trkpt lat="46.84568" lon="5.94687">
        <ele>647.2</ele>
        <time>2021-02-11T15:14:28Z</time>
      </trkpt>
      <trkpt lat="46.84565" lon="5.94694">
        <ele>647.6</ele>
        <time>2021-02-11T15:14:33Z</time>
      </trkpt>
      <trkpt lat="46.84562" lon="5.947">
        <ele>648</ele>
        <time>2021-02-11T15:14:37Z</time>
      </trkpt>
      <trkpt lat="46.8456" lon="5.94706">
        <ele>648.4</ele>
        <time>2021-02-11T15:14:41Z</time>
      </trkpt>
      <trkpt lat="46.84557" lon="5.94711">
        <ele>648.5</ele>
        <time>2021-02-11T15:14:46Z</time>
      </trkpt>
      <trkpt lat="46.84553" lon="5.94717">
        <ele>648</ele>
        <time>2021-02-11T15:14:51Z</time>
      </trkpt>
      <trkpt lat="46.84551" lon="5.94723">
        <ele>647.5</ele>
        <time>2021-02-11T15:14:55Z</time>
      </trkpt>
      <trkpt lat="46.84549" lon="5.94729">
        <ele>647.1</ele>
        <time>2021-02-11T15:15:00Z</time>
      </trkpt>
      <trkpt lat="46.84546" lon="5.94735">
        <ele>646.5</ele>
        <time>2021-02-11T15:15:06Z</time>
      </trkpt>
      <trkpt lat="46.84543" lon="5.94741">
        <ele>645.9</ele>
        <time>2021-02-11T15:15:11Z</time>
      </trkpt>
      <trkpt lat="46.84539" lon="5.94747">
        <ele>645</ele>
        <time>2021-02-11T15:15:16Z</time>
      </trkpt>
      <trkpt lat="46.84537" lon="5.94752">
        <ele>644.2</ele>
        <time>2021-02-11T15:15:20Z</time>
      </trkpt>
      <trkpt lat="46.84534" lon="5.94758">
        <ele>643.1</ele>
        <time>2021-02-11T15:15:25Z</time>
      </trkpt>
      <trkpt lat="46.84531" lon="5.94765">
        <ele>642.5</ele>
        <time>2021-02-11T15:15:30Z</time>
      </trkpt>
      <trkpt lat="46.84528" lon="5.9477">
        <ele>642.5</ele>
        <time>2021-02-11T15:15:34Z</time>
      </trkpt>
      <trkpt lat="46.84525" lon="5.94776">
        <ele>642.5</ele>
        <time>2021-02-11T15:15:38Z</time>
      </trkpt>
      <trkpt lat="46.84522" lon="5.94781">
        <ele>642.8</ele>
        <time>2021-02-11T15:15:42Z</time>
      </trkpt>
      <trkpt lat="46.8452" lon="5.94787">
        <ele>643.2</ele>
        <time>2021-02-11T15:15:47Z</time>
      </trkpt>
      <trkpt lat="46.84516" lon="5.94793">
        <ele>643</ele>
        <time>2021-02-11T15:15:52Z</time>
      </trkpt>
      <trkpt lat="46.84512" lon="5.94796">
        <ele>642.8</ele>
        <time>2021-02-11T15:15:57Z</time>
      </trkpt>
      <trkpt lat="46.84508" lon="5.94799">
        <ele>642.8</ele>
        <time>2021-02-11T15:16:01Z</time>
      </trkpt>
      <trkpt lat="46.84503" lon="5.94796">
        <ele>642.5</ele>
        <time>2021-02-11T15:16:28Z</time>
      </trkpt>
      <trkpt lat="46.84499" lon="5.94794">
        <ele>642.7</ele>
        <time>2021-02-11T15:16:32Z</time>
      </trkpt>
      <trkpt lat="46.84494" lon="5.94791">
        <ele>642.1</ele>
        <time>2021-02-11T15:16:37Z</time>
      </trkpt>
      <trkpt lat="46.84489" lon="5.9479">
        <ele>641.7</ele>
        <time>2021-02-11T15:16:42Z</time>
      </trkpt>
      <trkpt lat="46.84484" lon="5.94789">
        <ele>641.9</ele>
        <time>2021-02-11T15:16:46Z</time>
      </trkpt>
      <trkpt lat="46.84479" lon="5.94788">
        <ele>642.9</ele>
        <time>2021-02-11T15:16:50Z</time>
      </trkpt>
      <trkpt lat="46.84474" lon="5.94789">
        <ele>644.4</ele>
        <time>2021-02-11T15:16:54Z</time>
      </trkpt>
      <trkpt lat="46.84469" lon="5.94788">
        <ele>645.6</ele>
        <time>2021-02-11T15:16:58Z</time>
      </trkpt>
      <trkpt lat="46.84464" lon="5.94787">
        <ele>646.3</ele>
        <time>2021-02-11T15:17:02Z</time>
      </trkpt>
      <trkpt lat="46.8446" lon="5.94786">
        <ele>646.6</ele>
        <time>2021-02-11T15:17:06Z</time>
      </trkpt>
      <trkpt lat="46.84454" lon="5.94785">
        <ele>646.6</ele>
        <time>2021-02-11T15:17:11Z</time>
      </trkpt>
      <trkpt lat="46.84449" lon="5.94783">
        <ele>646.9</ele>
        <time>2021-02-11T15:17:16Z</time>
      </trkpt>
      <trkpt lat="46.84444" lon="5.9478">
        <ele>647.2</ele>
        <time>2021-02-11T15:17:21Z</time>
      </trkpt>
      <trkpt lat="46.8444" lon="5.94777">
        <ele>647.5</ele>
        <time>2021-02-11T15:17:27Z</time>
      </trkpt>
      <trkpt lat="46.84436" lon="5.94773">
        <ele>646.9</ele>
        <time>2021-02-11T15:17:40Z</time>
      </trkpt>
      <trkpt lat="46.84431" lon="5.94769">
        <ele>646.1</ele>
        <time>2021-02-11T15:17:46Z</time>
      </trkpt>
      <trkpt lat="46.84427" lon="5.94765">
        <ele>645.3</ele>
        <time>2021-02-11T15:17:50Z</time>
      </trkpt>
      <trkpt lat="46.84424" lon="5.9476">
        <ele>643.9</ele>
        <time>2021-02-11T15:17:55Z</time>
      </trkpt>
      <trkpt lat="46.84421" lon="5.94753">
        <ele>642.7</ele>
        <time>2021-02-11T15:18:00Z</time>
      </trkpt>
      <trkpt lat="46.84417" lon="5.94747">
        <ele>642.3</ele>
        <time>2021-02-11T15:18:05Z</time>
      </trkpt>
      <trkpt lat="46.84414" lon="5.94741">
        <ele>642.3</ele>
        <time>2021-02-11T15:18:10Z</time>
      </trkpt>
      <trkpt lat="46.84411" lon="5.94735">
        <ele>642.4</ele>
        <time>2021-02-11T15:18:15Z</time>
      </trkpt>
      <trkpt lat="46.84408" lon="5.94729">
        <ele>642.7</ele>
        <time>2021-02-11T15:18:20Z</time>
      </trkpt>
      <trkpt lat="46.84405" lon="5.94723">
        <ele>643.3</ele>
        <time>2021-02-11T15:18:25Z</time>
      </trkpt>
      <trkpt lat="46.84402" lon="5.94717">
        <ele>643.9</ele>
        <time>2021-02-11T15:18:30Z</time>
      </trkpt>
      <trkpt lat="46.84398" lon="5.94711">
        <ele>644.5</ele>
        <time>2021-02-11T15:18:35Z</time>
      </trkpt>
      <trkpt lat="46.84395" lon="5.94705">
        <ele>644.8</ele>
        <time>2021-02-11T15:18:39Z</time>
      </trkpt>
      <trkpt lat="46.84392" lon="5.94698">
        <ele>645.1</ele>
        <time>2021-02-11T15:18:43Z</time>
      </trkpt>
      <trkpt lat="46.8439" lon="5.94692">
        <ele>645.9</ele>
        <time>2021-02-11T15:18:47Z</time>
      </trkpt>
      <trkpt lat="46.84387" lon="5.94686">
        <ele>647.1</ele>
        <time>2021-02-11T15:18:51Z</time>
      </trkpt>
      <trkpt lat="46.84385" lon="5.94679">
        <ele>648.5</ele>
        <time>2021-02-11T15:18:55Z</time>
      </trkpt>
      <trkpt lat="46.84382" lon="5.94672">
        <ele>649.6</ele>
        <time>2021-02-11T15:18:59Z</time>
      </trkpt>
      <trkpt lat="46.84381" lon="5.94665">
        <ele>650.6</ele>
        <time>2021-02-11T15:19:04Z</time>
      </trkpt>
      <trkpt lat="46.84378" lon="5.94659">
        <ele>650.8</ele>
        <time>2021-02-11T15:19:09Z</time>
      </trkpt>
      <trkpt lat="46.84377" lon="5.94652">
        <ele>650.2</ele>
        <time>2021-02-11T15:19:14Z</time>
      </trkpt>
      <trkpt lat="46.84376" lon="5.94645">
        <ele>649.2</ele>
        <time>2021-02-11T15:19:19Z</time>
      </trkpt>
      <trkpt lat="46.84375" lon="5.94639">
        <ele>648</ele>
        <time>2021-02-11T15:19:23Z</time>
      </trkpt>
      <trkpt lat="46.84374" lon="5.94631">
        <ele>646.3</ele>
        <time>2021-02-11T15:19:28Z</time>
      </trkpt>
      <trkpt lat="46.84373" lon="5.94623">
        <ele>644.9</ele>
        <time>2021-02-11T15:19:33Z</time>
      </trkpt>
      <trkpt lat="46.84372" lon="5.94616">
        <ele>643.9</ele>
        <time>2021-02-11T15:19:39Z</time>
      </trkpt>
      <trkpt lat="46.84371" lon="5.94608">
        <ele>643.6</ele>
        <time>2021-02-11T15:19:44Z</time>
      </trkpt>
      <trkpt lat="46.8437" lon="5.946">
        <ele>643.6</ele>
        <time>2021-02-11T15:19:48Z</time>
      </trkpt>
      <trkpt lat="46.84369" lon="5.94593">
        <ele>643.7</ele>
        <time>2021-02-11T15:19:53Z</time>
      </trkpt>
      <trkpt lat="46.84368" lon="5.94586">
        <ele>643.8</ele>
        <time>2021-02-11T15:19:57Z</time>
      </trkpt>
      <trkpt lat="46.84369" lon="5.94579">
        <ele>643.8</ele>
        <time>2021-02-11T15:20:01Z</time>
      </trkpt>
      <trkpt lat="46.84369" lon="5.9457">
        <ele>644.1</ele>
        <time>2021-02-11T15:20:06Z</time>
      </trkpt>
      <trkpt lat="46.84369" lon="5.94564">
        <ele>644.3</ele>
        <time>2021-02-11T15:20:10Z</time>
      </trkpt>
      <trkpt lat="46.8437" lon="5.94556">
        <ele>644.4</ele>
        <time>2021-02-11T15:20:15Z</time>
      </trkpt>
      <trkpt lat="46.84371" lon="5.94549">
        <ele>644.8</ele>
        <time>2021-02-11T15:20:19Z</time>
      </trkpt>
      <trkpt lat="46.84372" lon="5.94542">
        <ele>645.8</ele>
        <time>2021-02-11T15:20:24Z</time>
      </trkpt>
      <trkpt lat="46.84373" lon="5.94535">
        <ele>646.7</ele>
        <time>2021-02-11T15:20:29Z</time>
      </trkpt>
      <trkpt lat="46.84374" lon="5.94527">
        <ele>647.4</ele>
        <time>2021-02-11T15:20:34Z</time>
      </trkpt>
      <trkpt lat="46.84375" lon="5.9452">
        <ele>647.8</ele>
        <time>2021-02-11T15:20:39Z</time>
      </trkpt>
      <trkpt lat="46.84376" lon="5.94513">
        <ele>648</ele>
        <time>2021-02-11T15:20:43Z</time>
      </trkpt>
      <trkpt lat="46.84376" lon="5.94506">
        <ele>648.3</ele>
        <time>2021-02-11T15:20:47Z</time>
      </trkpt>
      <trkpt lat="46.84377" lon="5.94499">
        <ele>648.4</ele>
        <time>2021-02-11T15:20:51Z</time>
      </trkpt>
      <trkpt lat="46.84378" lon="5.94492">
        <ele>648.5</ele>
        <time>2021-02-11T15:20:55Z</time>
      </trkpt>
      <trkpt lat="46.84379" lon="5.94485">
        <ele>648.5</ele>
        <time>2021-02-11T15:20:59Z</time>
      </trkpt>
      <trkpt lat="46.8438" lon="5.94478">
        <ele>648.5</ele>
        <time>2021-02-11T15:21:03Z</time>
      </trkpt>
      <trkpt lat="46.84382" lon="5.9447">
        <ele>648.6</ele>
        <time>2021-02-11T15:21:08Z</time>
      </trkpt>
      <trkpt lat="46.84383" lon="5.94463">
        <ele>648.4</ele>
        <time>2021-02-11T15:21:13Z</time>
      </trkpt>
      <trkpt lat="46.84385" lon="5.94456">
        <ele>648.1</ele>
        <time>2021-02-11T15:21:18Z</time>
      </trkpt>
      <trkpt lat="46.84387" lon="5.94449">
        <ele>648</ele>
        <time>2021-02-11T15:21:22Z</time>
      </trkpt>
      <trkpt lat="46.84388" lon="5.94443">
        <ele>648.1</ele>
        <time>2021-02-11T15:21:26Z</time>
      </trkpt>
      <trkpt lat="46.8439" lon="5.94435">
        <ele>648.3</ele>
        <time>2021-02-11T15:21:31Z</time>
      </trkpt>
      <trkpt lat="46.84392" lon="5.94428">
        <ele>648.2</ele>
        <time>2021-02-11T15:21:36Z</time>
      </trkpt>
      <trkpt lat="46.84393" lon="5.94421">
        <ele>648.1</ele>
        <time>2021-02-11T15:21:41Z</time>
      </trkpt>
      <trkpt lat="46.84394" lon="5.94413">
        <ele>647.7</ele>
        <time>2021-02-11T15:21:46Z</time>
      </trkpt>
      <trkpt lat="46.84394" lon="5.94406">
        <ele>647</ele>
        <time>2021-02-11T15:21:50Z</time>
      </trkpt>
      <trkpt lat="46.84394" lon="5.94399">
        <ele>646.3</ele>
        <time>2021-02-11T15:21:54Z</time>
      </trkpt>
      <trkpt lat="46.84393" lon="5.94393">
        <ele>645.4</ele>
        <time>2021-02-11T15:21:58Z</time>
      </trkpt>
      <trkpt lat="46.84392" lon="5.94386">
        <ele>644.6</ele>
        <time>2021-02-11T15:22:02Z</time>
      </trkpt>
      <trkpt lat="46.8439" lon="5.94379">
        <ele>643.6</ele>
        <time>2021-02-11T15:22:07Z</time>
      </trkpt>
      <trkpt lat="46.84388" lon="5.94373">
        <ele>642.9</ele>
        <time>2021-02-11T15:22:11Z</time>
      </trkpt>
      <trkpt lat="46.84385" lon="5.94366">
        <ele>642.4</ele>
        <time>2021-02-11T15:22:16Z</time>
      </trkpt>
      <trkpt lat="46.84382" lon="5.94362">
        <ele>641.9</ele>
        <time>2021-02-11T15:22:20Z</time>
      </trkpt>
      <trkpt lat="46.84378" lon="5.94358">
        <ele>641.3</ele>
        <time>2021-02-11T15:22:24Z</time>
      </trkpt>
      <trkpt lat="46.84373" lon="5.94353">
        <ele>640.6</ele>
        <time>2021-02-11T15:22:29Z</time>
      </trkpt>
      <trkpt lat="46.84369" lon="5.9435">
        <ele>640.1</ele>
        <time>2021-02-11T15:22:33Z</time>
      </trkpt>
      <trkpt lat="46.84364" lon="5.94346">
        <ele>639.6</ele>
        <time>2021-02-11T15:22:38Z</time>
      </trkpt>
      <trkpt lat="46.8436" lon="5.94343">
        <ele>639.5</ele>
        <time>2021-02-11T15:22:42Z</time>
      </trkpt>
      <trkpt lat="46.84356" lon="5.94339">
        <ele>639.7</ele>
        <time>2021-02-11T15:22:46Z</time>
      </trkpt>
      <trkpt lat="46.84352" lon="5.94334">
        <ele>640.2</ele>
        <time>2021-02-11T15:22:51Z</time>
      </trkpt>
      <trkpt lat="46.84348" lon="5.94331">
        <ele>640.4</ele>
        <time>2021-02-11T15:22:56Z</time>
      </trkpt>
      <trkpt lat="46.84344" lon="5.94327">
        <ele>640.7</ele>
        <time>2021-02-11T15:23:01Z</time>
      </trkpt>
      <trkpt lat="46.84339" lon="5.94324">
        <ele>640.8</ele>
        <time>2021-02-11T15:23:07Z</time>
      </trkpt>
      <trkpt lat="46.84335" lon="5.94319">
        <ele>640.9</ele>
        <time>2021-02-11T15:23:12Z</time>
      </trkpt>
      <trkpt lat="46.84332" lon="5.94314">
        <ele>640.9</ele>
        <time>2021-02-11T15:23:16Z</time>
      </trkpt>
      <trkpt lat="46.84327" lon="5.94312">
        <ele>640.9</ele>
        <time>2021-02-11T15:23:21Z</time>
      </trkpt>
      <trkpt lat="46.84323" lon="5.94308">
        <ele>640.8</ele>
        <time>2021-02-11T15:23:25Z</time>
      </trkpt>
      <trkpt lat="46.84319" lon="5.94304">
        <ele>640.5</ele>
        <time>2021-02-11T15:23:30Z</time>
      </trkpt>
      <trkpt lat="46.84315" lon="5.94298">
        <ele>640.1</ele>
        <time>2021-02-11T15:23:36Z</time>
      </trkpt>
      <trkpt lat="46.84312" lon="5.94292">
        <ele>639.7</ele>
        <time>2021-02-11T15:23:42Z</time>
      </trkpt>
      <trkpt lat="46.84308" lon="5.94287">
        <ele>639.7</ele>
        <time>2021-02-11T15:23:47Z</time>
      </trkpt>
      <trkpt lat="46.84306" lon="5.94281">
        <ele>639.7</ele>
        <time>2021-02-11T15:23:52Z</time>
      </trkpt>
      <trkpt lat="46.84305" lon="5.94275">
        <ele>639.5</ele>
        <time>2021-02-11T15:23:58Z</time>
      </trkpt>
      <trkpt lat="46.843" lon="5.94276">
        <ele>640.5</ele>
        <time>2021-02-11T15:24:56Z</time>
      </trkpt>
      <trkpt lat="46.84295" lon="5.94275">
        <ele>640.4</ele>
        <time>2021-02-11T15:25:02Z</time>
      </trkpt>
      <trkpt lat="46.8429" lon="5.94272">
        <ele>640.5</ele>
        <time>2021-02-11T15:25:11Z</time>
      </trkpt>
      <trkpt lat="46.84285" lon="5.94271">
        <ele>641</ele>
        <time>2021-02-11T15:25:20Z</time>
      </trkpt>
      <trkpt lat="46.84281" lon="5.94271">
        <ele>641.5</ele>
        <time>2021-02-11T15:25:25Z</time>
      </trkpt>
      <trkpt lat="46.84276" lon="5.94273">
        <ele>641.7</ele>
        <time>2021-02-11T15:25:32Z</time>
      </trkpt>
      <trkpt lat="46.84272" lon="5.94272">
        <ele>641.1</ele>
        <time>2021-02-11T15:25:37Z</time>
      </trkpt>
      <trkpt lat="46.84266" lon="5.94271">
        <ele>640.3</ele>
        <time>2021-02-11T15:25:42Z</time>
      </trkpt>
      <trkpt lat="46.84262" lon="5.9427">
        <ele>639.7</ele>
        <time>2021-02-11T15:25:49Z</time>
      </trkpt>
      <trkpt lat="46.84257" lon="5.94268">
        <ele>640.1</ele>
        <time>2021-02-11T15:26:15Z</time>
      </trkpt>
      <trkpt lat="46.84253" lon="5.94265">
        <ele>640.2</ele>
        <time>2021-02-11T15:26:21Z</time>
      </trkpt>
      <trkpt lat="46.84249" lon="5.94262">
        <ele>639.7</ele>
        <time>2021-02-11T15:26:27Z</time>
      </trkpt>
      <trkpt lat="46.84253" lon="5.94257">
        <ele>639.9</ele>
        <time>2021-02-11T15:26:44Z</time>
      </trkpt>
      <trkpt lat="46.84256" lon="5.94252">
        <ele>640.4</ele>
        <time>2021-02-11T15:26:49Z</time>
      </trkpt>
      <trkpt lat="46.8426" lon="5.94248">
        <ele>640.8</ele>
        <time>2021-02-11T15:26:54Z</time>
      </trkpt>
      <trkpt lat="46.84265" lon="5.94247">
        <ele>641.1</ele>
        <time>2021-02-11T15:27:00Z</time>
      </trkpt>
      <trkpt lat="46.8427" lon="5.94245">
        <ele>641.1</ele>
        <time>2021-02-11T15:27:05Z</time>
      </trkpt>
      <trkpt lat="46.84275" lon="5.94246">
        <ele>641</ele>
        <time>2021-02-11T15:27:10Z</time>
      </trkpt>
      <trkpt lat="46.8428" lon="5.94247">
        <ele>640.9</ele>
        <time>2021-02-11T15:27:15Z</time>
      </trkpt>
      <trkpt lat="46.84284" lon="5.94251">
        <ele>640.7</ele>
        <time>2021-02-11T15:27:21Z</time>
      </trkpt>
      <trkpt lat="46.84289" lon="5.94255">
        <ele>640.3</ele>
        <time>2021-02-11T15:27:26Z</time>
      </trkpt>
      <trkpt lat="46.84293" lon="5.94257">
        <ele>640.2</ele>
        <time>2021-02-11T15:27:31Z</time>
      </trkpt>
      <trkpt lat="46.84297" lon="5.94252">
        <ele>640.4</ele>
        <time>2021-02-11T15:27:38Z</time>
      </trkpt>
      <trkpt lat="46.84298" lon="5.94246">
        <ele>641.6</ele>
        <time>2021-02-11T15:27:54Z</time>
      </trkpt>
      <trkpt lat="46.84298" lon="5.94239">
        <ele>642</ele>
        <time>2021-02-11T15:28:31Z</time>
      </trkpt>
      <trkpt lat="46.84298" lon="5.94231">
        <ele>641.1</ele>
        <time>2021-02-11T15:28:59Z</time>
      </trkpt>
      <trkpt lat="46.84298" lon="5.94223">
        <ele>641.1</ele>
        <time>2021-02-11T15:29:05Z</time>
      </trkpt>
      <trkpt lat="46.84298" lon="5.94216">
        <ele>641.8</ele>
        <time>2021-02-11T15:29:10Z</time>
      </trkpt>
      <trkpt lat="46.84298" lon="5.9421">
        <ele>641.6</ele>
        <time>2021-02-11T15:29:28Z</time>
      </trkpt>
      <trkpt lat="46.84298" lon="5.94203">
        <ele>641.1</ele>
        <time>2021-02-11T15:29:34Z</time>
      </trkpt>
      <trkpt lat="46.84296" lon="5.94196">
        <ele>643.4</ele>
        <time>2021-02-11T15:30:52Z</time>
      </trkpt>
      <trkpt lat="46.84296" lon="5.94188">
        <ele>643</ele>
        <time>2021-02-11T15:30:57Z</time>
      </trkpt>
      <trkpt lat="46.84296" lon="5.94181">
        <ele>642.4</ele>
        <time>2021-02-11T15:31:02Z</time>
      </trkpt>
      <trkpt lat="46.84296" lon="5.94173">
        <ele>641.3</ele>
        <time>2021-02-11T15:31:07Z</time>
      </trkpt>
      <trkpt lat="46.84296" lon="5.94166">
        <ele>640.5</ele>
        <time>2021-02-11T15:31:11Z</time>
      </trkpt>
      <trkpt lat="46.84296" lon="5.94158">
        <ele>639.5</ele>
        <time>2021-02-11T15:31:16Z</time>
      </trkpt>
      <trkpt lat="46.84295" lon="5.94151">
        <ele>638.5</ele>
        <time>2021-02-11T15:31:21Z</time>
      </trkpt>
      <trkpt lat="46.84295" lon="5.94144">
        <ele>637.9</ele>
        <time>2021-02-11T15:31:25Z</time>
      </trkpt>
      <trkpt lat="46.84295" lon="5.94136">
        <ele>637.4</ele>
        <time>2021-02-11T15:31:30Z</time>
      </trkpt>
      <trkpt lat="46.84294" lon="5.94128">
        <ele>637.4</ele>
        <time>2021-02-11T15:31:35Z</time>
      </trkpt>
      <trkpt lat="46.84294" lon="5.9412">
        <ele>637.2</ele>
        <time>2021-02-11T15:31:40Z</time>
      </trkpt>
      <trkpt lat="46.84294" lon="5.94112">
        <ele>637</ele>
        <time>2021-02-11T15:31:45Z</time>
      </trkpt>
      <trkpt lat="46.84295" lon="5.94105">
        <ele>637</ele>
        <time>2021-02-11T15:31:50Z</time>
      </trkpt>
      <trkpt lat="46.84296" lon="5.94098">
        <ele>637.2</ele>
        <time>2021-02-11T15:31:54Z</time>
      </trkpt>
      <trkpt lat="46.84296" lon="5.94091">
        <ele>637.2</ele>
        <time>2021-02-11T15:31:58Z</time>
      </trkpt>
      <trkpt lat="46.84296" lon="5.94082">
        <ele>636.8</ele>
        <time>2021-02-11T15:32:03Z</time>
      </trkpt>
      <trkpt lat="46.84297" lon="5.94076">
        <ele>636.5</ele>
        <time>2021-02-11T15:32:07Z</time>
      </trkpt>
      <trkpt lat="46.84297" lon="5.94068">
        <ele>636.2</ele>
        <time>2021-02-11T15:32:12Z</time>
      </trkpt>
      <trkpt lat="46.84298" lon="5.9406">
        <ele>635.4</ele>
        <time>2021-02-11T15:32:17Z</time>
      </trkpt>
      <trkpt lat="46.84299" lon="5.94054">
        <ele>634.6</ele>
        <time>2021-02-11T15:32:22Z</time>
      </trkpt>
      <trkpt lat="46.843" lon="5.94047">
        <ele>633.6</ele>
        <time>2021-02-11T15:32:27Z</time>
      </trkpt>
      <trkpt lat="46.843" lon="5.94039">
        <ele>633</ele>
        <time>2021-02-11T15:32:32Z</time>
      </trkpt>
      <trkpt lat="46.843" lon="5.94032">
        <ele>632.4</ele>
        <time>2021-02-11T15:32:36Z</time>
      </trkpt>
      <trkpt lat="46.843" lon="5.94023">
        <ele>631.8</ele>
        <time>2021-02-11T15:32:41Z</time>
      </trkpt>
      <trkpt lat="46.84301" lon="5.94016">
        <ele>631.3</ele>
        <time>2021-02-11T15:32:46Z</time>
      </trkpt>
      <trkpt lat="46.84302" lon="5.94008">
        <ele>631</ele>
        <time>2021-02-11T15:32:51Z</time>
      </trkpt>
      <trkpt lat="46.84302" lon="5.94001">
        <ele>630.4</ele>
        <time>2021-02-11T15:32:56Z</time>
      </trkpt>
      <trkpt lat="46.84303" lon="5.93994">
        <ele>630.1</ele>
        <time>2021-02-11T15:33:00Z</time>
      </trkpt>
      <trkpt lat="46.84304" lon="5.93988">
        <ele>629.8</ele>
        <time>2021-02-11T15:33:04Z</time>
      </trkpt>
      <trkpt lat="46.84306" lon="5.9398">
        <ele>629.7</ele>
        <time>2021-02-11T15:33:08Z</time>
      </trkpt>
      <trkpt lat="46.84308" lon="5.93974">
        <ele>629.5</ele>
        <time>2021-02-11T15:33:12Z</time>
      </trkpt>
      <trkpt lat="46.8431" lon="5.93967">
        <ele>629.1</ele>
        <time>2021-02-11T15:33:17Z</time>
      </trkpt>
      <trkpt lat="46.84309" lon="5.9396">
        <ele>628.7</ele>
        <time>2021-02-11T15:34:05Z</time>
      </trkpt>
      <trkpt lat="46.84308" lon="5.93952">
        <ele>629.2</ele>
        <time>2021-02-11T15:34:11Z</time>
      </trkpt>
      <trkpt lat="46.84308" lon="5.93945">
        <ele>629.9</ele>
        <time>2021-02-11T15:34:17Z</time>
      </trkpt>
      <trkpt lat="46.8431" lon="5.93939">
        <ele>630.4</ele>
        <time>2021-02-11T15:34:22Z</time>
      </trkpt>
      <trkpt lat="46.84311" lon="5.93932">
        <ele>630.7</ele>
        <time>2021-02-11T15:34:27Z</time>
      </trkpt>
      <trkpt lat="46.84311" lon="5.93925">
        <ele>629.9</ele>
        <time>2021-02-11T15:34:33Z</time>
      </trkpt>
      <trkpt lat="46.84311" lon="5.93918">
        <ele>628.4</ele>
        <time>2021-02-11T15:34:38Z</time>
      </trkpt>
      <trkpt lat="46.84311" lon="5.9391">
        <ele>626.4</ele>
        <time>2021-02-11T15:34:44Z</time>
      </trkpt>
      <trkpt lat="46.84311" lon="5.93902">
        <ele>624.3</ele>
        <time>2021-02-11T15:34:50Z</time>
      </trkpt>
      <trkpt lat="46.84312" lon="5.93895">
        <ele>622.2</ele>
        <time>2021-02-11T15:34:56Z</time>
      </trkpt>
      <trkpt lat="46.84312" lon="5.93888">
        <ele>621</ele>
        <time>2021-02-11T15:35:01Z</time>
      </trkpt>
      <trkpt lat="46.84312" lon="5.9388">
        <ele>620</ele>
        <time>2021-02-11T15:35:06Z</time>
      </trkpt>
      <trkpt lat="46.84311" lon="5.93874">
        <ele>619.3</ele>
        <time>2021-02-11T15:35:10Z</time>
      </trkpt>
      <trkpt lat="46.84311" lon="5.93866">
        <ele>618.5</ele>
        <time>2021-02-11T15:35:15Z</time>
      </trkpt>
      <trkpt lat="46.8431" lon="5.93859">
        <ele>618</ele>
        <time>2021-02-11T15:35:19Z</time>
      </trkpt>
      <trkpt lat="46.84309" lon="5.93852">
        <ele>617.8</ele>
        <time>2021-02-11T15:35:23Z</time>
      </trkpt>
      <trkpt lat="46.84308" lon="5.93845">
        <ele>617.6</ele>
        <time>2021-02-11T15:35:28Z</time>
      </trkpt>
      <trkpt lat="46.84307" lon="5.93838">
        <ele>617.5</ele>
        <time>2021-02-11T15:35:33Z</time>
      </trkpt>
      <trkpt lat="46.84309" lon="5.93831">
        <ele>617.3</ele>
        <time>2021-02-11T15:35:39Z</time>
      </trkpt>
      <trkpt lat="46.84314" lon="5.93829">
        <ele>616.9</ele>
        <time>2021-02-11T15:35:46Z</time>
      </trkpt>
      <trkpt lat="46.84319" lon="5.93828">
        <ele>616.7</ele>
        <time>2021-02-11T15:35:51Z</time>
      </trkpt>
      <trkpt lat="46.84324" lon="5.93827">
        <ele>616.5</ele>
        <time>2021-02-11T15:35:56Z</time>
      </trkpt>
      <trkpt lat="46.84329" lon="5.93828">
        <ele>616.3</ele>
        <time>2021-02-11T15:36:01Z</time>
      </trkpt>
      <trkpt lat="46.84334" lon="5.93828">
        <ele>615.8</ele>
        <time>2021-02-11T15:36:07Z</time>
      </trkpt>
      <trkpt lat="46.84339" lon="5.93828">
        <ele>615.5</ele>
        <time>2021-02-11T15:36:12Z</time>
      </trkpt>
      <trkpt lat="46.84344" lon="5.93828">
        <ele>615.3</ele>
        <time>2021-02-11T15:36:17Z</time>
      </trkpt>
      <trkpt lat="46.8435" lon="5.93828">
        <ele>615.3</ele>
        <time>2021-02-11T15:36:22Z</time>
      </trkpt>
      <trkpt lat="46.84354" lon="5.93829">
        <ele>615.4</ele>
        <time>2021-02-11T15:36:26Z</time>
      </trkpt>
      <trkpt lat="46.84359" lon="5.93829">
        <ele>615.5</ele>
        <time>2021-02-11T15:36:30Z</time>
      </trkpt>
      <trkpt lat="46.84363" lon="5.93829">
        <ele>615.5</ele>
        <time>2021-02-11T15:36:34Z</time>
      </trkpt>
      <trkpt lat="46.84368" lon="5.93829">
        <ele>615.4</ele>
        <time>2021-02-11T15:36:38Z</time>
      </trkpt>
      <trkpt lat="46.84373" lon="5.93828">
        <ele>615.2</ele>
        <time>2021-02-11T15:36:42Z</time>
      </trkpt>
      <trkpt lat="46.84378" lon="5.93828">
        <ele>615.2</ele>
        <time>2021-02-11T15:36:47Z</time>
      </trkpt>
      <trkpt lat="46.84383" lon="5.93827">
        <ele>615.3</ele>
        <time>2021-02-11T15:36:51Z</time>
      </trkpt>
      <trkpt lat="46.84388" lon="5.93825">
        <ele>615.6</ele>
        <time>2021-02-11T15:36:56Z</time>
      </trkpt>
      <trkpt lat="46.84393" lon="5.93823">
        <ele>615.7</ele>
        <time>2021-02-11T15:37:01Z</time>
      </trkpt>
      <trkpt lat="46.84398" lon="5.9382">
        <ele>615.8</ele>
        <time>2021-02-11T15:37:06Z</time>
      </trkpt>
      <trkpt lat="46.84402" lon="5.93816">
        <ele>615.9</ele>
        <time>2021-02-11T15:37:11Z</time>
      </trkpt>
      <trkpt lat="46.84406" lon="5.93813">
        <ele>615.9</ele>
        <time>2021-02-11T15:37:15Z</time>
      </trkpt>
      <trkpt lat="46.8441" lon="5.93809">
        <ele>616</ele>
        <time>2021-02-11T15:37:19Z</time>
      </trkpt>
      <trkpt lat="46.84414" lon="5.93806">
        <ele>615.9</ele>
        <time>2021-02-11T15:37:23Z</time>
      </trkpt>
      <trkpt lat="46.84418" lon="5.93802">
        <ele>615.4</ele>
        <time>2021-02-11T15:37:27Z</time>
      </trkpt>
      <trkpt lat="46.84423" lon="5.93798">
        <ele>614.6</ele>
        <time>2021-02-11T15:37:32Z</time>
      </trkpt>
      <trkpt lat="46.84427" lon="5.93795">
        <ele>613.7</ele>
        <time>2021-02-11T15:37:37Z</time>
      </trkpt>
      <trkpt lat="46.84431" lon="5.93791">
        <ele>612.9</ele>
        <time>2021-02-11T15:37:41Z</time>
      </trkpt>
      <trkpt lat="46.84436" lon="5.93787">
        <ele>612.2</ele>
        <time>2021-02-11T15:37:46Z</time>
      </trkpt>
      <trkpt lat="46.84441" lon="5.93784">
        <ele>612</ele>
        <time>2021-02-11T15:37:51Z</time>
      </trkpt>
      <trkpt lat="46.84446" lon="5.93781">
        <ele>611.8</ele>
        <time>2021-02-11T15:37:56Z</time>
      </trkpt>
      <trkpt lat="46.8445" lon="5.93779">
        <ele>611.6</ele>
        <time>2021-02-11T15:38:00Z</time>
      </trkpt>
      <trkpt lat="46.84455" lon="5.93776">
        <ele>611</ele>
        <time>2021-02-11T15:38:05Z</time>
      </trkpt>
      <trkpt lat="46.84459" lon="5.93774">
        <ele>610</ele>
        <time>2021-02-11T15:38:10Z</time>
      </trkpt>
      <trkpt lat="46.84464" lon="5.93771">
        <ele>608.9</ele>
        <time>2021-02-11T15:38:15Z</time>
      </trkpt>
      <trkpt lat="46.84469" lon="5.93769">
        <ele>608</ele>
        <time>2021-02-11T15:38:20Z</time>
      </trkpt>
      <trkpt lat="46.84475" lon="5.93767">
        <ele>607.3</ele>
        <time>2021-02-11T15:38:25Z</time>
      </trkpt>
      <trkpt lat="46.84479" lon="5.93765">
        <ele>606.9</ele>
        <time>2021-02-11T15:38:29Z</time>
      </trkpt>
      <trkpt lat="46.84484" lon="5.93763">
        <ele>606.4</ele>
        <time>2021-02-11T15:38:34Z</time>
      </trkpt>
      <trkpt lat="46.84489" lon="5.93762">
        <ele>606</ele>
        <time>2021-02-11T15:38:38Z</time>
      </trkpt>
      <trkpt lat="46.84493" lon="5.9376">
        <ele>605.9</ele>
        <time>2021-02-11T15:38:42Z</time>
      </trkpt>
      <trkpt lat="46.84498" lon="5.93757">
        <ele>605.8</ele>
        <time>2021-02-11T15:38:47Z</time>
      </trkpt>
      <trkpt lat="46.84503" lon="5.93753">
        <ele>605.6</ele>
        <time>2021-02-11T15:38:52Z</time>
      </trkpt>
      <trkpt lat="46.84506" lon="5.93748">
        <ele>605.5</ele>
        <time>2021-02-11T15:38:57Z</time>
      </trkpt>
      <trkpt lat="46.84506" lon="5.93741">
        <ele>605.8</ele>
        <time>2021-02-11T15:39:02Z</time>
      </trkpt>
      <trkpt lat="46.84505" lon="5.93733">
        <ele>606</ele>
        <time>2021-02-11T15:39:07Z</time>
      </trkpt>
      <trkpt lat="46.84503" lon="5.93727">
        <ele>606</ele>
        <time>2021-02-11T15:39:11Z</time>
      </trkpt>
      <trkpt lat="46.845" lon="5.93721">
        <ele>605.8</ele>
        <time>2021-02-11T15:39:16Z</time>
      </trkpt>
      <trkpt lat="46.84499" lon="5.93713">
        <ele>605.4</ele>
        <time>2021-02-11T15:39:21Z</time>
      </trkpt>
      <trkpt lat="46.84498" lon="5.93707">
        <ele>604.9</ele>
        <time>2021-02-11T15:39:25Z</time>
      </trkpt>
      <trkpt lat="46.84497" lon="5.937">
        <ele>604.4</ele>
        <time>2021-02-11T15:39:29Z</time>
      </trkpt>
      <trkpt lat="46.84497" lon="5.93692">
        <ele>603.5</ele>
        <time>2021-02-11T15:39:34Z</time>
      </trkpt>
      <trkpt lat="46.84497" lon="5.93685">
        <ele>602.7</ele>
        <time>2021-02-11T15:39:38Z</time>
      </trkpt>
      <trkpt lat="46.84497" lon="5.93678">
        <ele>602.2</ele>
        <time>2021-02-11T15:39:42Z</time>
      </trkpt>
      <trkpt lat="46.84498" lon="5.93671">
        <ele>601.9</ele>
        <time>2021-02-11T15:39:46Z</time>
      </trkpt>
      <trkpt lat="46.84499" lon="5.93664">
        <ele>601.8</ele>
        <time>2021-02-11T15:39:50Z</time>
      </trkpt>
      <trkpt lat="46.84499" lon="5.93656">
        <ele>601.5</ele>
        <time>2021-02-11T15:39:55Z</time>
      </trkpt>
      <trkpt lat="46.84499" lon="5.93649">
        <ele>601.2</ele>
        <time>2021-02-11T15:39:59Z</time>
      </trkpt>
      <trkpt lat="46.84499" lon="5.93641">
        <ele>600.7</ele>
        <time>2021-02-11T15:40:04Z</time>
      </trkpt>
      <trkpt lat="46.84499" lon="5.93635">
        <ele>600.5</ele>
        <time>2021-02-11T15:40:08Z</time>
      </trkpt>
      <trkpt lat="46.845" lon="5.93627">
        <ele>600.7</ele>
        <time>2021-02-11T15:40:13Z</time>
      </trkpt>
      <trkpt lat="46.84501" lon="5.93619">
        <ele>601.1</ele>
        <time>2021-02-11T15:40:17Z</time>
      </trkpt>
      <trkpt lat="46.84502" lon="5.93613">
        <ele>601.4</ele>
        <time>2021-02-11T15:40:21Z</time>
      </trkpt>
      <trkpt lat="46.84503" lon="5.93606">
        <ele>601.6</ele>
        <time>2021-02-11T15:40:25Z</time>
      </trkpt>
      <trkpt lat="46.84503" lon="5.93599">
        <ele>602</ele>
        <time>2021-02-11T15:40:31Z</time>
      </trkpt>
      <trkpt lat="46.84505" lon="5.93593">
        <ele>602.2</ele>
        <time>2021-02-11T15:40:37Z</time>
      </trkpt>
      <trkpt lat="46.84508" lon="5.93587">
        <ele>602.8</ele>
        <time>2021-02-11T15:40:42Z</time>
      </trkpt>
      <trkpt lat="46.84509" lon="5.9358">
        <ele>603.3</ele>
        <time>2021-02-11T15:40:46Z</time>
      </trkpt>
      <trkpt lat="46.84511" lon="5.93572">
        <ele>603.7</ele>
        <time>2021-02-11T15:40:51Z</time>
      </trkpt>
      <trkpt lat="46.84512" lon="5.93566">
        <ele>603.6</ele>
        <time>2021-02-11T15:40:55Z</time>
      </trkpt>
      <trkpt lat="46.84514" lon="5.93559">
        <ele>603.4</ele>
        <time>2021-02-11T15:40:59Z</time>
      </trkpt>
      <trkpt lat="46.84515" lon="5.93553">
        <ele>603.1</ele>
        <time>2021-02-11T15:41:03Z</time>
      </trkpt>
      <trkpt lat="46.84517" lon="5.93545">
        <ele>602.9</ele>
        <time>2021-02-11T15:41:07Z</time>
      </trkpt>
      <trkpt lat="46.84518" lon="5.93539">
        <ele>602.7</ele>
        <time>2021-02-11T15:41:11Z</time>
      </trkpt>
      <trkpt lat="46.8452" lon="5.93532">
        <ele>602.3</ele>
        <time>2021-02-11T15:41:16Z</time>
      </trkpt>
      <trkpt lat="46.84522" lon="5.93525">
        <ele>602.2</ele>
        <time>2021-02-11T15:41:20Z</time>
      </trkpt>
      <trkpt lat="46.84524" lon="5.93518">
        <ele>602.2</ele>
        <time>2021-02-11T15:41:24Z</time>
      </trkpt>
      <trkpt lat="46.84525" lon="5.93512">
        <ele>602.4</ele>
        <time>2021-02-11T15:41:28Z</time>
      </trkpt>
      <trkpt lat="46.84527" lon="5.93505">
        <ele>602.3</ele>
        <time>2021-02-11T15:41:33Z</time>
      </trkpt>
      <trkpt lat="46.84528" lon="5.93497">
        <ele>601.9</ele>
        <time>2021-02-11T15:41:38Z</time>
      </trkpt>
      <trkpt lat="46.8453" lon="5.93491">
        <ele>601.5</ele>
        <time>2021-02-11T15:41:42Z</time>
      </trkpt>
      <trkpt lat="46.84531" lon="5.93484">
        <ele>601</ele>
        <time>2021-02-11T15:41:46Z</time>
      </trkpt>
      <trkpt lat="46.84533" lon="5.93477">
        <ele>600.6</ele>
        <time>2021-02-11T15:41:50Z</time>
      </trkpt>
      <trkpt lat="46.84535" lon="5.93471">
        <ele>600.2</ele>
        <time>2021-02-11T15:41:54Z</time>
      </trkpt>
      <trkpt lat="46.84536" lon="5.93465">
        <ele>599.9</ele>
        <time>2021-02-11T15:41:58Z</time>
      </trkpt>
      <trkpt lat="46.84538" lon="5.93458">
        <ele>599.7</ele>
        <time>2021-02-11T15:42:02Z</time>
      </trkpt>
      <trkpt lat="46.84539" lon="5.93451">
        <ele>599.7</ele>
        <time>2021-02-11T15:42:07Z</time>
      </trkpt>
      <trkpt lat="46.84541" lon="5.93444">
        <ele>599.9</ele>
        <time>2021-02-11T15:42:11Z</time>
      </trkpt>
      <trkpt lat="46.84543" lon="5.93437">
        <ele>600.3</ele>
        <time>2021-02-11T15:42:15Z</time>
      </trkpt>
      <trkpt lat="46.84544" lon="5.9343">
        <ele>600.5</ele>
        <time>2021-02-11T15:42:19Z</time>
      </trkpt>
      <trkpt lat="46.84547" lon="5.93423">
        <ele>600.3</ele>
        <time>2021-02-11T15:42:24Z</time>
      </trkpt>
      <trkpt lat="46.84549" lon="5.93416">
        <ele>600.1</ele>
        <time>2021-02-11T15:42:29Z</time>
      </trkpt>
      <trkpt lat="46.84552" lon="5.93409">
        <ele>600.1</ele>
        <time>2021-02-11T15:42:34Z</time>
      </trkpt>
      <trkpt lat="46.84554" lon="5.93403">
        <ele>600.1</ele>
        <time>2021-02-11T15:42:38Z</time>
      </trkpt>
      <trkpt lat="46.84556" lon="5.93397">
        <ele>599.9</ele>
        <time>2021-02-11T15:42:42Z</time>
      </trkpt>
      <trkpt lat="46.84558" lon="5.93391">
        <ele>599.8</ele>
        <time>2021-02-11T15:42:46Z</time>
      </trkpt>
      <trkpt lat="46.84561" lon="5.93385">
        <ele>600.1</ele>
        <time>2021-02-11T15:42:50Z</time>
      </trkpt>
      <trkpt lat="46.84562" lon="5.93378">
        <ele>600.5</ele>
        <time>2021-02-11T15:42:54Z</time>
      </trkpt>
      <trkpt lat="46.84564" lon="5.93372">
        <ele>600.7</ele>
        <time>2021-02-11T15:42:58Z</time>
      </trkpt>
      <trkpt lat="46.84566" lon="5.93366">
        <ele>600.9</ele>
        <time>2021-02-11T15:43:02Z</time>
      </trkpt>
      <trkpt lat="46.84568" lon="5.93359">
        <ele>601.1</ele>
        <time>2021-02-11T15:43:06Z</time>
      </trkpt>
      <trkpt lat="46.84569" lon="5.93353">
        <ele>601.4</ele>
        <time>2021-02-11T15:43:10Z</time>
      </trkpt>
      <trkpt lat="46.84571" lon="5.93346">
        <ele>601.5</ele>
        <time>2021-02-11T15:43:14Z</time>
      </trkpt>
      <trkpt lat="46.84572" lon="5.9334">
        <ele>601.6</ele>
        <time>2021-02-11T15:43:18Z</time>
      </trkpt>
      <trkpt lat="46.84573" lon="5.93333">
        <ele>601.9</ele>
        <time>2021-02-11T15:43:22Z</time>
      </trkpt>
      <trkpt lat="46.84575" lon="5.93326">
        <ele>602.2</ele>
        <time>2021-02-11T15:43:26Z</time>
      </trkpt>
      <trkpt lat="46.84577" lon="5.93319">
        <ele>602.5</ele>
        <time>2021-02-11T15:43:30Z</time>
      </trkpt>
      <trkpt lat="46.84578" lon="5.93312">
        <ele>602.9</ele>
        <time>2021-02-11T15:43:34Z</time>
      </trkpt>
      <trkpt lat="46.8458" lon="5.93306">
        <ele>603.3</ele>
        <time>2021-02-11T15:43:38Z</time>
      </trkpt>
      <trkpt lat="46.84581" lon="5.933">
        <ele>603.6</ele>
        <time>2021-02-11T15:43:42Z</time>
      </trkpt>
      <trkpt lat="46.84582" lon="5.93292">
        <ele>603.5</ele>
        <time>2021-02-11T15:43:47Z</time>
      </trkpt>
      <trkpt lat="46.84584" lon="5.93286">
        <ele>603.2</ele>
        <time>2021-02-11T15:43:51Z</time>
      </trkpt>
      <trkpt lat="46.84585" lon="5.93279">
        <ele>602.8</ele>
        <time>2021-02-11T15:43:55Z</time>
      </trkpt>
      <trkpt lat="46.84587" lon="5.93273">
        <ele>602.7</ele>
        <time>2021-02-11T15:43:59Z</time>
      </trkpt>
      <trkpt lat="46.84588" lon="5.93266">
        <ele>602.5</ele>
        <time>2021-02-11T15:44:03Z</time>
      </trkpt>
      <trkpt lat="46.84589" lon="5.93258">
        <ele>602.5</ele>
        <time>2021-02-11T15:44:07Z</time>
      </trkpt>
      <trkpt lat="46.84591" lon="5.93252">
        <ele>602.6</ele>
        <time>2021-02-11T15:44:11Z</time>
      </trkpt>
      <trkpt lat="46.84592" lon="5.93245">
        <ele>603.1</ele>
        <time>2021-02-11T15:44:16Z</time>
      </trkpt>
      <trkpt lat="46.84594" lon="5.93238">
        <ele>603.5</ele>
        <time>2021-02-11T15:44:20Z</time>
      </trkpt>
      <trkpt lat="46.84596" lon="5.93232">
        <ele>603.7</ele>
        <time>2021-02-11T15:44:24Z</time>
      </trkpt>
      <trkpt lat="46.84598" lon="5.93225">
        <ele>603.7</ele>
        <time>2021-02-11T15:44:29Z</time>
      </trkpt>
      <trkpt lat="46.84601" lon="5.93219">
        <ele>603.6</ele>
        <time>2021-02-11T15:44:33Z</time>
      </trkpt>
      <trkpt lat="46.84603" lon="5.93213">
        <ele>603.5</ele>
        <time>2021-02-11T15:44:37Z</time>
      </trkpt>
      <trkpt lat="46.84606" lon="5.93207">
        <ele>603.6</ele>
        <time>2021-02-11T15:44:42Z</time>
      </trkpt>
      <trkpt lat="46.84608" lon="5.93201">
        <ele>603.6</ele>
        <time>2021-02-11T15:44:47Z</time>
      </trkpt>
      <trkpt lat="46.84611" lon="5.93194">
        <ele>603.3</ele>
        <time>2021-02-11T15:44:52Z</time>
      </trkpt>
      <trkpt lat="46.84614" lon="5.93188">
        <ele>603.2</ele>
        <time>2021-02-11T15:44:56Z</time>
      </trkpt>
      <trkpt lat="46.84616" lon="5.93182">
        <ele>602.9</ele>
        <time>2021-02-11T15:45:00Z</time>
      </trkpt>
      <trkpt lat="46.84619" lon="5.93175">
        <ele>602.8</ele>
        <time>2021-02-11T15:45:04Z</time>
      </trkpt>
      <trkpt lat="46.84623" lon="5.9317">
        <ele>602.5</ele>
        <time>2021-02-11T15:45:09Z</time>
      </trkpt>
      <trkpt lat="46.84627" lon="5.93165">
        <ele>602.5</ele>
        <time>2021-02-11T15:45:14Z</time>
      </trkpt>
      <trkpt lat="46.84632" lon="5.93163">
        <ele>602.1</ele>
        <time>2021-02-11T15:45:19Z</time>
      </trkpt>
      <trkpt lat="46.84636" lon="5.93161">
        <ele>601.5</ele>
        <time>2021-02-11T15:45:24Z</time>
      </trkpt>
      <trkpt lat="46.84641" lon="5.9316">
        <ele>600.9</ele>
        <time>2021-02-11T15:45:29Z</time>
      </trkpt>
      <trkpt lat="46.84646" lon="5.93158">
        <ele>600.7</ele>
        <time>2021-02-11T15:45:34Z</time>
      </trkpt>
      <trkpt lat="46.8465" lon="5.93157">
        <ele>600.3</ele>
        <time>2021-02-11T15:45:39Z</time>
      </trkpt>
      <trkpt lat="46.84655" lon="5.93155">
        <ele>599.9</ele>
        <time>2021-02-11T15:45:44Z</time>
      </trkpt>
      <trkpt lat="46.84659" lon="5.93153">
        <ele>599.6</ele>
        <time>2021-02-11T15:45:48Z</time>
      </trkpt>
      <trkpt lat="46.84664" lon="5.93149">
        <ele>599.3</ele>
        <time>2021-02-11T15:45:52Z</time>
      </trkpt>
      <trkpt lat="46.84668" lon="5.93145">
        <ele>599</ele>
        <time>2021-02-11T15:45:56Z</time>
      </trkpt>
      <trkpt lat="46.84672" lon="5.9314">
        <ele>598.8</ele>
        <time>2021-02-11T15:46:01Z</time>
      </trkpt>
      <trkpt lat="46.84677" lon="5.93135">
        <ele>598.8</ele>
        <time>2021-02-11T15:46:06Z</time>
      </trkpt>
      <trkpt lat="46.8468" lon="5.9313">
        <ele>598.9</ele>
        <time>2021-02-11T15:46:10Z</time>
      </trkpt>
      <trkpt lat="46.84685" lon="5.93127">
        <ele>599</ele>
        <time>2021-02-11T15:46:15Z</time>
      </trkpt>
      <trkpt lat="46.84689" lon="5.93124">
        <ele>598.9</ele>
        <time>2021-02-11T15:46:19Z</time>
      </trkpt>
      <trkpt lat="46.84694" lon="5.93122">
        <ele>598.6</ele>
        <time>2021-02-11T15:46:24Z</time>
      </trkpt>
      <trkpt lat="46.84699" lon="5.93122">
        <ele>598.4</ele>
        <time>2021-02-11T15:46:29Z</time>
      </trkpt>
      <trkpt lat="46.84704" lon="5.93122">
        <ele>598.1</ele>
        <time>2021-02-11T15:46:34Z</time>
      </trkpt>
      <trkpt lat="46.84709" lon="5.93123">
        <ele>597.7</ele>
        <time>2021-02-11T15:46:38Z</time>
      </trkpt>
      <trkpt lat="46.84714" lon="5.93126">
        <ele>597.3</ele>
        <time>2021-02-11T15:46:42Z</time>
      </trkpt>
      <trkpt lat="46.84718" lon="5.93128">
        <ele>597</ele>
        <time>2021-02-11T15:46:46Z</time>
      </trkpt>
      <trkpt lat="46.84722" lon="5.9313">
        <ele>596.8</ele>
        <time>2021-02-11T15:46:50Z</time>
      </trkpt>
      <trkpt lat="46.84727" lon="5.93132">
        <ele>596.6</ele>
        <time>2021-02-11T15:46:54Z</time>
      </trkpt>
      <trkpt lat="46.84731" lon="5.93134">
        <ele>596.5</ele>
        <time>2021-02-11T15:46:58Z</time>
      </trkpt>
      <trkpt lat="46.84737" lon="5.93137">
        <ele>596</ele>
        <time>2021-02-11T15:47:03Z</time>
      </trkpt>
      <trkpt lat="46.84741" lon="5.93139">
        <ele>595.3</ele>
        <time>2021-02-11T15:47:07Z</time>
      </trkpt>
      <trkpt lat="46.84746" lon="5.93141">
        <ele>594.8</ele>
        <time>2021-02-11T15:47:12Z</time>
      </trkpt>
      <trkpt lat="46.84751" lon="5.93142">
        <ele>594.5</ele>
        <time>2021-02-11T15:47:17Z</time>
      </trkpt>
      <trkpt lat="46.84757" lon="5.93144">
        <ele>594.8</ele>
        <time>2021-02-11T15:47:22Z</time>
      </trkpt>
      <trkpt lat="46.84762" lon="5.93146">
        <ele>594.8</ele>
        <time>2021-02-11T15:47:27Z</time>
      </trkpt>
      <trkpt lat="46.84767" lon="5.93146">
        <ele>594.7</ele>
        <time>2021-02-11T15:47:32Z</time>
      </trkpt>
      <trkpt lat="46.84772" lon="5.93147">
        <ele>594.5</ele>
        <time>2021-02-11T15:47:36Z</time>
      </trkpt>
      <trkpt lat="46.84777" lon="5.93145">
        <ele>594</ele>
        <time>2021-02-11T15:47:41Z</time>
      </trkpt>
      <trkpt lat="46.84782" lon="5.93143">
        <ele>593.4</ele>
        <time>2021-02-11T15:47:45Z</time>
      </trkpt>
      <trkpt lat="46.84787" lon="5.93142">
        <ele>592.6</ele>
        <time>2021-02-11T15:47:50Z</time>
      </trkpt>
      <trkpt lat="46.84792" lon="5.9314">
        <ele>591.8</ele>
        <time>2021-02-11T15:47:55Z</time>
      </trkpt>
      <trkpt lat="46.84797" lon="5.93138">
        <ele>591.4</ele>
        <time>2021-02-11T15:47:59Z</time>
      </trkpt>
      <trkpt lat="46.84801" lon="5.93134">
        <ele>591.3</ele>
        <time>2021-02-11T15:48:03Z</time>
      </trkpt>
      <trkpt lat="46.84805" lon="5.93129">
        <ele>591.7</ele>
        <time>2021-02-11T15:48:07Z</time>
      </trkpt>
      <trkpt lat="46.84808" lon="5.93124">
        <ele>592.5</ele>
        <time>2021-02-11T15:48:11Z</time>
      </trkpt>
      <trkpt lat="46.84811" lon="5.93118">
        <ele>593.5</ele>
        <time>2021-02-11T15:48:15Z</time>
      </trkpt>
      <trkpt lat="46.84814" lon="5.93111">
        <ele>595</ele>
        <time>2021-02-11T15:48:19Z</time>
      </trkpt>
      <trkpt lat="46.84817" lon="5.93105">
        <ele>596.6</ele>
        <time>2021-02-11T15:48:24Z</time>
      </trkpt>
      <trkpt lat="46.8482" lon="5.93097">
        <ele>598.1</ele>
        <time>2021-02-11T15:48:29Z</time>
      </trkpt>
      <trkpt lat="46.84822" lon="5.93091">
        <ele>599.2</ele>
        <time>2021-02-11T15:48:34Z</time>
      </trkpt>
      <trkpt lat="46.84824" lon="5.93085">
        <ele>600</ele>
        <time>2021-02-11T15:48:38Z</time>
      </trkpt>
      <trkpt lat="46.84826" lon="5.93078">
        <ele>600.9</ele>
        <time>2021-02-11T15:48:43Z</time>
      </trkpt>
      <trkpt lat="46.84829" lon="5.93072">
        <ele>601.1</ele>
        <time>2021-02-11T15:48:48Z</time>
      </trkpt>
      <trkpt lat="46.84831" lon="5.93066">
        <ele>601</ele>
        <time>2021-02-11T15:48:52Z</time>
      </trkpt>
      <trkpt lat="46.84834" lon="5.9306">
        <ele>600.7</ele>
        <time>2021-02-11T15:48:56Z</time>
      </trkpt>
      <trkpt lat="46.84838" lon="5.93055">
        <ele>600.2</ele>
        <time>2021-02-11T15:49:00Z</time>
      </trkpt>
      <trkpt lat="46.84843" lon="5.93051">
        <ele>599.7</ele>
        <time>2021-02-11T15:49:05Z</time>
      </trkpt>
      <trkpt lat="46.84847" lon="5.93049">
        <ele>599.4</ele>
        <time>2021-02-11T15:49:09Z</time>
      </trkpt>
      <trkpt lat="46.84851" lon="5.93046">
        <ele>599.3</ele>
        <time>2021-02-11T15:49:13Z</time>
      </trkpt>
      <trkpt lat="46.84854" lon="5.9304">
        <ele>599.1</ele>
        <time>2021-02-11T15:49:18Z</time>
      </trkpt>
      <trkpt lat="46.84858" lon="5.93035">
        <ele>598.9</ele>
        <time>2021-02-11T15:49:23Z</time>
      </trkpt>
      <trkpt lat="46.84863" lon="5.93031">
        <ele>598.5</ele>
        <time>2021-02-11T15:49:29Z</time>
      </trkpt>
      <trkpt lat="46.84868" lon="5.9303">
        <ele>598.1</ele>
        <time>2021-02-11T15:49:34Z</time>
      </trkpt>
      <trkpt lat="46.84873" lon="5.93029">
        <ele>597.7</ele>
        <time>2021-02-11T15:49:38Z</time>
      </trkpt>
      <trkpt lat="46.84877" lon="5.93028">
        <ele>597.4</ele>
        <time>2021-02-11T15:49:42Z</time>
      </trkpt>
      <trkpt lat="46.84882" lon="5.93026">
        <ele>597.1</ele>
        <time>2021-02-11T15:49:46Z</time>
      </trkpt>
      <trkpt lat="46.84887" lon="5.93024">
        <ele>597</ele>
        <time>2021-02-11T15:49:50Z</time>
      </trkpt>
      <trkpt lat="46.84891" lon="5.93019">
        <ele>596.6</ele>
        <time>2021-02-11T15:49:55Z</time>
      </trkpt>
      <trkpt lat="46.84894" lon="5.93013">
        <ele>596.6</ele>
        <time>2021-02-11T15:50:00Z</time>
      </trkpt>
      <trkpt lat="46.84896" lon="5.93007">
        <ele>597.1</ele>
        <time>2021-02-11T15:50:04Z</time>
      </trkpt>
      <trkpt lat="46.84899" lon="5.93001">
        <ele>597.6</ele>
        <time>2021-02-11T15:50:08Z</time>
      </trkpt>
      <trkpt lat="46.84902" lon="5.92995">
        <ele>598.4</ele>
        <time>2021-02-11T15:50:12Z</time>
      </trkpt>
      <trkpt lat="46.84905" lon="5.92989">
        <ele>599.2</ele>
        <time>2021-02-11T15:50:16Z</time>
      </trkpt>
      <trkpt lat="46.84908" lon="5.92983">
        <ele>600.1</ele>
        <time>2021-02-11T15:50:20Z</time>
      </trkpt>
      <trkpt lat="46.84911" lon="5.92977">
        <ele>601.1</ele>
        <time>2021-02-11T15:50:25Z</time>
      </trkpt>
      <trkpt lat="46.84915" lon="5.92972">
        <ele>602</ele>
        <time>2021-02-11T15:50:30Z</time>
      </trkpt>
      <trkpt lat="46.84918" lon="5.92967">
        <ele>602.7</ele>
        <time>2021-02-11T15:50:34Z</time>
      </trkpt>
      <trkpt lat="46.84921" lon="5.92961">
        <ele>603.2</ele>
        <time>2021-02-11T15:50:39Z</time>
      </trkpt>
      <trkpt lat="46.84923" lon="5.92955">
        <ele>603.4</ele>
        <time>2021-02-11T15:50:43Z</time>
      </trkpt>
      <trkpt lat="46.84927" lon="5.92948">
        <ele>603.6</ele>
        <time>2021-02-11T15:50:48Z</time>
      </trkpt>
      <trkpt lat="46.8493" lon="5.92943">
        <ele>603.7</ele>
        <time>2021-02-11T15:50:52Z</time>
      </trkpt>
      <trkpt lat="46.84932" lon="5.92936">
        <ele>603.7</ele>
        <time>2021-02-11T15:50:57Z</time>
      </trkpt>
      <trkpt lat="46.84936" lon="5.92931">
        <ele>603.3</ele>
        <time>2021-02-11T15:51:02Z</time>
      </trkpt>
      <trkpt lat="46.84939" lon="5.92926">
        <ele>602.3</ele>
        <time>2021-02-11T15:51:07Z</time>
      </trkpt>
      <trkpt lat="46.84943" lon="5.92919">
        <ele>602.1</ele>
        <time>2021-02-11T15:51:11Z</time>
      </trkpt>
      <trkpt lat="46.84946" lon="5.92912">
        <ele>602</ele>
        <time>2021-02-11T15:51:15Z</time>
      </trkpt>
      <trkpt lat="46.84948" lon="5.92907">
        <ele>602.2</ele>
        <time>2021-02-11T15:51:19Z</time>
      </trkpt>
      <trkpt lat="46.84953" lon="5.92902">
        <ele>602.4</ele>
        <time>2021-02-11T15:51:24Z</time>
      </trkpt>
      <trkpt lat="46.84958" lon="5.929">
        <ele>602.5</ele>
        <time>2021-02-11T15:51:28Z</time>
      </trkpt>
      <trkpt lat="46.84962" lon="5.92896">
        <ele>603.2</ele>
        <time>2021-02-11T15:51:33Z</time>
      </trkpt>
      <trkpt lat="46.84967" lon="5.92894">
        <ele>604</ele>
        <time>2021-02-11T15:51:38Z</time>
      </trkpt>
      <trkpt lat="46.84972" lon="5.92892">
        <ele>604.8</ele>
        <time>2021-02-11T15:51:42Z</time>
      </trkpt>
      <trkpt lat="46.84977" lon="5.9289">
        <ele>605.8</ele>
        <time>2021-02-11T15:51:47Z</time>
      </trkpt>
      <trkpt lat="46.84982" lon="5.92889">
        <ele>606.4</ele>
        <time>2021-02-11T15:51:52Z</time>
      </trkpt>
      <trkpt lat="46.84987" lon="5.92887">
        <ele>606.1</ele>
        <time>2021-02-11T15:51:56Z</time>
      </trkpt>
      <trkpt lat="46.84992" lon="5.92886">
        <ele>605.7</ele>
        <time>2021-02-11T15:52:00Z</time>
      </trkpt>
      <trkpt lat="46.84996" lon="5.9289">
        <ele>604.7</ele>
        <time>2021-02-11T15:52:05Z</time>
      </trkpt>
      <trkpt lat="46.85" lon="5.92895">
        <ele>603.6</ele>
        <time>2021-02-11T15:52:10Z</time>
      </trkpt>
      <trkpt lat="46.85004" lon="5.929">
        <ele>602.5</ele>
        <time>2021-02-11T15:52:15Z</time>
      </trkpt>
      <trkpt lat="46.85007" lon="5.92905">
        <ele>601.2</ele>
        <time>2021-02-11T15:52:20Z</time>
      </trkpt>
      <trkpt lat="46.8501" lon="5.9291">
        <ele>600.6</ele>
        <time>2021-02-11T15:52:24Z</time>
      </trkpt>
      <trkpt lat="46.85012" lon="5.92916">
        <ele>600.4</ele>
        <time>2021-02-11T15:52:28Z</time>
      </trkpt>
      <trkpt lat="46.85015" lon="5.92922">
        <ele>600.5</ele>
        <time>2021-02-11T15:52:32Z</time>
      </trkpt>
      <trkpt lat="46.85019" lon="5.92928">
        <ele>600.6</ele>
        <time>2021-02-11T15:52:37Z</time>
      </trkpt>
      <trkpt lat="46.85022" lon="5.92934">
        <ele>600.9</ele>
        <time>2021-02-11T15:52:42Z</time>
      </trkpt>
      <trkpt lat="46.85025" lon="5.9294">
        <ele>601.3</ele>
        <time>2021-02-11T15:52:46Z</time>
      </trkpt>
      <trkpt lat="46.85028" lon="5.92945">
        <ele>602</ele>
        <time>2021-02-11T15:52:50Z</time>
      </trkpt>
      <trkpt lat="46.85033" lon="5.92949">
        <ele>602.5</ele>
        <time>2021-02-11T15:52:55Z</time>
      </trkpt>
      <trkpt lat="46.85038" lon="5.92952">
        <ele>602.5</ele>
        <time>2021-02-11T15:53:00Z</time>
      </trkpt>
      <trkpt lat="46.85043" lon="5.92955">
        <ele>602.5</ele>
        <time>2021-02-11T15:53:05Z</time>
      </trkpt>
      <trkpt lat="46.85047" lon="5.92958">
        <ele>602.4</ele>
        <time>2021-02-11T15:53:10Z</time>
      </trkpt>
      <trkpt lat="46.85052" lon="5.9296">
        <ele>602.2</ele>
        <time>2021-02-11T15:53:15Z</time>
      </trkpt>
      <trkpt lat="46.85056" lon="5.92962">
        <ele>601.8</ele>
        <time>2021-02-11T15:53:21Z</time>
      </trkpt>
      <trkpt lat="46.85061" lon="5.92964">
        <ele>601.5</ele>
        <time>2021-02-11T15:53:27Z</time>
      </trkpt>
      <trkpt lat="46.85065" lon="5.9297">
        <ele>601.2</ele>
        <time>2021-02-11T15:53:32Z</time>
      </trkpt>
      <trkpt lat="46.85068" lon="5.92976">
        <ele>601.2</ele>
        <time>2021-02-11T15:53:36Z</time>
      </trkpt>
      <trkpt lat="46.85071" lon="5.92982">
        <ele>601.3</ele>
        <time>2021-02-11T15:53:41Z</time>
      </trkpt>
      <trkpt lat="46.85073" lon="5.92988">
        <ele>600.8</ele>
        <time>2021-02-11T15:53:46Z</time>
      </trkpt>
      <trkpt lat="46.85075" lon="5.92996">
        <ele>600.1</ele>
        <time>2021-02-11T15:53:51Z</time>
      </trkpt>
      <trkpt lat="46.85077" lon="5.93003">
        <ele>599.5</ele>
        <time>2021-02-11T15:53:55Z</time>
      </trkpt>
      <trkpt lat="46.85078" lon="5.93011">
        <ele>599</ele>
        <time>2021-02-11T15:53:59Z</time>
      </trkpt>
      <trkpt lat="46.85082" lon="5.93016">
        <ele>598.3</ele>
        <time>2021-02-11T15:54:03Z</time>
      </trkpt>
      <trkpt lat="46.85085" lon="5.93021">
        <ele>597.7</ele>
        <time>2021-02-11T15:54:07Z</time>
      </trkpt>
      <trkpt lat="46.85089" lon="5.93025">
        <ele>597.2</ele>
        <time>2021-02-11T15:54:11Z</time>
      </trkpt>
      <trkpt lat="46.85092" lon="5.9303">
        <ele>597</ele>
        <time>2021-02-11T15:54:15Z</time>
      </trkpt>
      <trkpt lat="46.85095" lon="5.93035">
        <ele>597</ele>
        <time>2021-02-11T15:54:19Z</time>
      </trkpt>
      <trkpt lat="46.85098" lon="5.93041">
        <ele>597.3</ele>
        <time>2021-02-11T15:54:24Z</time>
      </trkpt>
      <trkpt lat="46.85103" lon="5.93046">
        <ele>597.9</ele>
        <time>2021-02-11T15:54:28Z</time>
      </trkpt>
      <trkpt lat="46.85106" lon="5.93051">
        <ele>598.6</ele>
        <time>2021-02-11T15:54:33Z</time>
      </trkpt>
      <trkpt lat="46.8511" lon="5.93056">
        <ele>599</ele>
        <time>2021-02-11T15:54:38Z</time>
      </trkpt>
      <trkpt lat="46.85113" lon="5.93062">
        <ele>599.7</ele>
        <time>2021-02-11T15:54:43Z</time>
      </trkpt>
      <trkpt lat="46.85116" lon="5.93067">
        <ele>600.3</ele>
        <time>2021-02-11T15:54:47Z</time>
      </trkpt>
      <trkpt lat="46.85118" lon="5.93074">
        <ele>600.8</ele>
        <time>2021-02-11T15:54:51Z</time>
      </trkpt>
      <trkpt lat="46.8512" lon="5.9308">
        <ele>601.2</ele>
        <time>2021-02-11T15:54:55Z</time>
      </trkpt>
      <trkpt lat="46.85122" lon="5.93086">
        <ele>601.2</ele>
        <time>2021-02-11T15:54:59Z</time>
      </trkpt>
      <trkpt lat="46.85126" lon="5.93091">
        <ele>601.4</ele>
        <time>2021-02-11T15:55:07Z</time>
      </trkpt>
      <trkpt lat="46.8513" lon="5.93087">
        <ele>601.6</ele>
        <time>2021-02-11T15:55:12Z</time>
      </trkpt>
      <trkpt lat="46.85136" lon="5.93086">
        <ele>601.9</ele>
        <time>2021-02-11T15:55:17Z</time>
      </trkpt>
      <trkpt lat="46.8514" lon="5.9309">
        <ele>601.8</ele>
        <time>2021-02-11T15:55:22Z</time>
      </trkpt>
      <trkpt lat="46.85144" lon="5.93095">
        <ele>601.6</ele>
        <time>2021-02-11T15:55:26Z</time>
      </trkpt>
      <trkpt lat="46.85147" lon="5.931">
        <ele>601.3</ele>
        <time>2021-02-11T15:55:30Z</time>
      </trkpt>
      <trkpt lat="46.8515" lon="5.93105">
        <ele>601</ele>
        <time>2021-02-11T15:55:34Z</time>
      </trkpt>
      <trkpt lat="46.85153" lon="5.9311">
        <ele>600.6</ele>
        <time>2021-02-11T15:55:38Z</time>
      </trkpt>
      <trkpt lat="46.85156" lon="5.93116">
        <ele>600.2</ele>
        <time>2021-02-11T15:55:43Z</time>
      </trkpt>
      <trkpt lat="46.85159" lon="5.93121">
        <ele>599.6</ele>
        <time>2021-02-11T15:55:47Z</time>
      </trkpt>
      <trkpt lat="46.85162" lon="5.93128">
        <ele>598.9</ele>
        <time>2021-02-11T15:55:52Z</time>
      </trkpt>
      <trkpt lat="46.85165" lon="5.93134">
        <ele>598.7</ele>
        <time>2021-02-11T15:55:56Z</time>
      </trkpt>
      <trkpt lat="46.85169" lon="5.93139">
        <ele>598.4</ele>
        <time>2021-02-11T15:56:00Z</time>
      </trkpt>
      <trkpt lat="46.85172" lon="5.93144">
        <ele>598</ele>
        <time>2021-02-11T15:56:05Z</time>
      </trkpt>
      <trkpt lat="46.85176" lon="5.9315">
        <ele>598</ele>
        <time>2021-02-11T15:56:10Z</time>
      </trkpt>
      <trkpt lat="46.85179" lon="5.93156">
        <ele>598.5</ele>
        <time>2021-02-11T15:56:14Z</time>
      </trkpt>
      <trkpt lat="46.85181" lon="5.93162">
        <ele>598.8</ele>
        <time>2021-02-11T15:56:18Z</time>
      </trkpt>
      <trkpt lat="46.85184" lon="5.93167">
        <ele>599.1</ele>
        <time>2021-02-11T15:56:22Z</time>
      </trkpt>
      <trkpt lat="46.85188" lon="5.93172">
        <ele>599.3</ele>
        <time>2021-02-11T15:56:26Z</time>
      </trkpt>
      <trkpt lat="46.85191" lon="5.93177">
        <ele>599.5</ele>
        <time>2021-02-11T15:56:30Z</time>
      </trkpt>
      <trkpt lat="46.85194" lon="5.93182">
        <ele>599.9</ele>
        <time>2021-02-11T15:56:34Z</time>
      </trkpt>
      <trkpt lat="46.85197" lon="5.93188">
        <ele>600</ele>
        <time>2021-02-11T15:56:38Z</time>
      </trkpt>
      <trkpt lat="46.852" lon="5.93194">
        <ele>599.9</ele>
        <time>2021-02-11T15:56:43Z</time>
      </trkpt>
      <trkpt lat="46.85204" lon="5.932">
        <ele>599.5</ele>
        <time>2021-02-11T15:56:48Z</time>
      </trkpt>
      <trkpt lat="46.85206" lon="5.93207">
        <ele>599.4</ele>
        <time>2021-02-11T15:56:53Z</time>
      </trkpt>
      <trkpt lat="46.85209" lon="5.93213">
        <ele>599.5</ele>
        <time>2021-02-11T15:56:57Z</time>
      </trkpt>
      <trkpt lat="46.85213" lon="5.93218">
        <ele>599.8</ele>
        <time>2021-02-11T15:57:01Z</time>
      </trkpt>
      <trkpt lat="46.85216" lon="5.93222">
        <ele>600.3</ele>
        <time>2021-02-11T15:57:05Z</time>
      </trkpt>
      <trkpt lat="46.8522" lon="5.93226">
        <ele>600.5</ele>
        <time>2021-02-11T15:57:10Z</time>
      </trkpt>
      <trkpt lat="46.85224" lon="5.9323">
        <ele>600.4</ele>
        <time>2021-02-11T15:57:16Z</time>
      </trkpt>
      <trkpt lat="46.85228" lon="5.93234">
        <ele>600.5</ele>
        <time>2021-02-11T15:57:20Z</time>
      </trkpt>
      <trkpt lat="46.85231" lon="5.93239">
        <ele>600.5</ele>
        <time>2021-02-11T15:57:24Z</time>
      </trkpt>
      <trkpt lat="46.85235" lon="5.93243">
        <ele>600.5</ele>
        <time>2021-02-11T15:57:28Z</time>
      </trkpt>
      <trkpt lat="46.85239" lon="5.93247">
        <ele>600.9</ele>
        <time>2021-02-11T15:57:32Z</time>
      </trkpt>
      <trkpt lat="46.85244" lon="5.93247">
        <ele>601.4</ele>
        <time>2021-02-11T15:57:38Z</time>
      </trkpt>
      <trkpt lat="46.85249" lon="5.93246">
        <ele>601.4</ele>
        <time>2021-02-11T15:57:43Z</time>
      </trkpt>
      <trkpt lat="46.85254" lon="5.93246">
        <ele>600.8</ele>
        <time>2021-02-11T15:57:48Z</time>
      </trkpt>
      <trkpt lat="46.85259" lon="5.93248">
        <ele>600.3</ele>
        <time>2021-02-11T15:57:52Z</time>
      </trkpt>
      <trkpt lat="46.85265" lon="5.93251">
        <ele>601.7</ele>
        <time>2021-02-11T15:57:55Z</time>
      </trkpt>
      <trkpt lat="46.8527" lon="5.93254">
        <ele>602.6</ele>
        <time>2021-02-11T15:57:59Z</time>
      </trkpt>
      <trkpt lat="46.85275" lon="5.93252">
        <ele>603.2</ele>
        <time>2021-02-11T15:58:12Z</time>
      </trkpt>
      <trkpt lat="46.8528" lon="5.9325">
        <ele>603.2</ele>
        <time>2021-02-11T15:58:17Z</time>
      </trkpt>
      <trkpt lat="46.85285" lon="5.93251">
        <ele>603.7</ele>
        <time>2021-02-11T15:58:25Z</time>
      </trkpt>
    </trkseg>
  </trk>
</gpx>